﻿<?xml version="1.0" encoding="utf-8"?><gpx creator="Garmin Desktop App" version="1.1" xsi:schemaLocation="http://www.topografix.com/GPX/1/1 http://www.topografix.com/GPX/1/1/gpx.xsd http://www.garmin.com/xmlschemas/WaypointExtension/v1 http://www8.garmin.com/xmlschemas/WaypointExtensionv1.xsd http://www.garmin.com/xmlschemas/TrackPointExtension/v1 http://www.garmin.com/xmlschemas/TrackPointExtensionv1.xsd http://www.garmin.com/xmlschemas/GpxExtensions/v3 http://www8.garmin.com/xmlschemas/GpxExtensionsv3.xsd http://www.garmin.com/xmlschemas/ActivityExtension/v1 http://www8.garmin.com/xmlschemas/ActivityExtensionv1.xsd http://www.garmin.com/xmlschemas/AdventuresExtensions/v1 http://www8.garmin.com/xmlschemas/AdventuresExtensionv1.xsd http://www.garmin.com/xmlschemas/PressureExtension/v1 http://www.garmin.com/xmlschemas/PressureExtensionv1.xsd http://www.garmin.com/xmlschemas/TripExtensions/v1 http://www.garmin.com/xmlschemas/TripExtensionsv1.xsd http://www.garmin.com/xmlschemas/TripMetaDataExtensions/v1 http://www.garmin.com/xmlschemas/TripMetaDataExtensionsv1.xsd http://www.garmin.com/xmlschemas/ViaPointTransportationModeExtensions/v1 http://www.garmin.com/xmlschemas/ViaPointTransportationModeExtensionsv1.xsd http://www.garmin.com/xmlschemas/CreationTimeExtension/v1 http://www.garmin.com/xmlschemas/CreationTimeExtensionsv1.xsd http://www.garmin.com/xmlschemas/AccelerationExtension/v1 http://www.garmin.com/xmlschemas/AccelerationExtensionv1.xsd http://www.garmin.com/xmlschemas/PowerExtension/v1 http://www.garmin.com/xmlschemas/PowerExtensionv1.xsd http://www.garmin.com/xmlschemas/VideoExtension/v1 http://www.garmin.com/xmlschemas/VideoExtensionv1.xsd" xmlns="http://www.topografix.com/GPX/1/1" xmlns:xsi="http://www.w3.org/2001/XMLSchema-instance" xmlns:wptx1="http://www.garmin.com/xmlschemas/WaypointExtension/v1" xmlns:gpxtrx="http://www.garmin.com/xmlschemas/GpxExtensions/v3" xmlns:gpxtpx="http://www.garmin.com/xmlschemas/TrackPointExtension/v1" xmlns:gpxx="http://www.garmin.com/xmlschemas/GpxExtensions/v3" xmlns:trp="http://www.garmin.com/xmlschemas/TripExtensions/v1" xmlns:adv="http://www.garmin.com/xmlschemas/AdventuresExtensions/v1" xmlns:prs="http://www.garmin.com/xmlschemas/PressureExtension/v1" xmlns:tmd="http://www.garmin.com/xmlschemas/TripMetaDataExtensions/v1" xmlns:vptm="http://www.garmin.com/xmlschemas/ViaPointTransportationModeExtensions/v1" xmlns:ctx="http://www.garmin.com/xmlschemas/CreationTimeExtension/v1" xmlns:gpxacc="http://www.garmin.com/xmlschemas/AccelerationExtension/v1" xmlns:gpxpx="http://www.garmin.com/xmlschemas/PowerExtension/v1" xmlns:vidx1="http://www.garmin.com/xmlschemas/VideoExtension/v1">

  <metadata>
    <link href="http://www.garmin.com">
      <text>Garmin International</text>
    </link>
    <time>2025-11-24T02:42:21Z</time>
    <bounds maxlat="46.102292099967599" maxlon="9.091131119057536" minlat="46.086054090410471" minlon="9.062272980809212" />
  </metadata>

  <trk>
    <name>verso il monte Garzirola2025-11-23</name>
    <extensions>
      <gpxx:TrackExtension>
        <gpxx:DisplayColor>Red</gpxx:DisplayColor>
      </gpxx:TrackExtension>
      <gpxtrkx:TrackStatsExtension xmlns:gpxtrkx="http://www.garmin.com/xmlschemas/TrackStatsExtension/v1">
        <gpxtrkx:Distance>17283</gpxtrkx:Distance>
        <gpxtrkx:TotalElapsedTime>26044</gpxtrkx:TotalElapsedTime>
        <gpxtrkx:MovingTime>20276</gpxtrkx:MovingTime>
        <gpxtrkx:StoppedTime>5701</gpxtrkx:StoppedTime>
        <gpxtrkx:MovingSpeed>0.852</gpxtrkx:MovingSpeed>
        <gpxtrkx:MaxSpeed>4.082</gpxtrkx:MaxSpeed>
        <gpxtrkx:MaxElevation>1886.524</gpxtrkx:MaxElevation>
        <gpxtrkx:MinElevation>955.632</gpxtrkx:MinElevation>
        <gpxtrkx:Ascent>969</gpxtrkx:Ascent>
        <gpxtrkx:Descent>978.422</gpxtrkx:Descent>
        <gpxtrkx:AvgAscentRate>0.073</gpxtrkx:AvgAscentRate>
        <gpxtrkx:MaxAscentRate>0.256</gpxtrkx:MaxAscentRate>
        <gpxtrkx:AvgDescentRate>0.092</gpxtrkx:AvgDescentRate>
        <gpxtrkx:MaxDescentRate>-0.345</gpxtrkx:MaxDescentRate>
      </gpxtrkx:TrackStatsExtension>
    </extensions>
    <trkseg>
      <trkpt lat="46.08981354162097" lon="9.062272980809212">
        <ele>967.52999999999997</ele>
        <time>2025-11-23T08:00:24Z</time>
      </trkpt>
      <trkpt lat="46.089797699823976" lon="9.062323523685336">
        <ele>966.15999999999997</ele>
        <time>2025-11-23T08:01:11Z</time>
      </trkpt>
      <trkpt lat="46.089736931025982" lon="9.062383286654949">
        <ele>966.5</ele>
        <time>2025-11-23T08:01:42Z</time>
      </trkpt>
      <trkpt lat="46.089751180261374" lon="9.0625015553087">
        <ele>967</ele>
        <time>2025-11-23T08:01:53Z</time>
      </trkpt>
      <trkpt lat="46.08973927795887" lon="9.062634659931064">
        <ele>967.84000000000003</ele>
        <time>2025-11-23T08:02:03Z</time>
      </trkpt>
      <trkpt lat="46.089703235775232" lon="9.062765082344413">
        <ele>968.66999999999996</ele>
        <time>2025-11-23T08:02:13Z</time>
      </trkpt>
      <trkpt lat="46.089707594364882" lon="9.062875639647245">
        <ele>969.75999999999999</ele>
        <time>2025-11-23T08:02:32Z</time>
      </trkpt>
      <trkpt lat="46.089762914925814" lon="9.062973875552416">
        <ele>972.45000000000005</ele>
        <time>2025-11-23T08:02:48Z</time>
      </trkpt>
      <trkpt lat="46.089818235486746" lon="9.063071440905333">
        <ele>974.64999999999998</ele>
        <time>2025-11-23T08:03:01Z</time>
      </trkpt>
      <trkpt lat="46.089818067848682" lon="9.063199767842889">
        <ele>976.70000000000005</ele>
        <time>2025-11-23T08:03:14Z</time>
      </trkpt>
      <trkpt lat="46.08988193795085" lon="9.063315689563751">
        <ele>979.88999999999999</ele>
        <time>2025-11-23T08:03:31Z</time>
      </trkpt>
      <trkpt lat="46.08988001011312" lon="9.063409063965082">
        <ele>982.10000000000002</ele>
        <time>2025-11-23T08:03:48Z</time>
      </trkpt>
      <trkpt lat="46.089955531060696" lon="9.063493302091956">
        <ele>984.71000000000004</ele>
        <time>2025-11-23T08:04:05Z</time>
      </trkpt>
      <trkpt lat="46.089874729514122" lon="9.063665382564068">
        <ele>988.46000000000004</ele>
        <time>2025-11-23T08:04:25Z</time>
      </trkpt>
      <trkpt lat="46.089888978749514" lon="9.063796475529671">
        <ele>988.86000000000001</ele>
        <time>2025-11-23T08:04:40Z</time>
      </trkpt>
      <trkpt lat="46.089827874675393" lon="9.063850622624159">
        <ele>988.67999999999995</ele>
        <time>2025-11-23T08:05:27Z</time>
      </trkpt>
      <trkpt lat="46.089819325134158" lon="9.063971824944019">
        <ele>990.79999999999995</ele>
        <time>2025-11-23T08:05:40Z</time>
      </trkpt>
      <trkpt lat="46.089848997071385" lon="9.064103337004781">
        <ele>992.21000000000004</ele>
        <time>2025-11-23T08:05:52Z</time>
      </trkpt>
      <trkpt lat="46.089852685108781" lon="9.064237279817462">
        <ele>993.54999999999995</ele>
        <time>2025-11-23T08:06:04Z</time>
      </trkpt>
      <trkpt lat="46.089836591854692" lon="9.064380777999759">
        <ele>994.45000000000005</ele>
        <time>2025-11-23T08:06:16Z</time>
      </trkpt>
      <trkpt lat="46.089784121140838" lon="9.064492424950004">
        <ele>996.55999999999995</ele>
        <time>2025-11-23T08:06:28Z</time>
      </trkpt>
      <trkpt lat="46.089713126420975" lon="9.064602982252836">
        <ele>997.16999999999996</ele>
        <time>2025-11-23T08:06:38Z</time>
      </trkpt>
      <trkpt lat="46.089663505554199" lon="9.064722424373031">
        <ele>997.40999999999997</ele>
        <time>2025-11-23T08:06:48Z</time>
      </trkpt>
      <trkpt lat="46.08962687663734" lon="9.06483817845583">
        <ele>998.63999999999999</ele>
        <time>2025-11-23T08:07:00Z</time>
      </trkpt>
      <trkpt lat="46.089593600481749" lon="9.064948735758662">
        <ele>998.98000000000002</ele>
        <time>2025-11-23T08:07:12Z</time>
      </trkpt>
      <trkpt lat="46.089559067040682" lon="9.065061304718256">
        <ele>998.34000000000003</ele>
        <time>2025-11-23T08:07:21Z</time>
      </trkpt>
      <trkpt lat="46.08950131572783" lon="9.065172113478184">
        <ele>998.76999999999998</ele>
        <time>2025-11-23T08:07:31Z</time>
      </trkpt>
      <trkpt lat="46.089451108127832" lon="9.065292980521917">
        <ele>999.30999999999995</ele>
        <time>2025-11-23T08:07:41Z</time>
      </trkpt>
      <trkpt lat="46.089453203603625" lon="9.065419128164649">
        <ele>999.98000000000002</ele>
        <time>2025-11-23T08:07:52Z</time>
      </trkpt>
      <trkpt lat="46.089440295472741" lon="9.065528763458133">
        <ele>1001.61</ele>
        <time>2025-11-23T08:08:03Z</time>
      </trkpt>
      <trkpt lat="46.089481450617313" lon="9.065631693229079">
        <ele>1004.39</ele>
        <time>2025-11-23T08:08:20Z</time>
      </trkpt>
      <trkpt lat="46.089560659602284" lon="9.065741579979658">
        <ele>1007.1900000000001</ele>
        <time>2025-11-23T08:08:36Z</time>
      </trkpt>
      <trkpt lat="46.089625786989927" lon="9.065808299928904">
        <ele>1008.22</ele>
        <time>2025-11-23T08:08:50Z</time>
      </trkpt>
      <trkpt lat="46.089699547737837" lon="9.065889017656446">
        <ele>1010.51</ele>
        <time>2025-11-23T08:09:06Z</time>
      </trkpt>
      <trkpt lat="46.08978470787406" lon="9.065990187227726">
        <ele>1013.36</ele>
        <time>2025-11-23T08:09:23Z</time>
      </trkpt>
      <trkpt lat="46.089831981807947" lon="9.066089680418372">
        <ele>1013.03</ele>
        <time>2025-11-23T08:09:33Z</time>
      </trkpt>
      <trkpt lat="46.089930972084403" lon="9.066153047606349">
        <ele>1014.37</ele>
        <time>2025-11-23T08:09:46Z</time>
      </trkpt>
      <trkpt lat="46.090020826086402" lon="9.066287409514189">
        <ele>1016.48</ele>
        <time>2025-11-23T08:10:00Z</time>
      </trkpt>
      <trkpt lat="46.090001212432981" lon="9.066448006778956">
        <ele>1019.05</ele>
        <time>2025-11-23T08:10:17Z</time>
      </trkpt>
      <trkpt lat="46.090027699247003" lon="9.066505674272776">
        <ele>1021.9</ele>
        <time>2025-11-23T08:10:32Z</time>
      </trkpt>
      <trkpt lat="46.090012947097421" lon="9.066601311787963">
        <ele>1025.45</ele>
        <time>2025-11-23T08:10:54Z</time>
      </trkpt>
      <trkpt lat="46.090048486366868" lon="9.066557725891471">
        <ele>1025.28</ele>
        <time>2025-11-23T08:11:19Z</time>
      </trkpt>
      <trkpt lat="46.089940024539828" lon="9.066578429192305">
        <ele>1026.98</ele>
        <time>2025-11-23T08:12:07Z</time>
      </trkpt>
      <trkpt lat="46.089847069233656" lon="9.066631151363254">
        <ele>1029.73</ele>
        <time>2025-11-23T08:12:27Z</time>
      </trkpt>
      <trkpt lat="46.089817648753524" lon="9.066775655373931">
        <ele>1033.79</ele>
        <time>2025-11-23T08:12:49Z</time>
      </trkpt>
      <trkpt lat="46.08989073894918" lon="9.066883949562907">
        <ele>1038.6300000000001</ele>
        <time>2025-11-23T08:13:13Z</time>
      </trkpt>
      <trkpt lat="46.089962488040328" lon="9.06683910638094">
        <ele>1040.54</ele>
        <time>2025-11-23T08:13:29Z</time>
      </trkpt>
      <trkpt lat="46.089970534667373" lon="9.066949747502804">
        <ele>1042.3499999999999</ele>
        <time>2025-11-23T08:13:45Z</time>
      </trkpt>
      <trkpt lat="46.089952681213617" lon="9.067063657566905">
        <ele>1044.7</ele>
        <time>2025-11-23T08:14:04Z</time>
      </trkpt>
      <trkpt lat="46.089987633749843" lon="9.067114535719156">
        <ele>1047.97</ele>
        <time>2025-11-23T08:14:24Z</time>
      </trkpt>
      <trkpt lat="46.090027866885066" lon="9.067169018089771">
        <ele>1050.1700000000001</ele>
        <time>2025-11-23T08:14:43Z</time>
      </trkpt>
      <trkpt lat="46.08996651135385" lon="9.067282006144524">
        <ele>1052.79</ele>
        <time>2025-11-23T08:15:05Z</time>
      </trkpt>
      <trkpt lat="46.090039182454348" lon="9.06733900308609">
        <ele>1056.53</ele>
        <time>2025-11-23T08:15:25Z</time>
      </trkpt>
      <trkpt lat="46.09004370868206" lon="9.067446710541844">
        <ele>1058.3900000000001</ele>
        <time>2025-11-23T08:15:49Z</time>
      </trkpt>
      <trkpt lat="46.09008670784533" lon="9.067447800189257">
        <ele>1061.46</ele>
        <time>2025-11-23T08:16:12Z</time>
      </trkpt>
      <trkpt lat="46.09003490768373" lon="9.067622143775225">
        <ele>1064.25</ele>
        <time>2025-11-23T08:16:33Z</time>
      </trkpt>
      <trkpt lat="46.090059466660023" lon="9.067658269777894">
        <ele>1066.5699999999999</ele>
        <time>2025-11-23T08:16:51Z</time>
      </trkpt>
      <trkpt lat="46.090131467208266" lon="9.067630944773555">
        <ele>1068.8199999999999</ele>
        <time>2025-11-23T08:17:07Z</time>
      </trkpt>
      <trkpt lat="46.090118307620287" lon="9.067759271711111">
        <ele>1072.25</ele>
        <time>2025-11-23T08:17:29Z</time>
      </trkpt>
      <trkpt lat="46.090213609859347" lon="9.067709231749177">
        <ele>1075.6800000000001</ele>
        <time>2025-11-23T08:17:52Z</time>
      </trkpt>
      <trkpt lat="46.09027630649507" lon="9.06772892922163">
        <ele>1077.74</ele>
        <time>2025-11-23T08:18:09Z</time>
      </trkpt>
      <trkpt lat="46.090274211019278" lon="9.067830936983228">
        <ele>1080.79</ele>
        <time>2025-11-23T08:18:31Z</time>
      </trkpt>
      <trkpt lat="46.090351827442646" lon="9.067728677764535">
        <ele>1083.46</ele>
        <time>2025-11-23T08:18:51Z</time>
      </trkpt>
      <trkpt lat="46.090403208509088" lon="9.067746279761195">
        <ele>1085.99</ele>
        <time>2025-11-23T08:19:11Z</time>
      </trkpt>
      <trkpt lat="46.090439669787884" lon="9.067864045500755">
        <ele>1088.8399999999999</ele>
        <time>2025-11-23T08:19:31Z</time>
      </trkpt>
      <trkpt lat="46.090482585132122" lon="9.067924730479717">
        <ele>1092.47</ele>
        <time>2025-11-23T08:19:57Z</time>
      </trkpt>
      <trkpt lat="46.090570595115423" lon="9.067884245887399">
        <ele>1095</ele>
        <time>2025-11-23T08:20:19Z</time>
      </trkpt>
      <trkpt lat="46.090614264830947" lon="9.067996395751834">
        <ele>1098.55</ele>
        <time>2025-11-23T08:20:42Z</time>
      </trkpt>
      <trkpt lat="46.090685762465" lon="9.06795758754015">
        <ele>1101</ele>
        <time>2025-11-23T08:21:01Z</time>
      </trkpt>
      <trkpt lat="46.09068282879889" lon="9.06806462444365">
        <ele>1103.48</ele>
        <time>2025-11-23T08:21:19Z</time>
      </trkpt>
      <trkpt lat="46.090696323662996" lon="9.068141905590892">
        <ele>1106.71</ele>
        <time>2025-11-23T08:21:43Z</time>
      </trkpt>
      <trkpt lat="46.090670339763165" lon="9.068298730999231">
        <ele>1110.28</ele>
        <time>2025-11-23T08:22:06Z</time>
      </trkpt>
      <trkpt lat="46.090727588161826" lon="9.06832161359489">
        <ele>1112.77</ele>
        <time>2025-11-23T08:22:51Z</time>
      </trkpt>
      <trkpt lat="46.090682661160827" lon="9.068329576402903">
        <ele>1112.3900000000001</ele>
        <time>2025-11-23T08:24:29Z</time>
      </trkpt>
      <trkpt lat="46.090623317286372" lon="9.068360002711415">
        <ele>1114.49</ele>
        <time>2025-11-23T08:26:36Z</time>
      </trkpt>
      <trkpt lat="46.090614181011915" lon="9.06848631799221">
        <ele>1117.55</ele>
        <time>2025-11-23T08:26:57Z</time>
      </trkpt>
      <trkpt lat="46.090719541534781" lon="9.068459831178188">
        <ele>1120.9200000000001</ele>
        <time>2025-11-23T08:27:16Z</time>
      </trkpt>
      <trkpt lat="46.090697664767504" lon="9.068595618009567">
        <ele>1123.3699999999999</ele>
        <time>2025-11-23T08:27:35Z</time>
      </trkpt>
      <trkpt lat="46.090613259002566" lon="9.068698715418577">
        <ele>1125.8099999999999</ele>
        <time>2025-11-23T08:27:54Z</time>
      </trkpt>
      <trkpt lat="46.090526171028614" lon="9.068748839199543">
        <ele>1129.97</ele>
        <time>2025-11-23T08:29:10Z</time>
      </trkpt>
      <trkpt lat="46.090560536831617" lon="9.068738110363483">
        <ele>1126.1700000000001</ele>
        <time>2025-11-23T08:30:39Z</time>
      </trkpt>
      <trkpt lat="46.090540336444974" lon="9.068756215274334">
        <ele>1126.6500000000001</ele>
        <time>2025-11-23T08:31:25Z</time>
      </trkpt>
      <trkpt lat="46.090444950386882" lon="9.068869119510055">
        <ele>1128.55</ele>
        <time>2025-11-23T08:31:42Z</time>
      </trkpt>
      <trkpt lat="46.090380996465683" lon="9.06897883862257">
        <ele>1129.1500000000001</ele>
        <time>2025-11-23T08:31:54Z</time>
      </trkpt>
      <trkpt lat="46.090337326750159" lon="9.069132646545768">
        <ele>1130.22</ele>
        <time>2025-11-23T08:32:07Z</time>
      </trkpt>
      <trkpt lat="46.090290555730462" lon="9.0692881308496">
        <ele>1131.3</ele>
        <time>2025-11-23T08:32:20Z</time>
      </trkpt>
      <trkpt lat="46.090204892680049" lon="9.069378487765789">
        <ele>1134.1600000000001</ele>
        <time>2025-11-23T08:32:37Z</time>
      </trkpt>
      <trkpt lat="46.090144878253341" lon="9.069527182728052">
        <ele>1136.99</ele>
        <time>2025-11-23T08:32:56Z</time>
      </trkpt>
      <trkpt lat="46.090066591277719" lon="9.069641595706344">
        <ele>1139</ele>
        <time>2025-11-23T08:33:13Z</time>
      </trkpt>
      <trkpt lat="46.090012947097421" lon="9.069779310375452">
        <ele>1141.46</ele>
        <time>2025-11-23T08:33:30Z</time>
      </trkpt>
      <trkpt lat="46.08991663902998" lon="9.069900093600154">
        <ele>1143.99</ele>
        <time>2025-11-23T08:33:49Z</time>
      </trkpt>
      <trkpt lat="46.089857378974557" lon="9.070006459951401">
        <ele>1146.22</ele>
        <time>2025-11-23T08:34:07Z</time>
      </trkpt>
      <trkpt lat="46.089753108099103" lon="9.070053398609161">
        <ele>1148.26</ele>
        <time>2025-11-23T08:34:24Z</time>
      </trkpt>
      <trkpt lat="46.089712958782911" lon="9.070165045559406">
        <ele>1150.3399999999999</ele>
        <time>2025-11-23T08:34:43Z</time>
      </trkpt>
      <trkpt lat="46.089741624891758" lon="9.070313153788447">
        <ele>1152.96</ele>
        <time>2025-11-23T08:35:02Z</time>
      </trkpt>
      <trkpt lat="46.089824857190251" lon="9.070400157943368">
        <ele>1155.52</ele>
        <time>2025-11-23T08:35:22Z</time>
      </trkpt>
      <trkpt lat="46.0898775793612" lon="9.070482049137354">
        <ele>1157.6800000000001</ele>
        <time>2025-11-23T08:35:44Z</time>
      </trkpt>
      <trkpt lat="46.089925356209278" lon="9.070347603410482">
        <ele>1159.9400000000001</ele>
        <time>2025-11-23T08:36:02Z</time>
      </trkpt>
      <trkpt lat="46.089984364807606" lon="9.070278368890286">
        <ele>1161.1099999999999</ele>
        <time>2025-11-23T08:36:15Z</time>
      </trkpt>
      <trkpt lat="46.090074805542827" lon="9.070191280916333">
        <ele>1162.5</ele>
        <time>2025-11-23T08:36:32Z</time>
      </trkpt>
      <trkpt lat="46.090153092518449" lon="9.070108719170094">
        <ele>1164.45</ele>
        <time>2025-11-23T08:36:49Z</time>
      </trkpt>
      <trkpt lat="46.090218890458345" lon="9.070086926221848">
        <ele>1167.27</ele>
        <time>2025-11-23T08:37:18Z</time>
      </trkpt>
      <trkpt lat="46.090279994532466" lon="9.070018613711">
        <ele>1169.02</ele>
        <time>2025-11-23T08:37:50Z</time>
      </trkpt>
      <trkpt lat="46.090381247922778" lon="9.070039400830865">
        <ele>1172</ele>
        <time>2025-11-23T08:38:08Z</time>
      </trkpt>
      <trkpt lat="46.090388791635633" lon="9.07017208635807">
        <ele>1175.22</ele>
        <time>2025-11-23T08:38:28Z</time>
      </trkpt>
      <trkpt lat="46.090313354507089" lon="9.070273004472256">
        <ele>1176.79</ele>
        <time>2025-11-23T08:38:45Z</time>
      </trkpt>
      <trkpt lat="46.090263230726123" lon="9.070421783253551">
        <ele>1178.1600000000001</ele>
        <time>2025-11-23T08:40:19Z</time>
      </trkpt>
      <trkpt lat="46.090303799137473" lon="9.07056687399745">
        <ele>1181.1900000000001</ele>
        <time>2025-11-23T08:40:41Z</time>
      </trkpt>
      <trkpt lat="46.090360376983881" lon="9.070646585896611">
        <ele>1183.1199999999999</ele>
        <time>2025-11-23T08:41:01Z</time>
      </trkpt>
      <trkpt lat="46.090409494936466" lon="9.070765441283584">
        <ele>1184.26</ele>
        <time>2025-11-23T08:41:18Z</time>
      </trkpt>
      <trkpt lat="46.090482249855995" lon="9.070887565612793">
        <ele>1185.9000000000001</ele>
        <time>2025-11-23T08:41:34Z</time>
      </trkpt>
      <trkpt lat="46.090556681156158" lon="9.071010779589415">
        <ele>1187.99</ele>
        <time>2025-11-23T08:41:54Z</time>
      </trkpt>
      <trkpt lat="46.090592639520764" lon="9.071039194241166">
        <ele>1189.9000000000001</ele>
        <time>2025-11-23T08:42:07Z</time>
      </trkpt>
      <trkpt lat="46.090659694746137" lon="9.071118319407105">
        <ele>1192.01</ele>
        <time>2025-11-23T08:42:34Z</time>
      </trkpt>
      <trkpt lat="46.090719206258655" lon="9.071261398494244">
        <ele>1193.03</ele>
        <time>2025-11-23T08:42:49Z</time>
      </trkpt>
      <trkpt lat="46.090785674750805" lon="9.07136483117938">
        <ele>1193.49</ele>
        <time>2025-11-23T08:43:04Z</time>
      </trkpt>
      <trkpt lat="46.090867482125759" lon="9.071497349068523">
        <ele>1193.8299999999999</ele>
        <time>2025-11-23T08:43:17Z</time>
      </trkpt>
      <trkpt lat="46.090925317257643" lon="9.071642020717263">
        <ele>1195.54</ele>
        <time>2025-11-23T08:43:31Z</time>
      </trkpt>
      <trkpt lat="46.091016344726086" lon="9.071766240522265">
        <ele>1197.79</ele>
        <time>2025-11-23T08:43:48Z</time>
      </trkpt>
      <trkpt lat="46.09109764918685" lon="9.071816867217422">
        <ele>1199.3199999999999</ele>
        <time>2025-11-23T08:44:03Z</time>
      </trkpt>
      <trkpt lat="46.091154143214226" lon="9.071927424520254">
        <ele>1198.74</ele>
        <time>2025-11-23T08:44:12Z</time>
      </trkpt>
      <trkpt lat="46.091187335550785" lon="9.07207134179771">
        <ele>1199.46</ele>
        <time>2025-11-23T08:44:23Z</time>
      </trkpt>
      <trkpt lat="46.091192699968815" lon="9.072200758382678">
        <ele>1201.05</ele>
        <time>2025-11-23T08:44:52Z</time>
      </trkpt>
      <trkpt lat="46.09123645350337" lon="9.072317769750953">
        <ele>1203.3199999999999</ele>
        <time>2025-11-23T08:45:07Z</time>
      </trkpt>
      <trkpt lat="46.09129118733108" lon="9.072428913787007">
        <ele>1205.98</ele>
        <time>2025-11-23T08:45:22Z</time>
      </trkpt>
      <trkpt lat="46.091379364952445" lon="9.072492951527238">
        <ele>1206.53</ele>
        <time>2025-11-23T08:45:33Z</time>
      </trkpt>
      <trkpt lat="46.091445665806532" lon="9.072596887126565">
        <ele>1207.5999999999999</ele>
        <time>2025-11-23T08:45:45Z</time>
      </trkpt>
      <trkpt lat="46.091523449867964" lon="9.072691602632403">
        <ele>1208.8900000000001</ele>
        <time>2025-11-23T08:45:58Z</time>
      </trkpt>
      <trkpt lat="46.091616153717041" lon="9.07281213440001">
        <ele>1210.3599999999999</ele>
        <time>2025-11-23T08:46:11Z</time>
      </trkpt>
      <trkpt lat="46.091664684936404" lon="9.072941802442074">
        <ele>1210.1700000000001</ele>
        <time>2025-11-23T08:46:22Z</time>
      </trkpt>
      <trkpt lat="46.091598970815539" lon="9.073050934821367">
        <ele>1211.0799999999999</ele>
        <time>2025-11-23T08:46:36Z</time>
      </trkpt>
      <trkpt lat="46.091506518423557" lon="9.073162917047739">
        <ele>1211.29</ele>
        <time>2025-11-23T08:46:51Z</time>
      </trkpt>
      <trkpt lat="46.091477936133742" lon="9.073297530412674">
        <ele>1213.3399999999999</ele>
        <time>2025-11-23T08:47:07Z</time>
      </trkpt>
      <trkpt lat="46.091400822624564" lon="9.073363244533539">
        <ele>1216.4100000000001</ele>
        <time>2025-11-23T08:47:29Z</time>
      </trkpt>
      <trkpt lat="46.091328654438257" lon="9.073467599228025">
        <ele>1219.45</ele>
        <time>2025-11-23T08:47:49Z</time>
      </trkpt>
      <trkpt lat="46.091275680810213" lon="9.073622999712825">
        <ele>1219.47</ele>
        <time>2025-11-23T08:48:02Z</time>
      </trkpt>
      <trkpt lat="46.091204434633255" lon="9.073720732703805">
        <ele>1218.6700000000001</ele>
        <time>2025-11-23T08:48:16Z</time>
      </trkpt>
      <trkpt lat="46.091100415214896" lon="9.073650576174259">
        <ele>1219.04</ele>
        <time>2025-11-23T08:48:31Z</time>
      </trkpt>
      <trkpt lat="46.091001089662313" lon="9.073695838451386">
        <ele>1220.54</ele>
        <time>2025-11-23T08:48:47Z</time>
      </trkpt>
      <trkpt lat="46.090900674462318" lon="9.073731126263738">
        <ele>1223.4300000000001</ele>
        <time>2025-11-23T08:49:04Z</time>
      </trkpt>
      <trkpt lat="46.090965801849961" lon="9.073772029951215">
        <ele>1226.0899999999999</ele>
        <time>2025-11-23T08:49:24Z</time>
      </trkpt>
      <trkpt lat="46.091051381081343" lon="9.073851993307471">
        <ele>1229.9200000000001</ele>
        <time>2025-11-23T08:49:48Z</time>
      </trkpt>
      <trkpt lat="46.091115502640605" lon="9.073942517861724">
        <ele>1232.9100000000001</ele>
        <time>2025-11-23T08:50:09Z</time>
      </trkpt>
      <trkpt lat="46.091059008613229" lon="9.074027929455042">
        <ele>1237.4200000000001</ele>
        <time>2025-11-23T08:50:34Z</time>
      </trkpt>
      <trkpt lat="46.090954653918743" lon="9.074047794565558">
        <ele>1240.24</ele>
        <time>2025-11-23T08:50:53Z</time>
      </trkpt>
      <trkpt lat="46.090870164334774" lon="9.074097750708461">
        <ele>1243.27</ele>
        <time>2025-11-23T08:51:14Z</time>
      </trkpt>
      <trkpt lat="46.090772598981857" lon="9.074133709073067">
        <ele>1246.1099999999999</ele>
        <time>2025-11-23T08:51:34Z</time>
      </trkpt>
      <trkpt lat="46.090729935094714" lon="9.074224233627319">
        <ele>1249.24</ele>
        <time>2025-11-23T08:51:56Z</time>
      </trkpt>
      <trkpt lat="46.090645445510745" lon="9.07426287420094">
        <ele>1252.29</ele>
        <time>2025-11-23T08:52:17Z</time>
      </trkpt>
      <trkpt lat="46.090557938441634" lon="9.074276201426983">
        <ele>1255.27</ele>
        <time>2025-11-23T08:52:36Z</time>
      </trkpt>
      <trkpt lat="46.09052449464798" lon="9.074373012408614">
        <ele>1256.55</ele>
        <time>2025-11-23T08:53:01Z</time>
      </trkpt>
      <trkpt lat="46.090556681156158" lon="9.074494047090411">
        <ele>1258.2</ele>
        <time>2025-11-23T08:53:16Z</time>
      </trkpt>
      <trkpt lat="46.090577132999897" lon="9.074616674333811">
        <ele>1260.98</ele>
        <time>2025-11-23T08:53:35Z</time>
      </trkpt>
      <trkpt lat="46.090590627864003" lon="9.074754305183888">
        <ele>1263.8699999999999</ele>
        <time>2025-11-23T08:53:56Z</time>
      </trkpt>
      <trkpt lat="46.090583419427276" lon="9.074909621849656">
        <ele>1266.6700000000001</ele>
        <time>2025-11-23T08:54:17Z</time>
      </trkpt>
      <trkpt lat="46.090599428862333" lon="9.075032165274024">
        <ele>1269.45</ele>
        <time>2025-11-23T08:54:37Z</time>
      </trkpt>
      <trkpt lat="46.090587694197893" lon="9.075169963762164">
        <ele>1272.73</ele>
        <time>2025-11-23T08:54:59Z</time>
      </trkpt>
      <trkpt lat="46.090600686147809" lon="9.07531681470573">
        <ele>1275.8499999999999</ele>
        <time>2025-11-23T08:55:20Z</time>
      </trkpt>
      <trkpt lat="46.090590041130781" lon="9.075475400313735">
        <ele>1278.3299999999999</ele>
        <time>2025-11-23T08:55:41Z</time>
      </trkpt>
      <trkpt lat="46.09056556597352" lon="9.075593752786517">
        <ele>1277.48</ele>
        <time>2025-11-23T08:56:02Z</time>
      </trkpt>
      <trkpt lat="46.090561207383871" lon="9.075545137748122">
        <ele>1277.3199999999999</ele>
        <time>2025-11-23T08:57:08Z</time>
      </trkpt>
      <trkpt lat="46.09055039472878" lon="9.075553771108389">
        <ele>1277.8900000000001</ele>
        <time>2025-11-23T08:58:03Z</time>
      </trkpt>
      <trkpt lat="46.090472107753158" lon="9.075616635382175">
        <ele>1279.0999999999999</ele>
        <time>2025-11-23T08:58:56Z</time>
      </trkpt>
      <trkpt lat="46.090459786355495" lon="9.075606158003211">
        <ele>1280.54</ele>
        <time>2025-11-23T08:59:16Z</time>
      </trkpt>
      <trkpt lat="46.09052843414247" lon="9.075764827430248">
        <ele>1284.27</ele>
        <time>2025-11-23T08:59:37Z</time>
      </trkpt>
      <trkpt lat="46.090594734996557" lon="9.075952246785164">
        <ele>1287.9200000000001</ele>
        <time>2025-11-23T08:59:57Z</time>
      </trkpt>
      <trkpt lat="46.090652151033282" lon="9.076090883463621">
        <ele>1291.51</ele>
        <time>2025-11-23T09:00:19Z</time>
      </trkpt>
      <trkpt lat="46.090661035850644" lon="9.076242428272963">
        <ele>1294.25</ele>
        <time>2025-11-23T09:00:38Z</time>
      </trkpt>
      <trkpt lat="46.090629016980529" lon="9.076379723846912">
        <ele>1296.74</ele>
        <time>2025-11-23T09:00:59Z</time>
      </trkpt>
      <trkpt lat="46.090610660612583" lon="9.07654132694006">
        <ele>1299.8599999999999</ele>
        <time>2025-11-23T09:01:19Z</time>
      </trkpt>
      <trkpt lat="46.090609822422266" lon="9.076685076579452">
        <ele>1303.02</ele>
        <time>2025-11-23T09:01:41Z</time>
      </trkpt>
      <trkpt lat="46.090643601492047" lon="9.076806949451566">
        <ele>1305.5599999999999</ele>
        <time>2025-11-23T09:02:02Z</time>
      </trkpt>
      <trkpt lat="46.090609151870012" lon="9.076923709362745">
        <ele>1307.78</ele>
        <time>2025-11-23T09:02:22Z</time>
      </trkpt>
      <trkpt lat="46.090574953705072" lon="9.077031500637531">
        <ele>1307.9000000000001</ele>
        <time>2025-11-23T09:02:44Z</time>
      </trkpt>
      <trkpt lat="46.090604541823268" lon="9.07719855196774">
        <ele>1308.47</ele>
        <time>2025-11-23T09:02:58Z</time>
      </trkpt>
      <trkpt lat="46.09066472388804" lon="9.077383372932673">
        <ele>1311.02</ele>
        <time>2025-11-23T09:03:16Z</time>
      </trkpt>
      <trkpt lat="46.09068626537919" lon="9.077544640749693">
        <ele>1313.7</ele>
        <time>2025-11-23T09:03:38Z</time>
      </trkpt>
      <trkpt lat="46.090719038620591" lon="9.077726611867547">
        <ele>1311.0799999999999</ele>
        <time>2025-11-23T09:03:51Z</time>
      </trkpt>
      <trkpt lat="46.090689115226269" lon="9.077872708439827">
        <ele>1312.03</ele>
        <time>2025-11-23T09:04:03Z</time>
      </trkpt>
      <trkpt lat="46.090674949809909" lon="9.078015200793743">
        <ele>1313.97</ele>
        <time>2025-11-23T09:04:17Z</time>
      </trkpt>
      <trkpt lat="46.090706968680024" lon="9.078162889927626">
        <ele>1317.8299999999999</ele>
        <time>2025-11-23T09:04:39Z</time>
      </trkpt>
      <trkpt lat="46.090655839070678" lon="9.07827839255333">
        <ele>1321.01</ele>
        <time>2025-11-23T09:05:01Z</time>
      </trkpt>
      <trkpt lat="46.09057973138988" lon="9.078405043110251">
        <ele>1323.77</ele>
        <time>2025-11-23T09:05:21Z</time>
      </trkpt>
      <trkpt lat="46.090609906241298" lon="9.078515432775021">
        <ele>1326.52</ele>
        <time>2025-11-23T09:05:41Z</time>
      </trkpt>
      <trkpt lat="46.090671429410577" lon="9.078471595421433">
        <ele>1329.3</ele>
        <time>2025-11-23T09:06:32Z</time>
      </trkpt>
      <trkpt lat="46.09069699421525" lon="9.07860679551959">
        <ele>1333.3399999999999</ele>
        <time>2025-11-23T09:06:54Z</time>
      </trkpt>
      <trkpt lat="46.090709567070007" lon="9.078737301751971">
        <ele>1336.6300000000001</ele>
        <time>2025-11-23T09:07:19Z</time>
      </trkpt>
      <trkpt lat="46.09068525955081" lon="9.078878620639443">
        <ele>1340.3699999999999</ele>
        <time>2025-11-23T09:07:43Z</time>
      </trkpt>
      <trkpt lat="46.090714931488037" lon="9.079032680019736">
        <ele>1343.49</ele>
        <time>2025-11-23T09:08:06Z</time>
      </trkpt>
      <trkpt lat="46.090688025578856" lon="9.079163186252117">
        <ele>1346.46</ele>
        <time>2025-11-23T09:08:28Z</time>
      </trkpt>
      <trkpt lat="46.090661035850644" lon="9.079303750768304">
        <ele>1347.5</ele>
        <time>2025-11-23T09:08:42Z</time>
      </trkpt>
      <trkpt lat="46.0906632989645" lon="9.079475831240416">
        <ele>1350.26</ele>
        <time>2025-11-23T09:09:02Z</time>
      </trkpt>
      <trkpt lat="46.090667238458991" lon="9.07964900135994">
        <ele>1353.4200000000001</ele>
        <time>2025-11-23T09:09:21Z</time>
      </trkpt>
      <trkpt lat="46.09068769030273" lon="9.079810101538897">
        <ele>1355.8399999999999</ele>
        <time>2025-11-23T09:09:39Z</time>
      </trkpt>
      <trkpt lat="46.090703532099724" lon="9.079945888370276">
        <ele>1356.1300000000001</ele>
        <time>2025-11-23T09:09:51Z</time>
      </trkpt>
      <trkpt lat="46.090713674202561" lon="9.080091062933207">
        <ele>1356.4400000000001</ele>
        <time>2025-11-23T09:10:24Z</time>
      </trkpt>
      <trkpt lat="46.090722559019923" lon="9.080263143405318">
        <ele>1356.3299999999999</ele>
        <time>2025-11-23T09:10:36Z</time>
      </trkpt>
      <trkpt lat="46.090725241228938" lon="9.080404043197632">
        <ele>1357.0599999999999</ele>
        <time>2025-11-23T09:10:50Z</time>
      </trkpt>
      <trkpt lat="46.090790703892708" lon="9.080501943826675">
        <ele>1356.21</ele>
        <time>2025-11-23T09:11:02Z</time>
      </trkpt>
      <trkpt lat="46.090868152678013" lon="9.080597329884768">
        <ele>1355.2</ele>
        <time>2025-11-23T09:11:15Z</time>
      </trkpt>
      <trkpt lat="46.090805372223258" lon="9.080671845003963">
        <ele>1354.8599999999999</ele>
        <time>2025-11-23T09:11:29Z</time>
      </trkpt>
      <trkpt lat="46.090698251500726" lon="9.080719957128167">
        <ele>1354.6900000000001</ele>
        <time>2025-11-23T09:11:41Z</time>
      </trkpt>
      <trkpt lat="46.090581743046641" lon="9.080741666257381">
        <ele>1352.46</ele>
        <time>2025-11-23T09:11:53Z</time>
      </trkpt>
      <trkpt lat="46.090457271784544" lon="9.080713503062725">
        <ele>1351.5999999999999</ele>
        <time>2025-11-23T09:12:06Z</time>
      </trkpt>
      <trkpt lat="46.090314779430628" lon="9.080757927149534">
        <ele>1349.46</ele>
        <time>2025-11-23T09:12:22Z</time>
      </trkpt>
      <trkpt lat="46.090181674808264" lon="9.080724315717816">
        <ele>1350.0599999999999</ele>
        <time>2025-11-23T09:12:36Z</time>
      </trkpt>
      <trkpt lat="46.090153008699417" lon="9.080583499744535">
        <ele>1352.1700000000001</ele>
        <time>2025-11-23T09:12:51Z</time>
      </trkpt>
      <trkpt lat="46.090148231014609" lon="9.080403372645378">
        <ele>1354.6400000000001</ele>
        <time>2025-11-23T09:13:07Z</time>
      </trkpt>
      <trkpt lat="46.090114703401923" lon="9.080270184203982">
        <ele>1355.28</ele>
        <time>2025-11-23T09:13:20Z</time>
      </trkpt>
      <trkpt lat="46.090048905462027" lon="9.080171193927527">
        <ele>1357.04</ele>
        <time>2025-11-23T09:13:33Z</time>
      </trkpt>
      <trkpt lat="46.08996014110744" lon="9.080132888630033">
        <ele>1358.6199999999999</ele>
        <time>2025-11-23T09:13:48Z</time>
      </trkpt>
      <trkpt lat="46.089848997071385" lon="9.080115370452404">
        <ele>1360.02</ele>
        <time>2025-11-23T09:14:02Z</time>
      </trkpt>
      <trkpt lat="46.08975101262331" lon="9.080101205036044">
        <ele>1361.3099999999999</ele>
        <time>2025-11-23T09:14:17Z</time>
      </trkpt>
      <trkpt lat="46.089648501947522" lon="9.080126350745559">
        <ele>1362.21</ele>
        <time>2025-11-23T09:14:30Z</time>
      </trkpt>
      <trkpt lat="46.08953358605504" lon="9.080184353515506">
        <ele>1363.54</ele>
        <time>2025-11-23T09:14:44Z</time>
      </trkpt>
      <trkpt lat="46.08943048864603" lon="9.080229783430696">
        <ele>1365.95</ele>
        <time>2025-11-23T09:15:01Z</time>
      </trkpt>
      <trkpt lat="46.089320098981261" lon="9.080250235274434">
        <ele>1367.8199999999999</ele>
        <time>2025-11-23T09:15:17Z</time>
      </trkpt>
      <trkpt lat="46.08921255916357" lon="9.080310584977269">
        <ele>1369.52</ele>
        <time>2025-11-23T09:15:32Z</time>
      </trkpt>
      <trkpt lat="46.089101247489452" lon="9.080340256914496">
        <ele>1370.8299999999999</ele>
        <time>2025-11-23T09:15:49Z</time>
      </trkpt>
      <trkpt lat="46.089005442336202" lon="9.080461878329516">
        <ele>1373.0599999999999</ele>
        <time>2025-11-23T09:16:08Z</time>
      </trkpt>
      <trkpt lat="46.088963951915503" lon="9.080601939931512">
        <ele>1375.76</ele>
        <time>2025-11-23T09:16:29Z</time>
      </trkpt>
      <trkpt lat="46.088974177837372" lon="9.080744264647365">
        <ele>1378.97</ele>
        <time>2025-11-23T09:16:51Z</time>
      </trkpt>
      <trkpt lat="46.08896822668612" lon="9.080881224945188">
        <ele>1382.5799999999999</ele>
        <time>2025-11-23T09:17:13Z</time>
      </trkpt>
      <trkpt lat="46.088940231129527" lon="9.080995470285416">
        <ele>1384.3599999999999</ele>
        <time>2025-11-23T09:17:34Z</time>
      </trkpt>
      <trkpt lat="46.088870074599981" lon="9.081118600443006">
        <ele>1386.99</ele>
        <time>2025-11-23T09:17:54Z</time>
      </trkpt>
      <trkpt lat="46.088774101808667" lon="9.081210047006607">
        <ele>1388.96</ele>
        <time>2025-11-23T09:18:14Z</time>
      </trkpt>
      <trkpt lat="46.088740406557918" lon="9.081374499946833">
        <ele>1391.5</ele>
        <time>2025-11-23T09:18:34Z</time>
      </trkpt>
      <trkpt lat="46.088715763762593" lon="9.081550939008594">
        <ele>1394.3</ele>
        <time>2025-11-23T09:18:56Z</time>
      </trkpt>
      <trkpt lat="46.088668825104833" lon="9.081674655899406">
        <ele>1396.1500000000001</ele>
        <time>2025-11-23T09:19:12Z</time>
      </trkpt>
      <trkpt lat="46.088686091825366" lon="9.081823853775859">
        <ele>1397.95</ele>
        <time>2025-11-23T09:19:30Z</time>
      </trkpt>
      <trkpt lat="46.08859783038497" lon="9.081898033618927">
        <ele>1399.5899999999999</ele>
        <time>2025-11-23T09:19:48Z</time>
      </trkpt>
      <trkpt lat="46.088532702997327" lon="9.082031976431608">
        <ele>1401.23</ele>
        <time>2025-11-23T09:20:06Z</time>
      </trkpt>
      <trkpt lat="46.088534127920866" lon="9.082182263955474">
        <ele>1403.0699999999999</ele>
        <time>2025-11-23T09:20:25Z</time>
      </trkpt>
      <trkpt lat="46.088467491790652" lon="9.082237333059311">
        <ele>1403.71</ele>
        <time>2025-11-23T09:20:40Z</time>
      </trkpt>
      <trkpt lat="46.0884028673172" lon="9.082274129614234">
        <ele>1403.3599999999999</ele>
        <time>2025-11-23T09:21:40Z</time>
      </trkpt>
      <trkpt lat="46.088383002206683" lon="9.082381753250957">
        <ele>1404.1700000000001</ele>
        <time>2025-11-23T09:22:15Z</time>
      </trkpt>
      <trkpt lat="46.088346792384982" lon="9.082509828731418">
        <ele>1405.5</ele>
        <time>2025-11-23T09:22:26Z</time>
      </trkpt>
      <trkpt lat="46.088328268378973" lon="9.082640083506703">
        <ele>1407.0799999999999</ele>
        <time>2025-11-23T09:22:38Z</time>
      </trkpt>
      <trkpt lat="46.088321646675467" lon="9.082777043804526">
        <ele>1408.77</ele>
        <time>2025-11-23T09:22:51Z</time>
      </trkpt>
      <trkpt lat="46.088312845677137" lon="9.082899671047926">
        <ele>1410.46</ele>
        <time>2025-11-23T09:23:04Z</time>
      </trkpt>
      <trkpt lat="46.088249394670129" lon="9.082994889467955">
        <ele>1411.8299999999999</ele>
        <time>2025-11-23T09:23:18Z</time>
      </trkpt>
      <trkpt lat="46.08822206966579" lon="9.083120534196496">
        <ele>1413.4000000000001</ele>
        <time>2025-11-23T09:23:32Z</time>
      </trkpt>
      <trkpt lat="46.088223243132234" lon="9.083254644647241">
        <ele>1415.24</ele>
        <time>2025-11-23T09:23:47Z</time>
      </trkpt>
      <trkpt lat="46.08823673799634" lon="9.083374757319689">
        <ele>1417.95</ele>
        <time>2025-11-23T09:24:02Z</time>
      </trkpt>
      <trkpt lat="46.088206563144922" lon="9.08349453471601">
        <ele>1419.0899999999999</ele>
        <time>2025-11-23T09:24:15Z</time>
      </trkpt>
      <trkpt lat="46.088180663064122" lon="9.083625627681613">
        <ele>1420.1900000000001</ele>
        <time>2025-11-23T09:24:27Z</time>
      </trkpt>
      <trkpt lat="46.088117463514209" lon="9.083730904385448">
        <ele>1421.5599999999999</ele>
        <time>2025-11-23T09:24:39Z</time>
      </trkpt>
      <trkpt lat="46.088026687502861" lon="9.083724450320005">
        <ele>1422.54</ele>
        <time>2025-11-23T09:24:51Z</time>
      </trkpt>
      <trkpt lat="46.087963320314884" lon="9.083803240209818">
        <ele>1423.72</ele>
        <time>2025-11-23T09:25:07Z</time>
      </trkpt>
      <trkpt lat="46.087973546236753" lon="9.083919748663902">
        <ele>1426.8</ele>
        <time>2025-11-23T09:25:24Z</time>
      </trkpt>
      <trkpt lat="46.0880056489259" lon="9.08402712084353">
        <ele>1429.1700000000001</ele>
        <time>2025-11-23T09:25:39Z</time>
      </trkpt>
      <trkpt lat="46.088011935353279" lon="9.084154944866896">
        <ele>1430.9000000000001</ele>
        <time>2025-11-23T09:25:54Z</time>
      </trkpt>
      <trkpt lat="46.088029537349939" lon="9.084290061146021">
        <ele>1434.3399999999999</ele>
        <time>2025-11-23T09:26:11Z</time>
      </trkpt>
      <trkpt lat="46.088060047477484" lon="9.084411431103945">
        <ele>1435.46</ele>
        <time>2025-11-23T09:26:24Z</time>
      </trkpt>
      <trkpt lat="46.088052503764629" lon="9.084537830203772">
        <ele>1438.3599999999999</ele>
        <time>2025-11-23T09:26:42Z</time>
      </trkpt>
      <trkpt lat="46.087991315871477" lon="9.084613602608442">
        <ele>1439.47</ele>
        <time>2025-11-23T09:26:58Z</time>
      </trkpt>
      <trkpt lat="46.087913699448109" lon="9.084685267880559">
        <ele>1441.7</ele>
        <time>2025-11-23T09:27:15Z</time>
      </trkpt>
      <trkpt lat="46.087852092459798" lon="9.084783000871539">
        <ele>1444.55</ele>
        <time>2025-11-23T09:27:31Z</time>
      </trkpt>
      <trkpt lat="46.087797526270151" lon="9.084887690842152">
        <ele>1446.5999999999999</ele>
        <time>2025-11-23T09:27:47Z</time>
      </trkpt>
      <trkpt lat="46.087761651724577" lon="9.085007049143314">
        <ele>1448.79</ele>
        <time>2025-11-23T09:28:02Z</time>
      </trkpt>
      <trkpt lat="46.087757293134928" lon="9.085144093260169">
        <ele>1450.3299999999999</ele>
        <time>2025-11-23T09:28:17Z</time>
      </trkpt>
      <trkpt lat="46.087749917060137" lon="9.085275353863835">
        <ele>1452.1400000000001</ele>
        <time>2025-11-23T09:28:31Z</time>
      </trkpt>
      <trkpt lat="46.087746229022741" lon="9.0854153316468">
        <ele>1453.5799999999999</ele>
        <time>2025-11-23T09:28:45Z</time>
      </trkpt>
      <trkpt lat="46.087738433852792" lon="9.085552375763655">
        <ele>1455.28</ele>
        <time>2025-11-23T09:28:59Z</time>
      </trkpt>
      <trkpt lat="46.087743127718568" lon="9.085678858682513">
        <ele>1457.21</ele>
        <time>2025-11-23T09:29:18Z</time>
      </trkpt>
      <trkpt lat="46.087765004485846" lon="9.085812382400036">
        <ele>1458.46</ele>
        <time>2025-11-23T09:29:31Z</time>
      </trkpt>
      <trkpt lat="46.087794005870819" lon="9.085941882804036">
        <ele>1458.9000000000001</ele>
        <time>2025-11-23T09:29:42Z</time>
      </trkpt>
      <trkpt lat="46.08784387819469" lon="9.086069790646434">
        <ele>1459.4400000000001</ele>
        <time>2025-11-23T09:29:54Z</time>
      </trkpt>
      <trkpt lat="46.08790498226881" lon="9.086182191967964">
        <ele>1460.6900000000001</ele>
        <time>2025-11-23T09:30:06Z</time>
      </trkpt>
      <trkpt lat="46.087982431054115" lon="9.086294593289495">
        <ele>1462.9000000000001</ele>
        <time>2025-11-23T09:30:19Z</time>
      </trkpt>
      <trkpt lat="46.087929373607039" lon="9.086366510018706">
        <ele>1464.1900000000001</ele>
        <time>2025-11-23T09:30:36Z</time>
      </trkpt>
      <trkpt lat="46.087840609252453" lon="9.086351171135902">
        <ele>1467.3299999999999</ele>
        <time>2025-11-23T09:30:53Z</time>
      </trkpt>
      <trkpt lat="46.087771374732256" lon="9.086346225813031">
        <ele>1468.9300000000001</ele>
        <time>2025-11-23T09:31:13Z</time>
      </trkpt>
      <trkpt lat="46.087651932612062" lon="9.086318984627724">
        <ele>1472.0999999999999</ele>
        <time>2025-11-23T09:31:32Z</time>
      </trkpt>
      <trkpt lat="46.087546655908227" lon="9.086273554712534">
        <ele>1473.98</ele>
        <time>2025-11-23T09:31:49Z</time>
      </trkpt>
      <trkpt lat="46.087438026443124" lon="9.08630708232522">
        <ele>1476.03</ele>
        <time>2025-11-23T09:32:06Z</time>
      </trkpt>
      <trkpt lat="46.087339706718922" lon="9.086415460333228">
        <ele>1478.8800000000001</ele>
        <time>2025-11-23T09:32:27Z</time>
      </trkpt>
      <trkpt lat="46.087325541302562" lon="9.086571782827377">
        <ele>1481.74</ele>
        <time>2025-11-23T09:32:46Z</time>
      </trkpt>
      <trkpt lat="46.087312130257487" lon="9.086706312373281">
        <ele>1483.6700000000001</ele>
        <time>2025-11-23T09:33:10Z</time>
      </trkpt>
      <trkpt lat="46.087283715605736" lon="9.086856096982956">
        <ele>1485.8699999999999</ele>
        <time>2025-11-23T09:33:28Z</time>
      </trkpt>
      <trkpt lat="46.087256306782365" lon="9.086988363415003">
        <ele>1487.8299999999999</ele>
        <time>2025-11-23T09:33:43Z</time>
      </trkpt>
      <trkpt lat="46.087245913222432" lon="9.087143344804645">
        <ele>1489.6199999999999</ele>
        <time>2025-11-23T09:33:57Z</time>
      </trkpt>
      <trkpt lat="46.087275668978691" lon="9.087279215455055">
        <ele>1489.8800000000001</ele>
        <time>2025-11-23T09:34:08Z</time>
      </trkpt>
      <trkpt lat="46.087269969284534" lon="9.087422797456384">
        <ele>1489.1900000000001</ele>
        <time>2025-11-23T09:34:17Z</time>
      </trkpt>
      <trkpt lat="46.087215738371015" lon="9.0875393897295">
        <ele>1488.8399999999999</ele>
        <time>2025-11-23T09:34:26Z</time>
      </trkpt>
      <trkpt lat="46.087133595719934" lon="9.087578030303121">
        <ele>1487.9400000000001</ele>
        <time>2025-11-23T09:34:35Z</time>
      </trkpt>
      <trkpt lat="46.087088333442807" lon="9.087460683658719">
        <ele>1489.8099999999999</ele>
        <time>2025-11-23T09:34:50Z</time>
      </trkpt>
      <trkpt lat="46.086991522461176" lon="9.08742799423635">
        <ele>1492.6500000000001</ele>
        <time>2025-11-23T09:35:06Z</time>
      </trkpt>
      <trkpt lat="46.086903680115938" lon="9.087412152439356">
        <ele>1492.8900000000001</ele>
        <time>2025-11-23T09:35:17Z</time>
      </trkpt>
      <trkpt lat="46.086810054257512" lon="9.087372003123164">
        <ele>1493.99</ele>
        <time>2025-11-23T09:35:28Z</time>
      </trkpt>
      <trkpt lat="46.086721122264862" lon="9.08736982382834">
        <ele>1495.52</ele>
        <time>2025-11-23T09:35:39Z</time>
      </trkpt>
      <trkpt lat="46.086624311283231" lon="9.087365549057722">
        <ele>1497.4000000000001</ele>
        <time>2025-11-23T09:35:52Z</time>
      </trkpt>
      <trkpt lat="46.086523309350014" lon="9.087380971759558">
        <ele>1499.5599999999999</ele>
        <time>2025-11-23T09:36:06Z</time>
      </trkpt>
      <trkpt lat="46.086437813937664" lon="9.087443500757217">
        <ele>1501.27</ele>
        <time>2025-11-23T09:36:20Z</time>
      </trkpt>
      <trkpt lat="46.086388360708952" lon="9.08755749464035">
        <ele>1503.5799999999999</ele>
        <time>2025-11-23T09:36:35Z</time>
      </trkpt>
      <trkpt lat="46.086439909413457" lon="9.087627315893769">
        <ele>1505.5899999999999</ele>
        <time>2025-11-23T09:36:51Z</time>
      </trkpt>
      <trkpt lat="46.086543006822467" lon="9.087624298408628">
        <ele>1507.9400000000001</ele>
        <time>2025-11-23T09:37:07Z</time>
      </trkpt>
      <trkpt lat="46.086625820025802" lon="9.087710045278072">
        <ele>1510.24</ele>
        <time>2025-11-23T09:37:22Z</time>
      </trkpt>
      <trkpt lat="46.086684577167034" lon="9.087820267304778">
        <ele>1512.78</ele>
        <time>2025-11-23T09:37:37Z</time>
      </trkpt>
      <trkpt lat="46.086729252710938" lon="9.087938703596592">
        <ele>1515.25</ele>
        <time>2025-11-23T09:37:53Z</time>
      </trkpt>
      <trkpt lat="46.086760265752673" lon="9.088066779077053">
        <ele>1517.53</ele>
        <time>2025-11-23T09:38:09Z</time>
      </trkpt>
      <trkpt lat="46.086693713441491" lon="9.088150598108769">
        <ele>1519.79</ele>
        <time>2025-11-23T09:38:25Z</time>
      </trkpt>
      <trkpt lat="46.086603021249175" lon="9.088188735768199">
        <ele>1521.5599999999999</ele>
        <time>2025-11-23T09:38:40Z</time>
      </trkpt>
      <trkpt lat="46.086538061499596" lon="9.088290324434638">
        <ele>1523.8199999999999</ele>
        <time>2025-11-23T09:38:55Z</time>
      </trkpt>
      <trkpt lat="46.086509227752686" lon="9.08841454423964">
        <ele>1525.3900000000001</ele>
        <time>2025-11-23T09:39:09Z</time>
      </trkpt>
      <trkpt lat="46.086482238024473" lon="9.088545637205243">
        <ele>1528.1800000000001</ele>
        <time>2025-11-23T09:39:24Z</time>
      </trkpt>
      <trkpt lat="46.086435969918966" lon="9.088665582239628">
        <ele>1530.05</ele>
        <time>2025-11-23T09:39:39Z</time>
      </trkpt>
      <trkpt lat="46.086386181414127" lon="9.088787622749806">
        <ele>1532.1400000000001</ele>
        <time>2025-11-23T09:39:54Z</time>
      </trkpt>
      <trkpt lat="46.086325077340007" lon="9.088889714330435">
        <ele>1533.4000000000001</ele>
        <time>2025-11-23T09:40:07Z</time>
      </trkpt>
      <trkpt lat="46.086254501715302" lon="9.088976550847292">
        <ele>1534.3299999999999</ele>
        <time>2025-11-23T09:40:19Z</time>
      </trkpt>
      <trkpt lat="46.08620940707624" lon="9.089089203625917">
        <ele>1536.8900000000001</ele>
        <time>2025-11-23T09:40:35Z</time>
      </trkpt>
      <trkpt lat="46.08614344149828" lon="9.089184757322073">
        <ele>1538.9300000000001</ele>
        <time>2025-11-23T09:40:50Z</time>
      </trkpt>
      <trkpt lat="46.08609801158309" lon="9.089294895529747">
        <ele>1541.23</ele>
        <time>2025-11-23T09:41:04Z</time>
      </trkpt>
      <trkpt lat="46.086074206978083" lon="9.089416768401861">
        <ele>1541.0899999999999</ele>
        <time>2025-11-23T09:41:14Z</time>
      </trkpt>
      <trkpt lat="46.086129359900951" lon="9.089475693181157">
        <ele>1542.3499999999999</ele>
        <time>2025-11-23T09:43:08Z</time>
      </trkpt>
      <trkpt lat="46.086217621341348" lon="9.089505113661289">
        <ele>1543.9200000000001</ele>
        <time>2025-11-23T09:43:19Z</time>
      </trkpt>
      <trkpt lat="46.086314516142011" lon="9.089496396481991">
        <ele>1544.9100000000001</ele>
        <time>2025-11-23T09:43:30Z</time>
      </trkpt>
      <trkpt lat="46.086404705420136" lon="9.089538808912039">
        <ele>1546.0599999999999</ele>
        <time>2025-11-23T09:43:42Z</time>
      </trkpt>
      <trkpt lat="46.086480896919966" lon="9.089608797803521">
        <ele>1547.5999999999999</ele>
        <time>2025-11-23T09:43:54Z</time>
      </trkpt>
      <trkpt lat="46.086575360968709" lon="9.089635871350765">
        <ele>1549.1099999999999</ele>
        <time>2025-11-23T09:44:06Z</time>
      </trkpt>
      <trkpt lat="46.086637554690242" lon="9.08967518247664">
        <ele>1549.8399999999999</ele>
        <time>2025-11-23T09:45:30Z</time>
      </trkpt>
      <trkpt lat="46.086707627400756" lon="9.089736957103014">
        <ele>1550.03</ele>
        <time>2025-11-23T09:45:39Z</time>
      </trkpt>
      <trkpt lat="46.086761942133307" lon="9.08983888104558">
        <ele>1549.4100000000001</ele>
        <time>2025-11-23T09:45:48Z</time>
      </trkpt>
      <trkpt lat="46.086850203573704" lon="9.089891603216529">
        <ele>1549.6600000000001</ele>
        <time>2025-11-23T09:45:58Z</time>
      </trkpt>
      <trkpt lat="46.086934860795736" lon="9.089932674542069">
        <ele>1550.8</ele>
        <time>2025-11-23T09:46:09Z</time>
      </trkpt>
      <trkpt lat="46.086890436708927" lon="9.089987743645906">
        <ele>1549.8499999999999</ele>
        <time>2025-11-23T09:47:19Z</time>
      </trkpt>
      <trkpt lat="46.086847186088562" lon="9.090113304555416">
        <ele>1549.3699999999999</ele>
        <time>2025-11-23T09:47:27Z</time>
      </trkpt>
      <trkpt lat="46.086798654869199" lon="9.090220928192139">
        <ele>1548.0599999999999</ele>
        <time>2025-11-23T09:48:05Z</time>
      </trkpt>
      <trkpt lat="46.086853137239814" lon="9.090098384767771">
        <ele>1549.5699999999999</ele>
        <time>2025-11-23T09:48:19Z</time>
      </trkpt>
      <trkpt lat="46.086904350668192" lon="9.089977936819196">
        <ele>1549.9200000000001</ele>
        <time>2025-11-23T09:48:29Z</time>
      </trkpt>
      <trkpt lat="46.086991187185049" lon="9.089975338429213">
        <ele>1550.3299999999999</ele>
        <time>2025-11-23T09:50:05Z</time>
      </trkpt>
      <trkpt lat="46.087086740881205" lon="9.089992102235556">
        <ele>1550.8699999999999</ele>
        <time>2025-11-23T09:50:14Z</time>
      </trkpt>
      <trkpt lat="46.087183384224772" lon="9.089986905455589">
        <ele>1551.53</ele>
        <time>2025-11-23T09:50:23Z</time>
      </trkpt>
      <trkpt lat="46.087278351187706" lon="9.089973662048578">
        <ele>1552.8699999999999</ele>
        <time>2025-11-23T09:50:33Z</time>
      </trkpt>
      <trkpt lat="46.087357811629772" lon="9.089918928220868">
        <ele>1553.9000000000001</ele>
        <time>2025-11-23T09:50:43Z</time>
      </trkpt>
      <trkpt lat="46.087446492165327" lon="9.089912222698331">
        <ele>1555.5</ele>
        <time>2025-11-23T09:50:53Z</time>
      </trkpt>
      <trkpt lat="46.087524611502886" lon="9.089974835515022">
        <ele>1556.46</ele>
        <time>2025-11-23T09:51:03Z</time>
      </trkpt>
      <trkpt lat="46.087565934285522" lon="9.090103749185801">
        <ele>1557.74</ele>
        <time>2025-11-23T09:51:14Z</time>
      </trkpt>
      <trkpt lat="46.087631732225418" lon="9.090212043374777">
        <ele>1559.01</ele>
        <time>2025-11-23T09:51:25Z</time>
      </trkpt>
      <trkpt lat="46.087716473266482" lon="9.090255964547396">
        <ele>1560.5599999999999</ele>
        <time>2025-11-23T09:51:36Z</time>
      </trkpt>
      <trkpt lat="46.087809093296528" lon="9.090262334793806">
        <ele>1561.49</ele>
        <time>2025-11-23T09:51:47Z</time>
      </trkpt>
      <trkpt lat="46.087898863479495" lon="9.090251019224525">
        <ele>1563.3800000000001</ele>
        <time>2025-11-23T09:51:59Z</time>
      </trkpt>
      <trkpt lat="46.087991734966636" lon="9.090249510481954">
        <ele>1563.8</ele>
        <time>2025-11-23T09:52:09Z</time>
      </trkpt>
      <trkpt lat="46.088081505149603" lon="9.090259652584791">
        <ele>1564.46</ele>
        <time>2025-11-23T09:52:19Z</time>
      </trkpt>
      <trkpt lat="46.088171945884824" lon="9.090282702818513">
        <ele>1564.96</ele>
        <time>2025-11-23T09:52:29Z</time>
      </trkpt>
      <trkpt lat="46.08826364390552" lon="9.090310027822852">
        <ele>1566.0699999999999</ele>
        <time>2025-11-23T09:52:40Z</time>
      </trkpt>
      <trkpt lat="46.088361460715532" lon="9.090323774144054">
        <ele>1567.04</ele>
        <time>2025-11-23T09:52:52Z</time>
      </trkpt>
      <trkpt lat="46.08845223672688" lon="9.090308351442218">
        <ele>1568.5799999999999</ele>
        <time>2025-11-23T09:53:03Z</time>
      </trkpt>
      <trkpt lat="46.088547706604004" lon="9.090303992852569">
        <ele>1570.1900000000001</ele>
        <time>2025-11-23T09:53:16Z</time>
      </trkpt>
      <trkpt lat="46.088641751557589" lon="9.090293683111668">
        <ele>1571.71</ele>
        <time>2025-11-23T09:53:28Z</time>
      </trkpt>
      <trkpt lat="46.088731605559587" lon="9.090273985639215">
        <ele>1573.1900000000001</ele>
        <time>2025-11-23T09:53:40Z</time>
      </trkpt>
      <trkpt lat="46.088828416541219" lon="9.090254120528698">
        <ele>1574.5999999999999</ele>
        <time>2025-11-23T09:53:53Z</time>
      </trkpt>
      <trkpt lat="46.088919946923852" lon="9.090249091386795">
        <ele>1575.77</ele>
        <time>2025-11-23T09:54:04Z</time>
      </trkpt>
      <trkpt lat="46.089018182829022" lon="9.090253617614508">
        <ele>1577.0799999999999</ele>
        <time>2025-11-23T09:54:17Z</time>
      </trkpt>
      <trkpt lat="46.089116083458066" lon="9.090243559330702">
        <ele>1578.04</ele>
        <time>2025-11-23T09:54:28Z</time>
      </trkpt>
      <trkpt lat="46.089209457859397" lon="9.090215396136046">
        <ele>1577.8699999999999</ele>
        <time>2025-11-23T09:54:38Z</time>
      </trkpt>
      <trkpt lat="46.089300904422998" lon="9.090216066688299">
        <ele>1577.77</ele>
        <time>2025-11-23T09:54:48Z</time>
      </trkpt>
      <trkpt lat="46.089397463947535" lon="9.090240877121687">
        <ele>1578.29</ele>
        <time>2025-11-23T09:54:58Z</time>
      </trkpt>
      <trkpt lat="46.08949544839561" lon="9.09026057459414">
        <ele>1579.04</ele>
        <time>2025-11-23T09:55:08Z</time>
      </trkpt>
      <trkpt lat="46.089587984606624" lon="9.090263172984123">
        <ele>1580.1400000000001</ele>
        <time>2025-11-23T09:55:18Z</time>
      </trkpt>
      <trkpt lat="46.089672474190593" lon="9.090229142457247">
        <ele>1581.3399999999999</ele>
        <time>2025-11-23T09:55:28Z</time>
      </trkpt>
      <trkpt lat="46.089749755337834" lon="9.09014624543488">
        <ele>1581.9200000000001</ele>
        <time>2025-11-23T09:55:39Z</time>
      </trkpt>
      <trkpt lat="46.089809266850352" lon="9.090053206309676">
        <ele>1582.9100000000001</ele>
        <time>2025-11-23T09:55:49Z</time>
      </trkpt>
      <trkpt lat="46.089870203286409" lon="9.089954383671284">
        <ele>1584.5599999999999</ele>
        <time>2025-11-23T09:56:02Z</time>
      </trkpt>
      <trkpt lat="46.089929044246674" lon="9.089855225756764">
        <ele>1586.49</ele>
        <time>2025-11-23T09:56:17Z</time>
      </trkpt>
      <trkpt lat="46.089993920177221" lon="9.089759672060609">
        <ele>1587.98</ele>
        <time>2025-11-23T09:56:29Z</time>
      </trkpt>
      <trkpt lat="46.090057790279388" lon="9.089668141677976">
        <ele>1588.3199999999999</ele>
        <time>2025-11-23T09:56:40Z</time>
      </trkpt>
      <trkpt lat="46.09012140892446" lon="9.089575270190835">
        <ele>1588.79</ele>
        <time>2025-11-23T09:56:54Z</time>
      </trkpt>
      <trkpt lat="46.090187458321452" lon="9.089484661817551">
        <ele>1590.5899999999999</ele>
        <time>2025-11-23T09:57:06Z</time>
      </trkpt>
      <trkpt lat="46.090263482183218" lon="9.089393382892013">
        <ele>1592.79</ele>
        <time>2025-11-23T09:57:19Z</time>
      </trkpt>
      <trkpt lat="46.090330285951495" lon="9.089301684871316">
        <ele>1593.5</ele>
        <time>2025-11-23T09:57:30Z</time>
      </trkpt>
      <trkpt lat="46.090403376147151" lon="9.089222811162472">
        <ele>1593.99</ele>
        <time>2025-11-23T09:57:39Z</time>
      </trkpt>
      <trkpt lat="46.090483339503407" lon="9.0891557559371">
        <ele>1594.4300000000001</ele>
        <time>2025-11-23T09:57:48Z</time>
      </trkpt>
      <trkpt lat="46.090575037524104" lon="9.089110996574163">
        <ele>1594.4200000000001</ele>
        <time>2025-11-23T09:57:57Z</time>
      </trkpt>
      <trkpt lat="46.090665310621262" lon="9.089077468961477">
        <ele>1594.53</ele>
        <time>2025-11-23T09:58:06Z</time>
      </trkpt>
      <trkpt lat="46.090759187936783" lon="9.089044276624918">
        <ele>1594.51</ele>
        <time>2025-11-23T09:58:15Z</time>
      </trkpt>
      <trkpt lat="46.090855579823256" lon="9.089018292725086">
        <ele>1594.6900000000001</ele>
        <time>2025-11-23T09:58:24Z</time>
      </trkpt>
      <trkpt lat="46.090943841263652" lon="9.088958613574505">
        <ele>1594.8599999999999</ele>
        <time>2025-11-23T09:58:33Z</time>
      </trkpt>
      <trkpt lat="46.09102925285697" lon="9.088911255821586">
        <ele>1594.78</ele>
        <time>2025-11-23T09:58:41Z</time>
      </trkpt>
      <trkpt lat="46.091110724955797" lon="9.088854258880019">
        <ele>1595.4000000000001</ele>
        <time>2025-11-23T09:58:49Z</time>
      </trkpt>
      <trkpt lat="46.091197896748781" lon="9.088786449283361">
        <ele>1596.24</ele>
        <time>2025-11-23T09:58:58Z</time>
      </trkpt>
      <trkpt lat="46.091277441009879" lon="9.088705815374851">
        <ele>1597.1500000000001</ele>
        <time>2025-11-23T09:59:07Z</time>
      </trkpt>
      <trkpt lat="46.091356985270977" lon="9.088621493428946">
        <ele>1596.98</ele>
        <time>2025-11-23T09:59:16Z</time>
      </trkpt>
      <trkpt lat="46.091424962505698" lon="9.0885254368186">
        <ele>1597.04</ele>
        <time>2025-11-23T09:59:25Z</time>
      </trkpt>
      <trkpt lat="46.091473326086998" lon="9.088414460420609">
        <ele>1597.3699999999999</ele>
        <time>2025-11-23T09:59:34Z</time>
      </trkpt>
      <trkpt lat="46.091481959447265" lon="9.088279260322452">
        <ele>1597.74</ele>
        <time>2025-11-23T09:59:44Z</time>
      </trkpt>
      <trkpt lat="46.091520851477981" lon="9.088154956698418">
        <ele>1599.26</ele>
        <time>2025-11-23T09:59:55Z</time>
      </trkpt>
      <trkpt lat="46.091566868126392" lon="9.088037358596921">
        <ele>1600.6900000000001</ele>
        <time>2025-11-23T10:00:07Z</time>
      </trkpt>
      <trkpt lat="46.091628894209862" lon="9.087929148226976">
        <ele>1601.6600000000001</ele>
        <time>2025-11-23T10:00:18Z</time>
      </trkpt>
      <trkpt lat="46.091701900586486" lon="9.087845161557198">
        <ele>1602.46</ele>
        <time>2025-11-23T10:00:28Z</time>
      </trkpt>
      <trkpt lat="46.09178077429533" lon="9.087765701115131">
        <ele>1603.2</ele>
        <time>2025-11-23T10:00:39Z</time>
      </trkpt>
      <trkpt lat="46.091873561963439" lon="9.087726306170225">
        <ele>1605.77</ele>
        <time>2025-11-23T10:00:52Z</time>
      </trkpt>
      <trkpt lat="46.091961320489645" lon="9.08768841996789">
        <ele>1607.96</ele>
        <time>2025-11-23T10:01:07Z</time>
      </trkpt>
      <trkpt lat="46.092017479240894" lon="9.087596470490098">
        <ele>1610.76</ele>
        <time>2025-11-23T10:01:24Z</time>
      </trkpt>
      <trkpt lat="46.092097777873278" lon="9.087550872936845">
        <ele>1613.9400000000001</ele>
        <time>2025-11-23T10:01:42Z</time>
      </trkpt>
      <trkpt lat="46.09217656776309" lon="9.087491361424327">
        <ele>1617.0999999999999</ele>
        <time>2025-11-23T10:02:01Z</time>
      </trkpt>
      <trkpt lat="46.092251753434539" lon="9.08741869032383">
        <ele>1621.1700000000001</ele>
        <time>2025-11-23T10:02:24Z</time>
      </trkpt>
      <trkpt lat="46.092347055673599" lon="9.087434867396951">
        <ele>1623.3800000000001</ele>
        <time>2025-11-23T10:02:43Z</time>
      </trkpt>
      <trkpt lat="46.092435736209154" lon="9.087447104975581">
        <ele>1625.0799999999999</ele>
        <time>2025-11-23T10:03:01Z</time>
      </trkpt>
      <trkpt lat="46.092527853325009" lon="9.08743972890079">
        <ele>1626.99</ele>
        <time>2025-11-23T10:03:18Z</time>
      </trkpt>
      <trkpt lat="46.092624915763736" lon="9.087416678667069">
        <ele>1629.27</ele>
        <time>2025-11-23T10:03:36Z</time>
      </trkpt>
      <trkpt lat="46.092712003737688" lon="9.087365716695786">
        <ele>1632.1900000000001</ele>
        <time>2025-11-23T10:03:55Z</time>
      </trkpt>
      <trkpt lat="46.09280395321548" lon="9.087328920140863">
        <ele>1635.05</ele>
        <time>2025-11-23T10:04:14Z</time>
      </trkpt>
      <trkpt lat="46.092896489426494" lon="9.087344007566571">
        <ele>1637.78</ele>
        <time>2025-11-23T10:04:33Z</time>
      </trkpt>
      <trkpt lat="46.092998161911964" lon="9.087337385863066">
        <ele>1639.4200000000001</ele>
        <time>2025-11-23T10:05:00Z</time>
      </trkpt>
      <trkpt lat="46.093084244057536" lon="9.087289189919829">
        <ele>1641.6600000000001</ele>
        <time>2025-11-23T10:05:16Z</time>
      </trkpt>
      <trkpt lat="46.093151802197099" lon="9.08720713108778">
        <ele>1644.78</ele>
        <time>2025-11-23T10:05:34Z</time>
      </trkpt>
      <trkpt lat="46.093232436105609" lon="9.087146949023008">
        <ele>1647.8299999999999</ele>
        <time>2025-11-23T10:05:51Z</time>
      </trkpt>
      <trkpt lat="46.093323715031147" lon="9.087104955688119">
        <ele>1650.3399999999999</ele>
        <time>2025-11-23T10:06:09Z</time>
      </trkpt>
      <trkpt lat="46.093411473557353" lon="9.087080983445048">
        <ele>1653.3900000000001</ele>
        <time>2025-11-23T10:06:30Z</time>
      </trkpt>
      <trkpt lat="46.093485653400421" lon="9.087002361193299">
        <ele>1655.24</ele>
        <time>2025-11-23T10:07:08Z</time>
      </trkpt>
      <trkpt lat="46.093561509624124" lon="9.086916279047728">
        <ele>1656.6900000000001</ele>
        <time>2025-11-23T10:07:19Z</time>
      </trkpt>
      <trkpt lat="46.093644741922617" lon="9.086870849132538">
        <ele>1658.6199999999999</ele>
        <time>2025-11-23T10:07:33Z</time>
      </trkpt>
      <trkpt lat="46.093725962564349" lon="9.086816031485796">
        <ele>1661.95</ele>
        <time>2025-11-23T10:07:50Z</time>
      </trkpt>
      <trkpt lat="46.093796202912927" lon="9.086747970432043">
        <ele>1664.0599999999999</ele>
        <time>2025-11-23T10:08:11Z</time>
      </trkpt>
      <trkpt lat="46.093877591192722" lon="9.086696757003665">
        <ele>1664.5899999999999</ele>
        <time>2025-11-23T10:08:20Z</time>
      </trkpt>
      <trkpt lat="46.093952357769012" lon="9.086614446714521">
        <ele>1665.55</ele>
        <time>2025-11-23T10:08:31Z</time>
      </trkpt>
      <trkpt lat="46.094028130173683" lon="9.086528951302171">
        <ele>1666.3299999999999</ele>
        <time>2025-11-23T10:08:43Z</time>
      </trkpt>
      <trkpt lat="46.094115301966667" lon="9.086479749530554">
        <ele>1666.8900000000001</ele>
        <time>2025-11-23T10:08:54Z</time>
      </trkpt>
      <trkpt lat="46.09420876018703" lon="9.08645854331553">
        <ele>1666.04</ele>
        <time>2025-11-23T10:09:04Z</time>
      </trkpt>
      <trkpt lat="46.094300542026758" lon="9.086430296301842">
        <ele>1665.1900000000001</ele>
        <time>2025-11-23T10:09:13Z</time>
      </trkpt>
      <trkpt lat="46.094387294724584" lon="9.086390985175967">
        <ele>1665.6099999999999</ele>
        <time>2025-11-23T10:09:22Z</time>
      </trkpt>
      <trkpt lat="46.094463989138603" lon="9.086319738999009">
        <ele>1666.8800000000001</ele>
        <time>2025-11-23T10:09:33Z</time>
      </trkpt>
      <trkpt lat="46.094539510086179" lon="9.086252180859447">
        <ele>1668.5999999999999</ele>
        <time>2025-11-23T10:09:45Z</time>
      </trkpt>
      <trkpt lat="46.094622071832418" lon="9.086190070956945">
        <ele>1671.8800000000001</ele>
        <time>2025-11-23T10:10:01Z</time>
      </trkpt>
      <trkpt lat="46.094708573073149" lon="9.086133493110538">
        <ele>1675.03</ele>
        <time>2025-11-23T10:10:17Z</time>
      </trkpt>
      <trkpt lat="46.094789206981659" lon="9.086081776767969">
        <ele>1678.29</ele>
        <time>2025-11-23T10:10:36Z</time>
      </trkpt>
      <trkpt lat="46.0948820784688" lon="9.086070125922561">
        <ele>1680.79</ele>
        <time>2025-11-23T10:10:54Z</time>
      </trkpt>
      <trkpt lat="46.094971764832735" lon="9.086046991869807">
        <ele>1682.7</ele>
        <time>2025-11-23T10:11:13Z</time>
      </trkpt>
      <trkpt lat="46.095067402347922" lon="9.086010530591011">
        <ele>1682.3499999999999</ele>
        <time>2025-11-23T10:11:25Z</time>
      </trkpt>
      <trkpt lat="46.095157088711858" lon="9.085977338254452">
        <ele>1683.5599999999999</ele>
        <time>2025-11-23T10:11:36Z</time>
      </trkpt>
      <trkpt lat="46.095229089260101" lon="9.085896452888846">
        <ele>1684.8299999999999</ele>
        <time>2025-11-23T10:11:47Z</time>
      </trkpt>
      <trkpt lat="46.095312237739563" lon="9.085841551423073">
        <ele>1686.47</ele>
        <time>2025-11-23T10:11:59Z</time>
      </trkpt>
      <trkpt lat="46.095401169732213" lon="9.085832498967648">
        <ele>1687.52</ele>
        <time>2025-11-23T10:12:10Z</time>
      </trkpt>
      <trkpt lat="46.095491023734212" lon="9.085787907242775">
        <ele>1689.3299999999999</ele>
        <time>2025-11-23T10:12:23Z</time>
      </trkpt>
      <trkpt lat="46.095578530803323" lon="9.085739208385348">
        <ele>1691.5</ele>
        <time>2025-11-23T10:12:37Z</time>
      </trkpt>
      <trkpt lat="46.095664696767926" lon="9.08568212762475">
        <ele>1693.8900000000001</ele>
        <time>2025-11-23T10:12:53Z</time>
      </trkpt>
      <trkpt lat="46.095742480829358" lon="9.08560786396265">
        <ele>1696.5799999999999</ele>
        <time>2025-11-23T10:13:10Z</time>
      </trkpt>
      <trkpt lat="46.095836609601974" lon="9.085594369098544">
        <ele>1698.95</ele>
        <time>2025-11-23T10:13:30Z</time>
      </trkpt>
      <trkpt lat="46.095922440290451" lon="9.08554675988853">
        <ele>1700.6199999999999</ele>
        <time>2025-11-23T10:13:44Z</time>
      </trkpt>
      <trkpt lat="46.095965104177594" lon="9.085441315546632">
        <ele>1702.01</ele>
        <time>2025-11-23T10:13:57Z</time>
      </trkpt>
      <trkpt lat="46.096010450273752" lon="9.08532832749188">
        <ele>1703.1600000000001</ele>
        <time>2025-11-23T10:14:10Z</time>
      </trkpt>
      <trkpt lat="46.096093682572246" lon="9.085264708846808">
        <ele>1705.1700000000001</ele>
        <time>2025-11-23T10:14:25Z</time>
      </trkpt>
      <trkpt lat="46.09617255628109" lon="9.085198407992721">
        <ele>1707.8399999999999</ele>
        <time>2025-11-23T10:14:40Z</time>
      </trkpt>
      <trkpt lat="46.09625855460763" lon="9.085147194564343">
        <ele>1710.5799999999999</ele>
        <time>2025-11-23T10:14:56Z</time>
      </trkpt>
      <trkpt lat="46.096350336447358" lon="9.085108134895563">
        <ele>1713.5999999999999</ele>
        <time>2025-11-23T10:15:13Z</time>
      </trkpt>
      <trkpt lat="46.096435664221644" lon="9.085063626989722">
        <ele>1717.04</ele>
        <time>2025-11-23T10:15:32Z</time>
      </trkpt>
      <trkpt lat="46.096518058329821" lon="9.085014844313264">
        <ele>1720.52</ele>
        <time>2025-11-23T10:15:52Z</time>
      </trkpt>
      <trkpt lat="46.096597434952855" lon="9.084961535409093">
        <ele>1724.3599999999999</ele>
        <time>2025-11-23T10:16:17Z</time>
      </trkpt>
      <trkpt lat="46.09666658565402" lon="9.084876794368029">
        <ele>1728.8</ele>
        <time>2025-11-23T10:16:40Z</time>
      </trkpt>
      <trkpt lat="46.096747051924467" lon="9.084819629788399">
        <ele>1732.28</ele>
        <time>2025-11-23T10:17:02Z</time>
      </trkpt>
      <trkpt lat="46.096839588135481" lon="9.084780821576715">
        <ele>1734.45</ele>
        <time>2025-11-23T10:17:20Z</time>
      </trkpt>
      <trkpt lat="46.096920305863023" lon="9.084711419418454">
        <ele>1737.5899999999999</ele>
        <time>2025-11-23T10:17:40Z</time>
      </trkpt>
      <trkpt lat="46.097008986398578" lon="9.084663894027472">
        <ele>1740.3499999999999</ele>
        <time>2025-11-23T10:17:59Z</time>
      </trkpt>
      <trkpt lat="46.097088782116771" lon="9.084592396393418">
        <ele>1742.8299999999999</ele>
        <time>2025-11-23T10:18:16Z</time>
      </trkpt>
      <trkpt lat="46.097167823463678" lon="9.084526598453522">
        <ele>1744.4100000000001</ele>
        <time>2025-11-23T10:18:31Z</time>
      </trkpt>
      <trkpt lat="46.097258348017931" lon="9.084476558491588">
        <ele>1746.0999999999999</ele>
        <time>2025-11-23T10:18:47Z</time>
      </trkpt>
      <trkpt lat="46.097307801246643" lon="9.084370359778404">
        <ele>1747.3299999999999</ele>
        <time>2025-11-23T10:18:59Z</time>
      </trkpt>
      <trkpt lat="46.097299251705408" lon="9.084258880466223">
        <ele>1748.3</ele>
        <time>2025-11-23T10:19:15Z</time>
      </trkpt>
      <trkpt lat="46.097335712984204" lon="9.084327109158039">
        <ele>1748.5899999999999</ele>
        <time>2025-11-23T10:19:32Z</time>
      </trkpt>
      <trkpt lat="46.097427578642964" lon="9.084378825500608">
        <ele>1749.22</ele>
        <time>2025-11-23T10:19:45Z</time>
      </trkpt>
      <trkpt lat="46.097526401281357" lon="9.08434865064919">
        <ele>1750.1600000000001</ele>
        <time>2025-11-23T10:19:58Z</time>
      </trkpt>
      <trkpt lat="46.097616255283356" lon="9.084318475797772">
        <ele>1751.72</ele>
        <time>2025-11-23T10:20:11Z</time>
      </trkpt>
      <trkpt lat="46.097709210589528" lon="9.084303053095937">
        <ele>1752.72</ele>
        <time>2025-11-23T10:20:25Z</time>
      </trkpt>
      <trkpt lat="46.09779579564929" lon="9.084271620959044">
        <ele>1753.5599999999999</ele>
        <time>2025-11-23T10:20:37Z</time>
      </trkpt>
      <trkpt lat="46.097881458699703" lon="9.08423331566155">
        <ele>1754.8699999999999</ele>
        <time>2025-11-23T10:20:49Z</time>
      </trkpt>
      <trkpt lat="46.097925882786512" lon="9.084129547700286">
        <ele>1755.4100000000001</ele>
        <time>2025-11-23T10:21:01Z</time>
      </trkpt>
      <trkpt lat="46.098007606342435" lon="9.084050925448537">
        <ele>1757.1099999999999</ele>
        <time>2025-11-23T10:21:19Z</time>
      </trkpt>
      <trkpt lat="46.098088910803199" lon="9.083986133337021">
        <ele>1759.48</ele>
        <time>2025-11-23T10:21:31Z</time>
      </trkpt>
      <trkpt lat="46.098168790340424" lon="9.083933494985104">
        <ele>1761.0799999999999</ele>
        <time>2025-11-23T10:21:58Z</time>
      </trkpt>
      <trkpt lat="46.098246742039919" lon="9.083851017057896">
        <ele>1764.1300000000001</ele>
        <time>2025-11-23T10:22:11Z</time>
      </trkpt>
      <trkpt lat="46.098310947418213" lon="9.083751859143376">
        <ele>1766.9400000000001</ele>
        <time>2025-11-23T10:22:26Z</time>
      </trkpt>
      <trkpt lat="46.098401136696339" lon="9.083707267418504">
        <ele>1769.6900000000001</ele>
        <time>2025-11-23T10:22:48Z</time>
      </trkpt>
      <trkpt lat="46.098479926586151" lon="9.083637613803148">
        <ele>1772.5</ele>
        <time>2025-11-23T10:23:05Z</time>
      </trkpt>
      <trkpt lat="46.098562991246581" lon="9.08358296379447">
        <ele>1775.1099999999999</ele>
        <time>2025-11-23T10:23:23Z</time>
      </trkpt>
      <trkpt lat="46.09864505007863" lon="9.083528565242887">
        <ele>1778.3499999999999</ele>
        <time>2025-11-23T10:23:41Z</time>
      </trkpt>
      <trkpt lat="46.098721073940396" lon="9.083460252732039">
        <ele>1780.8800000000001</ele>
        <time>2025-11-23T10:23:59Z</time>
      </trkpt>
      <trkpt lat="46.098800366744399" lon="9.083392024040222">
        <ele>1784.0599999999999</ele>
        <time>2025-11-23T10:24:16Z</time>
      </trkpt>
      <trkpt lat="46.098883096128702" lon="9.083332763984799">
        <ele>1786.5899999999999</ele>
        <time>2025-11-23T10:24:34Z</time>
      </trkpt>
      <trkpt lat="46.098970351740718" lon="9.083298314362764">
        <ele>1789.9100000000001</ele>
        <time>2025-11-23T10:24:52Z</time>
      </trkpt>
      <trkpt lat="46.099054841324687" lon="9.083258416503668">
        <ele>1793.5699999999999</ele>
        <time>2025-11-23T10:25:19Z</time>
      </trkpt>
      <trkpt lat="46.099136732518673" lon="9.08318666741252">
        <ele>1796.47</ele>
        <time>2025-11-23T10:25:40Z</time>
      </trkpt>
      <trkpt lat="46.099224239587784" lon="9.08313344232738">
        <ele>1800.3900000000001</ele>
        <time>2025-11-23T10:26:01Z</time>
      </trkpt>
      <trkpt lat="46.099304789677262" lon="9.083095220848918">
        <ele>1803.9200000000001</ele>
        <time>2025-11-23T10:26:23Z</time>
      </trkpt>
      <trkpt lat="46.099391458556056" lon="9.083049790933728">
        <ele>1806.8</ele>
        <time>2025-11-23T10:26:43Z</time>
      </trkpt>
      <trkpt lat="46.099476115778089" lon="9.082994889467955">
        <ele>1809.01</ele>
        <time>2025-11-23T10:27:01Z</time>
      </trkpt>
      <trkpt lat="46.099562030285597" lon="9.082944514229894">
        <ele>1811.5</ele>
        <time>2025-11-23T10:27:22Z</time>
      </trkpt>
      <trkpt lat="46.099648699164391" lon="9.082890870049596">
        <ele>1814.77</ele>
        <time>2025-11-23T10:27:44Z</time>
      </trkpt>
      <trkpt lat="46.099732685834169" lon="9.082836555317044">
        <ele>1819</ele>
        <time>2025-11-23T10:28:06Z</time>
      </trkpt>
      <trkpt lat="46.099816504865885" lon="9.082768075168133">
        <ele>1821.6400000000001</ele>
        <time>2025-11-23T10:28:29Z</time>
      </trkpt>
      <trkpt lat="46.099884063005447" lon="9.082709988579154">
        <ele>1823.55</ele>
        <time>2025-11-23T10:28:54Z</time>
      </trkpt>
      <trkpt lat="46.09985045157373" lon="9.082607394084334">
        <ele>1822.8699999999999</ele>
        <time>2025-11-23T10:29:45Z</time>
      </trkpt>
      <trkpt lat="46.09979915432632" lon="9.0825021173805">
        <ele>1821.53</ele>
        <time>2025-11-23T10:29:55Z</time>
      </trkpt>
      <trkpt lat="46.099769985303283" lon="9.08237119205296">
        <ele>1819</ele>
        <time>2025-11-23T10:30:07Z</time>
      </trkpt>
      <trkpt lat="46.099807284772396" lon="9.082270860671997">
        <ele>1818.8599999999999</ele>
        <time>2025-11-23T10:32:22Z</time>
      </trkpt>
      <trkpt lat="46.099877022206783" lon="9.082277482375503">
        <ele>1821.24</ele>
        <time>2025-11-23T10:32:39Z</time>
      </trkpt>
      <trkpt lat="46.099954470992088" lon="9.082364151254296">
        <ele>1823.9100000000001</ele>
        <time>2025-11-23T10:32:55Z</time>
      </trkpt>
      <trkpt lat="46.100019682198763" lon="9.082460459321737">
        <ele>1825.3499999999999</ele>
        <time>2025-11-23T10:33:09Z</time>
      </trkpt>
      <trkpt lat="46.100108362734318" lon="9.082432212308049">
        <ele>1827.02</ele>
        <time>2025-11-23T10:33:25Z</time>
      </trkpt>
      <trkpt lat="46.100198216736317" lon="9.082400361075997">
        <ele>1829.5699999999999</ele>
        <time>2025-11-23T10:33:44Z</time>
      </trkpt>
      <trkpt lat="46.100278766825795" lon="9.082338670268655">
        <ele>1832.25</ele>
        <time>2025-11-23T10:34:10Z</time>
      </trkpt>
      <trkpt lat="46.100359819829464" lon="9.082260802388191">
        <ele>1834.6300000000001</ele>
        <time>2025-11-23T10:34:29Z</time>
      </trkpt>
      <trkpt lat="46.100450595840812" lon="9.082224424928427">
        <ele>1837.3199999999999</ele>
        <time>2025-11-23T10:34:47Z</time>
      </trkpt>
      <trkpt lat="46.100536594167352" lon="9.082164242863655">
        <ele>1839.4000000000001</ele>
        <time>2025-11-23T10:35:05Z</time>
      </trkpt>
      <trkpt lat="46.100621335208416" lon="9.082106994464994">
        <ele>1841.8099999999999</ele>
        <time>2025-11-23T10:35:36Z</time>
      </trkpt>
      <trkpt lat="46.100708842277527" lon="9.082057205960155">
        <ele>1844.04</ele>
        <time>2025-11-23T10:36:38Z</time>
      </trkpt>
      <trkpt lat="46.100797019898891" lon="9.082002053037286">
        <ele>1846.78</ele>
        <time>2025-11-23T10:36:51Z</time>
      </trkpt>
      <trkpt lat="46.100889975205064" lon="9.08194069750607">
        <ele>1848.55</ele>
        <time>2025-11-23T10:37:05Z</time>
      </trkpt>
      <trkpt lat="46.100962059572339" lon="9.08185712993145">
        <ele>1850.4200000000001</ele>
        <time>2025-11-23T10:37:18Z</time>
      </trkpt>
      <trkpt lat="46.101037999615073" lon="9.081789823248982">
        <ele>1851.5</ele>
        <time>2025-11-23T10:37:30Z</time>
      </trkpt>
      <trkpt lat="46.101116621866822" lon="9.081822261214256">
        <ele>1854.9000000000001</ele>
        <time>2025-11-23T10:37:46Z</time>
      </trkpt>
      <trkpt lat="46.101182168349624" lon="9.081903900951147">
        <ele>1856.3099999999999</ele>
        <time>2025-11-23T10:38:00Z</time>
      </trkpt>
      <trkpt lat="46.101268585771322" lon="9.081902392208576">
        <ele>1857.97</ele>
        <time>2025-11-23T10:38:20Z</time>
      </trkpt>
      <trkpt lat="46.101357014849782" lon="9.081860147416592">
        <ele>1859.72</ele>
        <time>2025-11-23T10:38:34Z</time>
      </trkpt>
      <trkpt lat="46.101445108652115" lon="9.081816812977195">
        <ele>1862.23</ele>
        <time>2025-11-23T10:38:48Z</time>
      </trkpt>
      <trkpt lat="46.101533370092511" lon="9.081792924553156">
        <ele>1864.7</ele>
        <time>2025-11-23T10:39:02Z</time>
      </trkpt>
      <trkpt lat="46.101609226316214" lon="9.0817232709378">
        <ele>1866.9200000000001</ele>
        <time>2025-11-23T10:39:17Z</time>
      </trkpt>
      <trkpt lat="46.101693380624056" lon="9.08167339861393">
        <ele>1870.3</ele>
        <time>2025-11-23T10:39:34Z</time>
      </trkpt>
      <trkpt lat="46.101781642064452" lon="9.08163920044899">
        <ele>1872.8599999999999</ele>
        <time>2025-11-23T10:39:53Z</time>
      </trkpt>
      <trkpt lat="46.101866383105516" lon="9.081588825210929">
        <ele>1875.3299999999999</ele>
        <time>2025-11-23T10:40:10Z</time>
      </trkpt>
      <trkpt lat="46.101949280127883" lon="9.081543060019612">
        <ele>1877.25</ele>
        <time>2025-11-23T10:40:26Z</time>
      </trkpt>
      <trkpt lat="46.102029830217361" lon="9.081485476344824">
        <ele>1879.4300000000001</ele>
        <time>2025-11-23T10:40:43Z</time>
      </trkpt>
      <trkpt lat="46.10209621489048" lon="9.081406183540821">
        <ele>1881.4100000000001</ele>
        <time>2025-11-23T10:40:59Z</time>
      </trkpt>
      <trkpt lat="46.102177938446403" lon="9.081340050324798">
        <ele>1882.8499999999999</ele>
        <time>2025-11-23T10:41:14Z</time>
      </trkpt>
      <trkpt lat="46.102238791063428" lon="9.081237036734819">
        <ele>1884.6400000000001</ele>
        <time>2025-11-23T10:41:28Z</time>
      </trkpt>
      <trkpt lat="46.102292099967599" lon="9.081199318170548">
        <ele>1884.4300000000001</ele>
        <time>2025-11-23T10:43:27Z</time>
      </trkpt>
      <trkpt lat="46.102249519899487" lon="9.081237288191915">
        <ele>1883.9300000000001</ele>
        <time>2025-11-23T10:47:38Z</time>
      </trkpt>
      <trkpt lat="46.10216997563839" lon="9.081304930150509">
        <ele>1883.1199999999999</ele>
        <time>2025-11-23T10:47:49Z</time>
      </trkpt>
      <trkpt lat="46.102113230153918" lon="9.081411883234978">
        <ele>1881.0799999999999</ele>
        <time>2025-11-23T10:48:00Z</time>
      </trkpt>
      <trkpt lat="46.102045420557261" lon="9.081499641761184">
        <ele>1879.3499999999999</ele>
        <time>2025-11-23T10:48:10Z</time>
      </trkpt>
      <trkpt lat="46.101965708658099" lon="9.081570217385888">
        <ele>1877.3599999999999</ele>
        <time>2025-11-23T10:48:20Z</time>
      </trkpt>
      <trkpt lat="46.101883482187986" lon="9.08161723986268">
        <ele>1875.1800000000001</ele>
        <time>2025-11-23T10:48:30Z</time>
      </trkpt>
      <trkpt lat="46.101797316223383" lon="9.08167339861393">
        <ele>1872.5</ele>
        <time>2025-11-23T10:48:40Z</time>
      </trkpt>
      <trkpt lat="46.101710982620716" lon="9.081708770245314">
        <ele>1870.0699999999999</ele>
        <time>2025-11-23T10:48:50Z</time>
      </trkpt>
      <trkpt lat="46.101617524400353" lon="9.08172762952745">
        <ele>1867.3299999999999</ele>
        <time>2025-11-23T10:49:02Z</time>
      </trkpt>
      <trkpt lat="46.101539740338922" lon="9.081781189888716">
        <ele>1864.5999999999999</ele>
        <time>2025-11-23T10:49:13Z</time>
      </trkpt>
      <trkpt lat="46.101463129743934" lon="9.081855118274689">
        <ele>1861.51</ele>
        <time>2025-11-23T10:49:24Z</time>
      </trkpt>
      <trkpt lat="46.101369922980666" lon="9.081868948414922">
        <ele>1859.1199999999999</ele>
        <time>2025-11-23T10:49:34Z</time>
      </trkpt>
      <trkpt lat="46.101290211081505" lon="9.081929214298725">
        <ele>1857.45</ele>
        <time>2025-11-23T10:49:43Z</time>
      </trkpt>
      <trkpt lat="46.101202871650457" lon="9.081986378878355">
        <ele>1855.71</ele>
        <time>2025-11-23T10:49:54Z</time>
      </trkpt>
      <trkpt lat="46.101113269105554" lon="9.082049494609237">
        <ele>1853.5799999999999</ele>
        <time>2025-11-23T10:50:04Z</time>
      </trkpt>
      <trkpt lat="46.10101729631424" lon="9.082083776593208">
        <ele>1851.0599999999999</ele>
        <time>2025-11-23T10:50:14Z</time>
      </trkpt>
      <trkpt lat="46.100929286330938" lon="9.082135828211904">
        <ele>1849.23</ele>
        <time>2025-11-23T10:50:24Z</time>
      </trkpt>
      <trkpt lat="46.100839432328939" lon="9.082183269783855">
        <ele>1846.74</ele>
        <time>2025-11-23T10:50:34Z</time>
      </trkpt>
      <trkpt lat="46.100760893896222" lon="9.082246134057641">
        <ele>1844.25</ele>
        <time>2025-11-23T10:50:44Z</time>
      </trkpt>
      <trkpt lat="46.100673135370016" lon="9.082273039966822">
        <ele>1841.74</ele>
        <time>2025-11-23T10:50:54Z</time>
      </trkpt>
      <trkpt lat="46.100589819252491" lon="9.082310004159808">
        <ele>1839.04</ele>
        <time>2025-11-23T10:51:10Z</time>
      </trkpt>
      <trkpt lat="46.10050424002111" lon="9.082340430468321">
        <ele>1837.4100000000001</ele>
        <time>2025-11-23T10:51:22Z</time>
      </trkpt>
      <trkpt lat="46.100416649132967" lon="9.082383681088686">
        <ele>1834.72</ele>
        <time>2025-11-23T10:51:34Z</time>
      </trkpt>
      <trkpt lat="46.100330064073205" lon="9.082446796819568">
        <ele>1832.3699999999999</ele>
        <time>2025-11-23T10:51:46Z</time>
      </trkpt>
      <trkpt lat="46.100243227556348" lon="9.082499770447612">
        <ele>1828.6400000000001</ele>
        <time>2025-11-23T10:51:57Z</time>
      </trkpt>
      <trkpt lat="46.100168209522963" lon="9.082538913935423">
        <ele>1826.6099999999999</ele>
        <time>2025-11-23T10:52:58Z</time>
      </trkpt>
      <trkpt lat="46.100090425461531" lon="9.082593563944101">
        <ele>1825.4300000000001</ele>
        <time>2025-11-23T10:53:21Z</time>
      </trkpt>
      <trkpt lat="46.100006438791752" lon="9.082647794857621">
        <ele>1823.3900000000001</ele>
        <time>2025-11-23T10:53:39Z</time>
      </trkpt>
      <trkpt lat="46.099910633638501" lon="9.08267067745328">
        <ele>1822.5899999999999</ele>
        <time>2025-11-23T10:54:05Z</time>
      </trkpt>
      <trkpt lat="46.099817510694265" lon="9.0826799813658">
        <ele>1820.9300000000001</ele>
        <time>2025-11-23T10:54:43Z</time>
      </trkpt>
      <trkpt lat="46.099734110757709" lon="9.082731027156115">
        <ele>1819.1500000000001</ele>
        <time>2025-11-23T10:55:05Z</time>
      </trkpt>
      <trkpt lat="46.099653895944357" lon="9.08279825001955">
        <ele>1816.53</ele>
        <time>2025-11-23T10:55:17Z</time>
      </trkpt>
      <trkpt lat="46.099578961730003" lon="9.082866897806525">
        <ele>1812.77</ele>
        <time>2025-11-23T10:55:30Z</time>
      </trkpt>
      <trkpt lat="46.099498914554715" lon="9.082931354641914">
        <ele>1809.3699999999999</ele>
        <time>2025-11-23T10:55:44Z</time>
      </trkpt>
      <trkpt lat="46.099410988390446" lon="9.082972509786487">
        <ele>1806.4000000000001</ele>
        <time>2025-11-23T10:55:57Z</time>
      </trkpt>
      <trkpt lat="46.099333539605141" lon="9.083044761791825">
        <ele>1802.8399999999999</ele>
        <time>2025-11-23T10:56:10Z</time>
      </trkpt>
      <trkpt lat="46.099251061677933" lon="9.083093879744411">
        <ele>1800.0599999999999</ele>
        <time>2025-11-23T10:56:23Z</time>
      </trkpt>
      <trkpt lat="46.099171601235867" lon="9.083151128143072">
        <ele>1796.1099999999999</ele>
        <time>2025-11-23T10:56:37Z</time>
      </trkpt>
      <trkpt lat="46.09909800812602" lon="9.083208292722702">
        <ele>1793.4400000000001</ele>
        <time>2025-11-23T10:56:52Z</time>
      </trkpt>
      <trkpt lat="46.099014775827527" lon="9.083268474787474">
        <ele>1790.2</ele>
        <time>2025-11-23T10:57:06Z</time>
      </trkpt>
      <trkpt lat="46.098947552964091" lon="9.08334500156343">
        <ele>1786.9400000000001</ele>
        <time>2025-11-23T10:57:18Z</time>
      </trkpt>
      <trkpt lat="46.098863733932376" lon="9.083385905250907">
        <ele>1784.3</ele>
        <time>2025-11-23T10:57:31Z</time>
      </trkpt>
      <trkpt lat="46.098782094195485" lon="9.083446674048901">
        <ele>1780.6600000000001</ele>
        <time>2025-11-23T10:57:46Z</time>
      </trkpt>
      <trkpt lat="46.098703974857926" lon="9.08351356163621">
        <ele>1777.8099999999999</ele>
        <time>2025-11-23T10:57:59Z</time>
      </trkpt>
      <trkpt lat="46.09862501733005" lon="9.083583299070597">
        <ele>1774.4300000000001</ele>
        <time>2025-11-23T10:58:13Z</time>
      </trkpt>
      <trkpt lat="46.098541114479303" lon="9.083636775612831">
        <ele>1771.4000000000001</ele>
        <time>2025-11-23T10:58:27Z</time>
      </trkpt>
      <trkpt lat="46.098455954343081" lon="9.083688240498304">
        <ele>1769.03</ele>
        <time>2025-11-23T10:58:40Z</time>
      </trkpt>
      <trkpt lat="46.09837532043457" lon="9.083755128085613">
        <ele>1766.22</ele>
        <time>2025-11-23T10:58:52Z</time>
      </trkpt>
      <trkpt lat="46.098295357078314" lon="9.083814136683941">
        <ele>1763.6600000000001</ele>
        <time>2025-11-23T10:59:04Z</time>
      </trkpt>
      <trkpt lat="46.098222518339753" lon="9.083908349275589">
        <ele>1760.4300000000001</ele>
        <time>2025-11-23T10:59:16Z</time>
      </trkpt>
      <trkpt lat="46.09814322553575" lon="9.08398806117475">
        <ele>1758.4000000000001</ele>
        <time>2025-11-23T10:59:28Z</time>
      </trkpt>
      <trkpt lat="46.098062256351113" lon="9.084046902135015">
        <ele>1756.47</ele>
        <time>2025-11-23T10:59:39Z</time>
      </trkpt>
      <trkpt lat="46.097981119528413" lon="9.084107587113977">
        <ele>1754.02</ele>
        <time>2025-11-23T10:59:50Z</time>
      </trkpt>
      <trkpt lat="46.097902581095695" lon="9.084172463044524">
        <ele>1752.8399999999999</ele>
        <time>2025-11-23T11:00:03Z</time>
      </trkpt>
      <trkpt lat="46.097814403474331" lon="9.084237506613135">
        <ele>1750.9000000000001</ele>
        <time>2025-11-23T11:00:13Z</time>
      </trkpt>
      <trkpt lat="46.097736870869994" lon="9.08429341390729">
        <ele>1750.6600000000001</ele>
        <time>2025-11-23T11:00:25Z</time>
      </trkpt>
      <trkpt lat="46.097641065716743" lon="9.08433104865253">
        <ele>1749.8800000000001</ele>
        <time>2025-11-23T11:00:35Z</time>
      </trkpt>
      <trkpt lat="46.097547356039286" lon="9.084361055865884">
        <ele>1748</ele>
        <time>2025-11-23T11:00:46Z</time>
      </trkpt>
      <trkpt lat="46.097452472895384" lon="9.084395924583077">
        <ele>1748.0999999999999</ele>
        <time>2025-11-23T11:00:58Z</time>
      </trkpt>
      <trkpt lat="46.09736479818821" lon="9.08444881439209">
        <ele>1744.4300000000001</ele>
        <time>2025-11-23T11:01:10Z</time>
      </trkpt>
      <trkpt lat="46.097276452928782" lon="9.084507152438164">
        <ele>1743.5</ele>
        <time>2025-11-23T11:01:21Z</time>
      </trkpt>
      <trkpt lat="46.097192550078034" lon="9.084556605666876">
        <ele>1742.0799999999999</ele>
        <time>2025-11-23T11:01:32Z</time>
      </trkpt>
      <trkpt lat="46.097107222303748" lon="9.084583008661866">
        <ele>1740.8499999999999</ele>
        <time>2025-11-23T11:01:51Z</time>
      </trkpt>
      <trkpt lat="46.097058188170195" lon="9.084646794945002">
        <ele>1738.8800000000001</ele>
        <time>2025-11-23T11:02:06Z</time>
      </trkpt>
      <trkpt lat="46.096981074661016" lon="9.084717454388738">
        <ele>1736.4100000000001</ele>
        <time>2025-11-23T11:02:18Z</time>
      </trkpt>
      <trkpt lat="46.096894405782223" lon="9.084754921495915">
        <ele>1734.1900000000001</ele>
        <time>2025-11-23T11:02:30Z</time>
      </trkpt>
      <trkpt lat="46.096811089664698" lon="9.084824910387397">
        <ele>1730.49</ele>
        <time>2025-11-23T11:02:43Z</time>
      </trkpt>
      <trkpt lat="46.096721738576889" lon="9.084864556789398">
        <ele>1727.6099999999999</ele>
        <time>2025-11-23T11:02:55Z</time>
      </trkpt>
      <trkpt lat="46.096645211800933" lon="9.084928343072534">
        <ele>1724.9200000000001</ele>
        <time>2025-11-23T11:03:09Z</time>
      </trkpt>
      <trkpt lat="46.096580335870385" lon="9.085018448531628">
        <ele>1720.73</ele>
        <time>2025-11-23T11:03:22Z</time>
      </trkpt>
      <trkpt lat="46.096494337543845" lon="9.085057927295566">
        <ele>1717.1800000000001</ele>
        <time>2025-11-23T11:03:34Z</time>
      </trkpt>
      <trkpt lat="46.096406998112798" lon="9.085115846246481">
        <ele>1713.3</ele>
        <time>2025-11-23T11:03:48Z</time>
      </trkpt>
      <trkpt lat="46.096319826319814" lon="9.085149541497231">
        <ele>1710.4000000000001</ele>
        <time>2025-11-23T11:04:01Z</time>
      </trkpt>
      <trkpt lat="46.096239108592272" lon="9.085185248404741">
        <ele>1707.4400000000001</ele>
        <time>2025-11-23T11:04:16Z</time>
      </trkpt>
      <trkpt lat="46.09615889377892" lon="9.085257332772017">
        <ele>1704.7</ele>
        <time>2025-11-23T11:04:28Z</time>
      </trkpt>
      <trkpt lat="46.096068872138858" lon="9.085300248116255">
        <ele>1701.8599999999999</ele>
        <time>2025-11-23T11:04:40Z</time>
      </trkpt>
      <trkpt lat="46.095983544364572" lon="9.0853635314852">
        <ele>1699.6400000000001</ele>
        <time>2025-11-23T11:04:52Z</time>
      </trkpt>
      <trkpt lat="46.0959008987993" lon="9.085430838167667">
        <ele>1697.53</ele>
        <time>2025-11-23T11:05:03Z</time>
      </trkpt>
      <trkpt lat="46.09581540338695" lon="9.085479453206062">
        <ele>1696.1300000000001</ele>
        <time>2025-11-23T11:05:13Z</time>
      </trkpt>
      <trkpt lat="46.095727393403649" lon="9.085512226447463">
        <ele>1694.25</ele>
        <time>2025-11-23T11:05:24Z</time>
      </trkpt>
      <trkpt lat="46.095637958496809" lon="9.085562601685524">
        <ele>1691.3599999999999</ele>
        <time>2025-11-23T11:05:36Z</time>
      </trkpt>
      <trkpt lat="46.095552295446396" lon="9.085614150390029">
        <ele>1689.3299999999999</ele>
        <time>2025-11-23T11:05:47Z</time>
      </trkpt>
      <trkpt lat="46.09546453692019" lon="9.085681876167655">
        <ele>1686.6800000000001</ele>
        <time>2025-11-23T11:05:59Z</time>
      </trkpt>
      <trkpt lat="46.095383986830711" lon="9.08576276153326">
        <ele>1685.24</ele>
        <time>2025-11-23T11:06:10Z</time>
      </trkpt>
      <trkpt lat="46.095313159748912" lon="9.085850771516562">
        <ele>1684.8399999999999</ele>
        <time>2025-11-23T11:06:21Z</time>
      </trkpt>
      <trkpt lat="46.095232525840402" lon="9.085901314392686">
        <ele>1683.9100000000001</ele>
        <time>2025-11-23T11:06:31Z</time>
      </trkpt>
      <trkpt lat="46.095168571919203" lon="9.085992425680161">
        <ele>1681.74</ele>
        <time>2025-11-23T11:06:41Z</time>
      </trkpt>
      <trkpt lat="46.095077209174633" lon="9.086032910272479">
        <ele>1680.78</ele>
        <time>2025-11-23T11:06:50Z</time>
      </trkpt>
      <trkpt lat="46.094987355172634" lon="9.086064929142594">
        <ele>1680.45</ele>
        <time>2025-11-23T11:06:59Z</time>
      </trkpt>
      <trkpt lat="46.094902697950602" lon="9.086113628000021">
        <ele>1679.8699999999999</ele>
        <time>2025-11-23T11:07:21Z</time>
      </trkpt>
      <trkpt lat="46.094813430681825" lon="9.086159896105528">
        <ele>1676.9300000000001</ele>
        <time>2025-11-23T11:07:33Z</time>
      </trkpt>
      <trkpt lat="46.09472868964076" lon="9.086216725409031">
        <ele>1673.5799999999999</ele>
        <time>2025-11-23T11:07:45Z</time>
      </trkpt>
      <trkpt lat="46.094644283875823" lon="9.086263244971633">
        <ele>1671.3</ele>
        <time>2025-11-23T11:08:20Z</time>
      </trkpt>
      <trkpt lat="46.094555435702205" lon="9.086303729563952">
        <ele>1667.8800000000001</ele>
        <time>2025-11-23T11:08:34Z</time>
      </trkpt>
      <trkpt lat="46.094472957774997" lon="9.086368856951594">
        <ele>1665.3199999999999</ele>
        <time>2025-11-23T11:08:45Z</time>
      </trkpt>
      <trkpt lat="46.094371704384685" lon="9.086415879428387">
        <ele>1663.1500000000001</ele>
        <time>2025-11-23T11:08:54Z</time>
      </trkpt>
      <trkpt lat="46.094283778220415" lon="9.086448820307851">
        <ele>1662.3299999999999</ele>
        <time>2025-11-23T11:09:02Z</time>
      </trkpt>
      <trkpt lat="46.094184452667832" lon="9.086477989330888">
        <ele>1662.9100000000001</ele>
        <time>2025-11-23T11:09:11Z</time>
      </trkpt>
      <trkpt lat="46.094089820981026" lon="9.086503470316529">
        <ele>1664.1300000000001</ele>
        <time>2025-11-23T11:09:21Z</time>
      </trkpt>
      <trkpt lat="46.094006504863501" lon="9.086548564955592">
        <ele>1664.1500000000001</ele>
        <time>2025-11-23T11:09:30Z</time>
      </trkpt>
      <trkpt lat="46.093910783529282" lon="9.08658997155726">
        <ele>1663.3099999999999</ele>
        <time>2025-11-23T11:09:39Z</time>
      </trkpt>
      <trkpt lat="46.09382713213563" lon="9.086640262976289">
        <ele>1664.29</ele>
        <time>2025-11-23T11:09:49Z</time>
      </trkpt>
      <trkpt lat="46.093755383044481" lon="9.086723159998655">
        <ele>1661.96</ele>
        <time>2025-11-23T11:10:01Z</time>
      </trkpt>
      <trkpt lat="46.093679945915937" lon="9.08680060878396">
        <ele>1659.3699999999999</ele>
        <time>2025-11-23T11:10:14Z</time>
      </trkpt>
      <trkpt lat="46.093602664768696" lon="9.086881242692471">
        <ele>1657.0999999999999</ele>
        <time>2025-11-23T11:10:27Z</time>
      </trkpt>
      <trkpt lat="46.093522114679217" lon="9.086938239634037">
        <ele>1655.6300000000001</ele>
        <time>2025-11-23T11:10:38Z</time>
      </trkpt>
      <trkpt lat="46.093454975634813" lon="9.087032284587622">
        <ele>1655.1400000000001</ele>
        <time>2025-11-23T11:10:49Z</time>
      </trkpt>
      <trkpt lat="46.093386495485902" lon="9.087115097790957">
        <ele>1652.8900000000001</ele>
        <time>2025-11-23T11:11:00Z</time>
      </trkpt>
      <trkpt lat="46.093297312036157" lon="9.087138650938869">
        <ele>1649.5999999999999</ele>
        <time>2025-11-23T11:11:13Z</time>
      </trkpt>
      <trkpt lat="46.093203434720635" lon="9.087174106389284">
        <ele>1647.71</ele>
        <time>2025-11-23T11:11:26Z</time>
      </trkpt>
      <trkpt lat="46.093123471364379" lon="9.087236886844039">
        <ele>1644.4000000000001</ele>
        <time>2025-11-23T11:11:43Z</time>
      </trkpt>
      <trkpt lat="46.093051470816135" lon="9.087314670905471">
        <ele>1641.5999999999999</ele>
        <time>2025-11-23T11:11:56Z</time>
      </trkpt>
      <trkpt lat="46.092965891584754" lon="9.087379546836019">
        <ele>1639.76</ele>
        <time>2025-11-23T11:12:07Z</time>
      </trkpt>
      <trkpt lat="46.092872265726328" lon="9.087368315085769">
        <ele>1638.2</ele>
        <time>2025-11-23T11:12:22Z</time>
      </trkpt>
      <trkpt lat="46.092798756435513" lon="9.087377618998289">
        <ele>1635.3499999999999</ele>
        <time>2025-11-23T11:12:41Z</time>
      </trkpt>
      <trkpt lat="46.092707728967071" lon="9.087412152439356">
        <ele>1632.01</ele>
        <time>2025-11-23T11:12:54Z</time>
      </trkpt>
      <trkpt lat="46.092618796974421" lon="9.087463533505797">
        <ele>1628.54</ele>
        <time>2025-11-23T11:13:07Z</time>
      </trkpt>
      <trkpt lat="46.092530032619834" lon="9.087476609274745">
        <ele>1625.9300000000001</ele>
        <time>2025-11-23T11:13:25Z</time>
      </trkpt>
      <trkpt lat="46.092437580227852" lon="9.087467975914478">
        <ele>1624.27</ele>
        <time>2025-11-23T11:13:38Z</time>
      </trkpt>
      <trkpt lat="46.092345044016838" lon="9.087476190179586">
        <ele>1622.6900000000001</ele>
        <time>2025-11-23T11:13:51Z</time>
      </trkpt>
      <trkpt lat="46.092250579968095" lon="9.087456911802292">
        <ele>1621.04</ele>
        <time>2025-11-23T11:14:04Z</time>
      </trkpt>
      <trkpt lat="46.092157205566764" lon="9.087448194622994">
        <ele>1618.71</ele>
        <time>2025-11-23T11:14:18Z</time>
      </trkpt>
      <trkpt lat="46.092122504487634" lon="9.087549196556211">
        <ele>1615.4000000000001</ele>
        <time>2025-11-23T11:14:32Z</time>
      </trkpt>
      <trkpt lat="46.092047402635217" lon="9.087592111900449">
        <ele>1612.3</ele>
        <time>2025-11-23T11:14:46Z</time>
      </trkpt>
      <trkpt lat="46.091994429007173" lon="9.087683809921145">
        <ele>1609.27</ele>
        <time>2025-11-23T11:15:01Z</time>
      </trkpt>
      <trkpt lat="46.091911531984806" lon="9.087735777720809">
        <ele>1606.4000000000001</ele>
        <time>2025-11-23T11:15:14Z</time>
      </trkpt>
      <trkpt lat="46.09182427637279" lon="9.087766706943512">
        <ele>1604.8299999999999</ele>
        <time>2025-11-23T11:15:25Z</time>
      </trkpt>
      <trkpt lat="46.091736517846584" lon="9.087823033332825">
        <ele>1603.1900000000001</ele>
        <time>2025-11-23T11:15:35Z</time>
      </trkpt>
      <trkpt lat="46.09165521338582" lon="9.087902577593923">
        <ele>1601.9100000000001</ele>
        <time>2025-11-23T11:15:46Z</time>
      </trkpt>
      <trkpt lat="46.091571729630232" lon="9.087979020550847">
        <ele>1600.8499999999999</ele>
        <time>2025-11-23T11:15:56Z</time>
      </trkpt>
      <trkpt lat="46.09147978015244" lon="9.088038196787238">
        <ele>1600.3199999999999</ele>
        <time>2025-11-23T11:16:06Z</time>
      </trkpt>
      <trkpt lat="46.091399900615215" lon="9.088096702471376">
        <ele>1599.29</ele>
        <time>2025-11-23T11:16:16Z</time>
      </trkpt>
      <trkpt lat="46.091364612802863" lon="9.088200554251671">
        <ele>1598.0999999999999</ele>
        <time>2025-11-23T11:16:26Z</time>
      </trkpt>
      <trkpt lat="46.091367043554783" lon="9.088328713551164">
        <ele>1597.8499999999999</ele>
        <time>2025-11-23T11:16:36Z</time>
      </trkpt>
      <trkpt lat="46.091376850381494" lon="9.08846776932478">
        <ele>1596.3099999999999</ele>
        <time>2025-11-23T11:16:46Z</time>
      </trkpt>
      <trkpt lat="46.091351788491011" lon="9.088592743501067">
        <ele>1597.3299999999999</ele>
        <time>2025-11-23T11:16:57Z</time>
      </trkpt>
      <trkpt lat="46.09128138050437" lon="9.088681675493717">
        <ele>1596.9300000000001</ele>
        <time>2025-11-23T11:17:06Z</time>
      </trkpt>
      <trkpt lat="46.09120518900454" lon="9.088756525889039">
        <ele>1596.8900000000001</ele>
        <time>2025-11-23T11:17:16Z</time>
      </trkpt>
      <trkpt lat="46.09112354926765" lon="9.088827101513743">
        <ele>1595.8800000000001</ele>
        <time>2025-11-23T11:17:25Z</time>
      </trkpt>
      <trkpt lat="46.09103562310338" lon="9.088890636339784">
        <ele>1594.9200000000001</ele>
        <time>2025-11-23T11:17:34Z</time>
      </trkpt>
      <trkpt lat="46.090946858748794" lon="9.088954171165824">
        <ele>1594.3399999999999</ele>
        <time>2025-11-23T11:17:43Z</time>
      </trkpt>
      <trkpt lat="46.090853400528431" lon="9.089001193642616">
        <ele>1594.4200000000001</ele>
        <time>2025-11-23T11:17:52Z</time>
      </trkpt>
      <trkpt lat="46.090758014470339" lon="9.08904243260622">
        <ele>1594.1900000000001</ele>
        <time>2025-11-23T11:18:01Z</time>
      </trkpt>
      <trkpt lat="46.090663634240627" lon="9.089074619114399">
        <ele>1594.21</ele>
        <time>2025-11-23T11:18:10Z</time>
      </trkpt>
      <trkpt lat="46.090574953705072" lon="9.08910445868969">
        <ele>1593.8599999999999</ele>
        <time>2025-11-23T11:18:18Z</time>
      </trkpt>
      <trkpt lat="46.09048685990274" lon="9.089147793129087">
        <ele>1593.9200000000001</ele>
        <time>2025-11-23T11:18:27Z</time>
      </trkpt>
      <trkpt lat="46.090406225994229" lon="9.089212920516729">
        <ele>1594.02</ele>
        <time>2025-11-23T11:18:36Z</time>
      </trkpt>
      <trkpt lat="46.090333303436637" lon="9.089294224977493">
        <ele>1593.4200000000001</ele>
        <time>2025-11-23T11:18:45Z</time>
      </trkpt>
      <trkpt lat="46.090261051431298" lon="9.089375613257289">
        <ele>1592.96</ele>
        <time>2025-11-23T11:18:54Z</time>
      </trkpt>
      <trkpt lat="46.090190140530467" lon="9.089463958516717">
        <ele>1591.3599999999999</ele>
        <time>2025-11-23T11:19:04Z</time>
      </trkpt>
      <trkpt lat="46.090118726715446" lon="9.089561691507697">
        <ele>1589.48</ele>
        <time>2025-11-23T11:19:14Z</time>
      </trkpt>
      <trkpt lat="46.090045301243663" lon="9.089665627107024">
        <ele>1588.4400000000001</ele>
        <time>2025-11-23T11:19:23Z</time>
      </trkpt>
      <trkpt lat="46.089980928227305" lon="9.089759839698672">
        <ele>1587.9000000000001</ele>
        <time>2025-11-23T11:19:31Z</time>
      </trkpt>
      <trkpt lat="46.089918650686741" lon="9.089862601831555">
        <ele>1586.9200000000001</ele>
        <time>2025-11-23T11:19:40Z</time>
      </trkpt>
      <trkpt lat="46.089857378974557" lon="9.089966788887978">
        <ele>1585.2</ele>
        <time>2025-11-23T11:19:50Z</time>
      </trkpt>
      <trkpt lat="46.089791497215629" lon="9.090057481080294">
        <ele>1583.4200000000001</ele>
        <time>2025-11-23T11:19:59Z</time>
      </trkpt>
      <trkpt lat="46.089715976268053" lon="9.090148843824863">
        <ele>1582.3499999999999</ele>
        <time>2025-11-23T11:20:08Z</time>
      </trkpt>
      <trkpt lat="46.089631905779243" lon="9.0902195032686">
        <ele>1582.26</ele>
        <time>2025-11-23T11:20:17Z</time>
      </trkpt>
      <trkpt lat="46.089542722329497" lon="9.090264094993472">
        <ele>1580.76</ele>
        <time>2025-11-23T11:20:26Z</time>
      </trkpt>
      <trkpt lat="46.089441888034344" lon="9.090260658413172">
        <ele>1579.6199999999999</ele>
        <time>2025-11-23T11:20:35Z</time>
      </trkpt>
      <trkpt lat="46.089349435642362" lon="9.090241128578782">
        <ele>1579.79</ele>
        <time>2025-11-23T11:20:43Z</time>
      </trkpt>
      <trkpt lat="46.089254133403301" lon="9.0902229398489">
        <ele>1579.6500000000001</ele>
        <time>2025-11-23T11:20:51Z</time>
      </trkpt>
      <trkpt lat="46.089163608849049" lon="9.090233668684959">
        <ele>1579.53</ele>
        <time>2025-11-23T11:20:59Z</time>
      </trkpt>
      <trkpt lat="46.08907476067543" lon="9.090257473289967">
        <ele>1578.99</ele>
        <time>2025-11-23T11:21:07Z</time>
      </trkpt>
      <trkpt lat="46.08897895552218" lon="9.090266106650233">
        <ele>1578.23</ele>
        <time>2025-11-23T11:21:16Z</time>
      </trkpt>
      <trkpt lat="46.088879378512502" lon="9.09026107750833">
        <ele>1577.1199999999999</ele>
        <time>2025-11-23T11:21:25Z</time>
      </trkpt>
      <trkpt lat="46.088783657178283" lon="9.09026644192636">
        <ele>1576.6400000000001</ele>
        <time>2025-11-23T11:21:34Z</time>
      </trkpt>
      <trkpt lat="46.088686678558588" lon="9.090293850749731">
        <ele>1575.2</ele>
        <time>2025-11-23T11:21:43Z</time>
      </trkpt>
      <trkpt lat="46.088595483452082" lon="9.090307345613837">
        <ele>1573.1600000000001</ele>
        <time>2025-11-23T11:21:52Z</time>
      </trkpt>
      <trkpt lat="46.088496828451753" lon="9.09032410942018">
        <ele>1571.1500000000001</ele>
        <time>2025-11-23T11:22:02Z</time>
      </trkpt>
      <trkpt lat="46.088399179279804" lon="9.090335508808494">
        <ele>1569.72</ele>
        <time>2025-11-23T11:22:12Z</time>
      </trkpt>
      <trkpt lat="46.088305972516537" lon="9.090340370312333">
        <ele>1568.23</ele>
        <time>2025-11-23T11:22:21Z</time>
      </trkpt>
      <trkpt lat="46.088215783238411" lon="9.090333580970764">
        <ele>1567.22</ele>
        <time>2025-11-23T11:22:30Z</time>
      </trkpt>
      <trkpt lat="46.088128443807364" lon="9.090310782194138">
        <ele>1566.22</ele>
        <time>2025-11-23T11:22:38Z</time>
      </trkpt>
      <trkpt lat="46.088035823777318" lon="9.090284798294306">
        <ele>1565.55</ele>
        <time>2025-11-23T11:22:47Z</time>
      </trkpt>
      <trkpt lat="46.087945466861129" lon="9.090271387249231">
        <ele>1565.22</ele>
        <time>2025-11-23T11:22:55Z</time>
      </trkpt>
      <trkpt lat="46.087843542918563" lon="9.090265603736043">
        <ele>1564.5899999999999</ele>
        <time>2025-11-23T11:23:04Z</time>
      </trkpt>
      <trkpt lat="46.087748492136598" lon="9.09026937559247">
        <ele>1562.55</ele>
        <time>2025-11-23T11:23:17Z</time>
      </trkpt>
      <trkpt lat="46.087656123563647" lon="9.090256299823523">
        <ele>1562.1800000000001</ele>
        <time>2025-11-23T11:23:57Z</time>
      </trkpt>
      <trkpt lat="46.087579932063818" lon="9.090196704491973">
        <ele>1561.21</ele>
        <time>2025-11-23T11:24:06Z</time>
      </trkpt>
      <trkpt lat="46.087527628988028" lon="9.090078184381127">
        <ele>1559.5799999999999</ele>
        <time>2025-11-23T11:24:16Z</time>
      </trkpt>
      <trkpt lat="46.08744322322309" lon="9.090036526322365">
        <ele>1558.28</ele>
        <time>2025-11-23T11:24:27Z</time>
      </trkpt>
      <trkpt lat="46.087351944297552" lon="9.090040465816855">
        <ele>1556.6600000000001</ele>
        <time>2025-11-23T11:24:37Z</time>
      </trkpt>
      <trkpt lat="46.087274244055152" lon="9.090102491900325">
        <ele>1554.0799999999999</ele>
        <time>2025-11-23T11:24:48Z</time>
      </trkpt>
      <trkpt lat="46.087208529934287" lon="9.090191423892975">
        <ele>1551.6400000000001</ele>
        <time>2025-11-23T11:25:00Z</time>
      </trkpt>
      <trkpt lat="46.087165279313922" lon="9.090274404734373">
        <ele>1551.75</ele>
        <time>2025-11-23T11:25:28Z</time>
      </trkpt>
      <trkpt lat="46.087148515507579" lon="9.090220592916012">
        <ele>1551.1700000000001</ele>
        <time>2025-11-23T11:26:01Z</time>
      </trkpt>
      <trkpt lat="46.087054889649153" lon="9.090245654806495">
        <ele>1551.72</ele>
        <time>2025-11-23T11:26:34Z</time>
      </trkpt>
      <trkpt lat="46.086971573531628" lon="9.090210366994143">
        <ele>1551.04</ele>
        <time>2025-11-23T11:26:50Z</time>
      </trkpt>
      <trkpt lat="46.086951373144984" lon="9.090062426403165">
        <ele>1551.46</ele>
        <time>2025-11-23T11:27:21Z</time>
      </trkpt>
      <trkpt lat="46.086894543841481" lon="9.089968129992485">
        <ele>1551.3900000000001</ele>
        <time>2025-11-23T11:27:33Z</time>
      </trkpt>
      <trkpt lat="46.086846012622118" lon="9.08987601287663">
        <ele>1551.77</ele>
        <time>2025-11-23T11:27:43Z</time>
      </trkpt>
      <trkpt lat="46.086935279890895" lon="9.089840138331056">
        <ele>1555.6199999999999</ele>
        <time>2025-11-23T11:28:01Z</time>
      </trkpt>
      <trkpt lat="46.086910218000412" lon="9.08977928571403">
        <ele>1557.3599999999999</ele>
        <time>2025-11-23T11:28:40Z</time>
      </trkpt>
      <trkpt lat="46.086905188858509" lon="9.089770400896668">
        <ele>1557.03</ele>
        <time>2025-11-23T11:34:55Z</time>
      </trkpt>
      <trkpt lat="46.086970735341311" lon="9.089751876890659">
        <ele>1558.8900000000001</ele>
        <time>2025-11-23T11:58:31Z</time>
      </trkpt>
      <trkpt lat="46.087063690647483" lon="9.089756989851594">
        <ele>1559.2</ele>
        <time>2025-11-23T11:58:44Z</time>
      </trkpt>
      <trkpt lat="46.087126722559333" lon="9.089776184409857">
        <ele>1558.4300000000001</ele>
        <time>2025-11-23T11:59:03Z</time>
      </trkpt>
      <trkpt lat="46.087164273485541" lon="9.089830750599504">
        <ele>1557.8800000000001</ele>
        <time>2025-11-23T11:59:36Z</time>
      </trkpt>
      <trkpt lat="46.087157903239131" lon="9.089772664010525">
        <ele>1558.4300000000001</ele>
        <time>2025-11-23T11:59:57Z</time>
      </trkpt>
      <trkpt lat="46.087103085592389" lon="9.089773083105683">
        <ele>1558.5</ele>
        <time>2025-11-23T12:00:17Z</time>
      </trkpt>
      <trkpt lat="46.087094284594059" lon="9.089855644851923">
        <ele>1558.46</ele>
        <time>2025-11-23T12:00:34Z</time>
      </trkpt>
      <trkpt lat="46.087038377299905" lon="9.089908115565777">
        <ele>1558.46</ele>
        <time>2025-11-23T12:00:57Z</time>
      </trkpt>
      <trkpt lat="46.087024547159672" lon="9.089765204116702">
        <ele>1558.5899999999999</ele>
        <time>2025-11-23T12:01:14Z</time>
      </trkpt>
      <trkpt lat="46.087071653455496" lon="9.089664202183485">
        <ele>1558.51</ele>
        <time>2025-11-23T12:01:34Z</time>
      </trkpt>
      <trkpt lat="46.087148180231452" lon="9.089688509702683">
        <ele>1558.5</ele>
        <time>2025-11-23T12:01:52Z</time>
      </trkpt>
      <trkpt lat="46.087154466658831" lon="9.089768808335066">
        <ele>1558.5</ele>
        <time>2025-11-23T12:02:10Z</time>
      </trkpt>
      <trkpt lat="46.087134601548314" lon="9.089865451678634">
        <ele>1558.4000000000001</ele>
        <time>2025-11-23T12:02:42Z</time>
      </trkpt>
      <trkpt lat="46.086992612108588" lon="9.089928399771452">
        <ele>1558.3</ele>
        <time>2025-11-23T12:02:58Z</time>
      </trkpt>
      <trkpt lat="46.087031168863177" lon="9.089783811941743">
        <ele>1558.3499999999999</ele>
        <time>2025-11-23T12:03:20Z</time>
      </trkpt>
      <trkpt lat="46.08703913167119" lon="9.089860422536731">
        <ele>1558.3</ele>
        <time>2025-11-23T12:03:42Z</time>
      </trkpt>
      <trkpt lat="46.087207021191716" lon="9.089679038152099">
        <ele>1558.3399999999999</ele>
        <time>2025-11-23T12:04:02Z</time>
      </trkpt>
      <trkpt lat="46.0871163289994" lon="9.089593710377812">
        <ele>1558.4300000000001</ele>
        <time>2025-11-23T12:04:20Z</time>
      </trkpt>
      <trkpt lat="46.087037539109588" lon="9.089675350114703">
        <ele>1558.6400000000001</ele>
        <time>2025-11-23T12:04:43Z</time>
      </trkpt>
      <trkpt lat="46.087081544101238" lon="9.08967275172472">
        <ele>1558.71</ele>
        <time>2025-11-23T12:05:10Z</time>
      </trkpt>
      <trkpt lat="46.087107947096229" lon="9.089689012616873">
        <ele>1558.77</ele>
        <time>2025-11-23T12:05:29Z</time>
      </trkpt>
      <trkpt lat="46.087062349542975" lon="9.08974701538682">
        <ele>1558.8399999999999</ele>
        <time>2025-11-23T12:05:46Z</time>
      </trkpt>
      <trkpt lat="46.087040388956666" lon="9.089708542451263">
        <ele>1558.8900000000001</ele>
        <time>2025-11-23T12:06:12Z</time>
      </trkpt>
      <trkpt lat="46.087127476930618" lon="9.089759085327387">
        <ele>1558.7</ele>
        <time>2025-11-23T12:06:30Z</time>
      </trkpt>
      <trkpt lat="46.087108785286546" lon="9.089801162481308">
        <ele>1558.5599999999999</ele>
        <time>2025-11-23T12:06:47Z</time>
      </trkpt>
      <trkpt lat="46.087166033685207" lon="9.089788170531392">
        <ele>1558.52</ele>
        <time>2025-11-23T12:07:02Z</time>
      </trkpt>
      <trkpt lat="46.087244907394052" lon="9.089694125577807">
        <ele>1558.8399999999999</ele>
        <time>2025-11-23T12:07:14Z</time>
      </trkpt>
      <trkpt lat="46.08731472864747" lon="9.089629165828228">
        <ele>1558.8900000000001</ele>
        <time>2025-11-23T12:07:29Z</time>
      </trkpt>
      <trkpt lat="46.087305173277855" lon="9.089671997353435">
        <ele>1559.03</ele>
        <time>2025-11-23T12:07:49Z</time>
      </trkpt>
      <trkpt lat="46.087307017296553" lon="9.089654143899679">
        <ele>1559.1099999999999</ele>
        <time>2025-11-23T12:08:16Z</time>
      </trkpt>
      <trkpt lat="46.087373904883862" lon="9.089628579095006">
        <ele>1558.8800000000001</ele>
        <time>2025-11-23T12:08:39Z</time>
      </trkpt>
      <trkpt lat="46.087379436939955" lon="9.089661100879312">
        <ele>1559.1199999999999</ele>
        <time>2025-11-23T12:08:58Z</time>
      </trkpt>
      <trkpt lat="46.087342724204063" lon="9.08970451913774">
        <ele>1558.8800000000001</ele>
        <time>2025-11-23T12:09:16Z</time>
      </trkpt>
      <trkpt lat="46.087329229339957" lon="9.089743327349424">
        <ele>1558.79</ele>
        <time>2025-11-23T12:09:38Z</time>
      </trkpt>
      <trkpt lat="46.087175337597728" lon="9.089741986244917">
        <ele>1558.79</ele>
        <time>2025-11-23T12:10:07Z</time>
      </trkpt>
      <trkpt lat="46.087192520499229" lon="9.08971818163991">
        <ele>1558.5999999999999</ele>
        <time>2025-11-23T12:10:32Z</time>
      </trkpt>
      <trkpt lat="46.087250104174018" lon="9.089649030938745">
        <ele>1559.0799999999999</ele>
        <time>2025-11-23T12:11:01Z</time>
      </trkpt>
      <trkpt lat="46.087252283468843" lon="9.089724216610193">
        <ele>1558.75</ele>
        <time>2025-11-23T12:11:24Z</time>
      </trkpt>
      <trkpt lat="46.087121358141303" lon="9.089702842757106">
        <ele>1558.8599999999999</ele>
        <time>2025-11-23T12:11:43Z</time>
      </trkpt>
      <trkpt lat="46.087098643183708" lon="9.089779620990157">
        <ele>1558.98</ele>
        <time>2025-11-23T12:11:56Z</time>
      </trkpt>
      <trkpt lat="46.087240213528275" lon="9.089749865233898">
        <ele>1558.97</ele>
        <time>2025-11-23T12:12:13Z</time>
      </trkpt>
      <trkpt lat="46.087323110550642" lon="9.089700998738408">
        <ele>1558.78</ele>
        <time>2025-11-23T12:12:32Z</time>
      </trkpt>
      <trkpt lat="46.087255720049143" lon="9.089671745896339">
        <ele>1558.9100000000001</ele>
        <time>2025-11-23T12:12:53Z</time>
      </trkpt>
      <trkpt lat="46.087301149964333" lon="9.089735364541411">
        <ele>1558.95</ele>
        <time>2025-11-23T12:13:09Z</time>
      </trkpt>
      <trkpt lat="46.087284637615085" lon="9.08971575088799">
        <ele>1559.0799999999999</ele>
        <time>2025-11-23T12:13:32Z</time>
      </trkpt>
      <trkpt lat="46.08706695958972" lon="9.089731173589826">
        <ele>1559.3199999999999</ele>
        <time>2025-11-23T12:14:02Z</time>
      </trkpt>
      <trkpt lat="46.087158238515258" lon="9.089771658182144">
        <ele>1559.49</ele>
        <time>2025-11-23T12:14:33Z</time>
      </trkpt>
      <trkpt lat="46.087103253230453" lon="9.089814070612192">
        <ele>1559.3199999999999</ele>
        <time>2025-11-23T12:14:52Z</time>
      </trkpt>
      <trkpt lat="46.08717299066484" lon="9.089888669550419">
        <ele>1559.45</ele>
        <time>2025-11-23T12:15:07Z</time>
      </trkpt>
      <trkpt lat="46.087255803868175" lon="9.089920604601502">
        <ele>1559.71</ele>
        <time>2025-11-23T12:15:24Z</time>
      </trkpt>
      <trkpt lat="46.087222527712584" lon="9.089894453063607">
        <ele>1559.6300000000001</ele>
        <time>2025-11-23T12:15:44Z</time>
      </trkpt>
      <trkpt lat="46.087220013141632" lon="9.089918676763773">
        <ele>1559.71</ele>
        <time>2025-11-23T12:16:03Z</time>
      </trkpt>
      <trkpt lat="46.087159747257829" lon="9.089943738654256">
        <ele>1559.3699999999999</ele>
        <time>2025-11-23T12:16:26Z</time>
      </trkpt>
      <trkpt lat="46.087116496637464" lon="9.089886154979467">
        <ele>1559.28</ele>
        <time>2025-11-23T12:16:47Z</time>
      </trkpt>
      <trkpt lat="46.087096631526947" lon="9.089816501364112">
        <ele>1559.3299999999999</ele>
        <time>2025-11-23T12:17:16Z</time>
      </trkpt>
      <trkpt lat="46.087150443345308" lon="9.089855141937733">
        <ele>1559.5</ele>
        <time>2025-11-23T12:17:45Z</time>
      </trkpt>
      <trkpt lat="46.087100487202406" lon="9.089851872995496">
        <ele>1559.54</ele>
        <time>2025-11-23T12:18:02Z</time>
      </trkpt>
      <trkpt lat="46.087035946547985" lon="9.089819686487317">
        <ele>1559.47</ele>
        <time>2025-11-23T12:18:22Z</time>
      </trkpt>
      <trkpt lat="46.087032174691558" lon="9.089882550761104">
        <ele>1559.47</ele>
        <time>2025-11-23T12:18:47Z</time>
      </trkpt>
      <trkpt lat="46.087058745324612" lon="9.089933931827545">
        <ele>1559.29</ele>
        <time>2025-11-23T12:19:14Z</time>
      </trkpt>
      <trkpt lat="46.087094284594059" lon="9.089767802506685">
        <ele>1559.3599999999999</ele>
        <time>2025-11-23T12:19:32Z</time>
      </trkpt>
      <trkpt lat="46.087154466658831" lon="9.089785655960441">
        <ele>1559.4400000000001</ele>
        <time>2025-11-23T12:19:45Z</time>
      </trkpt>
      <trkpt lat="46.087186653167009" lon="9.089889172464609">
        <ele>1559.47</ele>
        <time>2025-11-23T12:19:59Z</time>
      </trkpt>
      <trkpt lat="46.087213810533285" lon="9.089982295408845">
        <ele>1559.4300000000001</ele>
        <time>2025-11-23T12:20:16Z</time>
      </trkpt>
      <trkpt lat="46.087285140529275" lon="9.09004800952971">
        <ele>1559.53</ele>
        <time>2025-11-23T12:20:32Z</time>
      </trkpt>
      <trkpt lat="46.087084645405412" lon="9.08990778028965">
        <ele>1559.1800000000001</ele>
        <time>2025-11-23T12:20:57Z</time>
      </trkpt>
      <trkpt lat="46.087076514959335" lon="9.089864194393158">
        <ele>1559.4000000000001</ele>
        <time>2025-11-23T12:21:13Z</time>
      </trkpt>
      <trkpt lat="46.087174583226442" lon="9.089898895472288">
        <ele>1559.28</ele>
        <time>2025-11-23T12:21:33Z</time>
      </trkpt>
      <trkpt lat="46.087186569347978" lon="9.089836366474628">
        <ele>1559.3599999999999</ele>
        <time>2025-11-23T12:21:52Z</time>
      </trkpt>
      <trkpt lat="46.087222695350647" lon="9.089870816096664">
        <ele>1559.26</ele>
        <time>2025-11-23T12:22:11Z</time>
      </trkpt>
      <trkpt lat="46.087278351187706" lon="9.089799150824547">
        <ele>1559.28</ele>
        <time>2025-11-23T12:22:33Z</time>
      </trkpt>
      <trkpt lat="46.087260581552982" lon="9.089799402281642">
        <ele>1558.73</ele>
        <time>2025-11-23T12:22:54Z</time>
      </trkpt>
      <trkpt lat="46.087211463600397" lon="9.089796552434564">
        <ele>1558.78</ele>
        <time>2025-11-23T12:23:38Z</time>
      </trkpt>
      <trkpt lat="46.087263766676188" lon="9.089846257120371">
        <ele>1558.5699999999999</ele>
        <time>2025-11-23T12:23:52Z</time>
      </trkpt>
      <trkpt lat="46.08730735257268" lon="9.089903673157096">
        <ele>1558.6199999999999</ele>
        <time>2025-11-23T12:24:10Z</time>
      </trkpt>
      <trkpt lat="46.087188078090549" lon="9.089712481945753">
        <ele>1558.3599999999999</ele>
        <time>2025-11-23T12:24:29Z</time>
      </trkpt>
      <trkpt lat="46.087107611820102" lon="9.089615000411868">
        <ele>1558.6800000000001</ele>
        <time>2025-11-23T12:24:42Z</time>
      </trkpt>
      <trkpt lat="46.087060924619436" lon="9.089607205241919">
        <ele>1558.8800000000001</ele>
        <time>2025-11-23T12:25:14Z</time>
      </trkpt>
      <trkpt lat="46.087130075320601" lon="9.089727820828557">
        <ele>1559.0999999999999</ele>
        <time>2025-11-23T12:25:27Z</time>
      </trkpt>
      <trkpt lat="46.087168883532286" lon="9.089808454737067">
        <ele>1558.78</ele>
        <time>2025-11-23T12:25:43Z</time>
      </trkpt>
      <trkpt lat="46.086914325132966" lon="9.089803257957101">
        <ele>1559.23</ele>
        <time>2025-11-23T12:27:01Z</time>
      </trkpt>
      <trkpt lat="46.087203500792384" lon="9.089751709252596">
        <ele>1559.4200000000001</ele>
        <time>2025-11-23T12:27:21Z</time>
      </trkpt>
      <trkpt lat="46.087218755856156" lon="9.089785991236568">
        <ele>1559.02</ele>
        <time>2025-11-23T12:27:35Z</time>
      </trkpt>
      <trkpt lat="46.087317075580359" lon="9.089875593781471">
        <ele>1559.1800000000001</ele>
        <time>2025-11-23T12:27:50Z</time>
      </trkpt>
      <trkpt lat="46.087272148579359" lon="9.089897470548749">
        <ele>1559.23</ele>
        <time>2025-11-23T12:28:18Z</time>
      </trkpt>
      <trkpt lat="46.087217163294554" lon="9.089917838573456">
        <ele>1559.0899999999999</ele>
        <time>2025-11-23T12:28:47Z</time>
      </trkpt>
      <trkpt lat="46.087232502177358" lon="9.089894369244576">
        <ele>1559.1500000000001</ele>
        <time>2025-11-23T12:29:08Z</time>
      </trkpt>
      <trkpt lat="46.087061846628785" lon="9.089822368696332">
        <ele>1558.8499999999999</ele>
        <time>2025-11-23T12:29:30Z</time>
      </trkpt>
      <trkpt lat="46.086973585188389" lon="9.089750284329057">
        <ele>1558.8599999999999</ele>
        <time>2025-11-23T12:29:56Z</time>
      </trkpt>
      <trkpt lat="46.087087159976363" lon="9.089805688709021">
        <ele>1558.75</ele>
        <time>2025-11-23T12:30:10Z</time>
      </trkpt>
      <trkpt lat="46.087078107520938" lon="9.089810466393828">
        <ele>1559.1300000000001</ele>
        <time>2025-11-23T12:30:29Z</time>
      </trkpt>
      <trkpt lat="46.087083304300904" lon="9.089839970692992">
        <ele>1558.9400000000001</ele>
        <time>2025-11-23T12:30:54Z</time>
      </trkpt>
      <trkpt lat="46.087068216875196" lon="9.089830499142408">
        <ele>1558.6900000000001</ele>
        <time>2025-11-23T12:31:17Z</time>
      </trkpt>
      <trkpt lat="46.087188832461834" lon="9.089837623760104">
        <ele>1558.72</ele>
        <time>2025-11-23T12:31:35Z</time>
      </trkpt>
      <trkpt lat="46.087199561297894" lon="9.089856818318367">
        <ele>1558.5999999999999</ele>
        <time>2025-11-23T12:31:57Z</time>
      </trkpt>
      <trkpt lat="46.087159076705575" lon="9.089777525514364">
        <ele>1558.5899999999999</ele>
        <time>2025-11-23T12:32:23Z</time>
      </trkpt>
      <trkpt lat="46.087141307070851" lon="9.08978465013206">
        <ele>1558.6600000000001</ele>
        <time>2025-11-23T12:32:45Z</time>
      </trkpt>
      <trkpt lat="46.087166704237461" lon="9.08980124630034">
        <ele>1558.0599999999999</ele>
        <time>2025-11-23T12:32:59Z</time>
      </trkpt>
      <trkpt lat="46.087142480537295" lon="9.089793534949422">
        <ele>1558.2</ele>
        <time>2025-11-23T12:33:31Z</time>
      </trkpt>
      <trkpt lat="46.086943997070193" lon="9.089722540229559">
        <ele>1558.1099999999999</ele>
        <time>2025-11-23T12:33:55Z</time>
      </trkpt>
      <trkpt lat="46.086746100336313" lon="9.089701417833567">
        <ele>1557.79</ele>
        <time>2025-11-23T12:34:14Z</time>
      </trkpt>
      <trkpt lat="46.086965287104249" lon="9.089796636253595">
        <ele>1557.9300000000001</ele>
        <time>2025-11-23T12:34:35Z</time>
      </trkpt>
      <trkpt lat="46.087023206055164" lon="9.089802419766784">
        <ele>1557.9000000000001</ele>
        <time>2025-11-23T12:34:54Z</time>
      </trkpt>
      <trkpt lat="46.086737718433142" lon="9.089723043143749">
        <ele>1557.9400000000001</ele>
        <time>2025-11-23T12:35:26Z</time>
      </trkpt>
      <trkpt lat="46.086989007890224" lon="9.089751206338406">
        <ele>1557.98</ele>
        <time>2025-11-23T12:35:49Z</time>
      </trkpt>
      <trkpt lat="46.087261252105236" lon="9.089824380353093">
        <ele>1557.8800000000001</ele>
        <time>2025-11-23T12:36:14Z</time>
      </trkpt>
      <trkpt lat="46.087210960686207" lon="9.089778028428555">
        <ele>1557.8800000000001</ele>
        <time>2025-11-23T12:36:28Z</time>
      </trkpt>
      <trkpt lat="46.086974423378706" lon="9.089760174974799">
        <ele>1557.77</ele>
        <time>2025-11-23T12:36:51Z</time>
      </trkpt>
      <trkpt lat="46.086974842473865" lon="9.089758079499006">
        <ele>1557.5899999999999</ele>
        <time>2025-11-23T12:37:09Z</time>
      </trkpt>
      <trkpt lat="46.08695263043046" lon="9.089796468615532">
        <ele>1557.78</ele>
        <time>2025-11-23T12:37:26Z</time>
      </trkpt>
      <trkpt lat="46.087062181904912" lon="9.089869558811188">
        <ele>1557.8900000000001</ele>
        <time>2025-11-23T12:37:50Z</time>
      </trkpt>
      <trkpt lat="46.087025720626116" lon="9.089783057570458">
        <ele>1557.73</ele>
        <time>2025-11-23T12:38:09Z</time>
      </trkpt>
      <trkpt lat="46.087054219096899" lon="9.089772999286652">
        <ele>1557.6099999999999</ele>
        <time>2025-11-23T12:38:48Z</time>
      </trkpt>
      <trkpt lat="46.086722211912274" lon="9.089596727862954">
        <ele>1558.0899999999999</ele>
        <time>2025-11-23T12:39:49Z</time>
      </trkpt>
      <trkpt lat="46.087080622091889" lon="9.089645259082317">
        <ele>1557.72</ele>
        <time>2025-11-23T12:40:33Z</time>
      </trkpt>
      <trkpt lat="46.087048603221774" lon="9.089636625722051">
        <ele>1557.73</ele>
        <time>2025-11-23T12:40:58Z</time>
      </trkpt>
      <trkpt lat="46.087111718952656" lon="9.089694460853934">
        <ele>1557.8499999999999</ele>
        <time>2025-11-23T12:41:10Z</time>
      </trkpt>
      <trkpt lat="46.087111718952656" lon="9.089694460853934">
        <ele>1557.8</ele>
        <time>2025-11-23T12:41:21Z</time>
      </trkpt>
      <trkpt lat="46.087111718952656" lon="9.089694460853934">
        <ele>1557.8</ele>
        <time>2025-11-23T12:41:32Z</time>
      </trkpt>
      <trkpt lat="46.087536178529263" lon="9.089873498305678">
        <ele>1558.0999999999999</ele>
        <time>2025-11-23T12:41:57Z</time>
      </trkpt>
      <trkpt lat="46.087278099730611" lon="9.089822703972459">
        <ele>1557.8199999999999</ele>
        <time>2025-11-23T12:42:18Z</time>
      </trkpt>
      <trkpt lat="46.087301904335618" lon="9.089814322069287">
        <ele>1558.1400000000001</ele>
        <time>2025-11-23T12:42:50Z</time>
      </trkpt>
      <trkpt lat="46.086967382580042" lon="9.089694879949093">
        <ele>1557.8900000000001</ele>
        <time>2025-11-23T12:46:10Z</time>
      </trkpt>
      <trkpt lat="46.086933184415102" lon="9.089602427557111">
        <ele>1557.8299999999999</ele>
        <time>2025-11-23T12:46:24Z</time>
      </trkpt>
      <trkpt lat="46.086908373981714" lon="9.089572336524725">
        <ele>1557.3699999999999</ele>
        <time>2025-11-23T12:46:38Z</time>
      </trkpt>
      <trkpt lat="46.086908373981714" lon="9.089572336524725">
        <ele>1557.77</ele>
        <time>2025-11-23T12:46:52Z</time>
      </trkpt>
      <trkpt lat="46.086420463398099" lon="9.089306211099029">
        <ele>1557.5899999999999</ele>
        <time>2025-11-23T12:47:45Z</time>
      </trkpt>
      <trkpt lat="46.086611151695251" lon="9.08979537896812">
        <ele>1557.75</ele>
        <time>2025-11-23T12:48:15Z</time>
      </trkpt>
      <trkpt lat="46.087113311514258" lon="9.089740309864283">
        <ele>1557.74</ele>
        <time>2025-11-23T12:48:50Z</time>
      </trkpt>
      <trkpt lat="46.087019518017769" lon="9.089610390365124">
        <ele>1557.73</ele>
        <time>2025-11-23T12:49:14Z</time>
      </trkpt>
      <trkpt lat="46.086939806118608" lon="9.089560434222221">
        <ele>1557.78</ele>
        <time>2025-11-23T12:49:57Z</time>
      </trkpt>
      <trkpt lat="46.08697316609323" lon="9.089391455054283">
        <ele>1557.76</ele>
        <time>2025-11-23T12:50:12Z</time>
      </trkpt>
      <trkpt lat="46.087082969024777" lon="9.089763863012195">
        <ele>1558.3199999999999</ele>
        <time>2025-11-23T12:50:34Z</time>
      </trkpt>
      <trkpt lat="46.087249433621764" lon="9.089695885777473">
        <ele>1558.3699999999999</ele>
        <time>2025-11-23T12:50:51Z</time>
      </trkpt>
      <trkpt lat="46.087244153022766" lon="9.089689347893">
        <ele>1558.0899999999999</ele>
        <time>2025-11-23T12:51:07Z</time>
      </trkpt>
      <trkpt lat="46.087013063952327" lon="9.089611563831568">
        <ele>1558.27</ele>
        <time>2025-11-23T12:51:31Z</time>
      </trkpt>
      <trkpt lat="46.087013063952327" lon="9.089611563831568">
        <ele>1558.4300000000001</ele>
        <time>2025-11-23T12:51:47Z</time>
      </trkpt>
      <trkpt lat="46.086810640990734" lon="9.089504526928067">
        <ele>1558.3800000000001</ele>
        <time>2025-11-23T12:52:18Z</time>
      </trkpt>
      <trkpt lat="46.086841821670532" lon="9.089525146409869">
        <ele>1558.1700000000001</ele>
        <time>2025-11-23T12:52:33Z</time>
      </trkpt>
      <trkpt lat="46.086972830817103" lon="9.089575773105025">
        <ele>1558.1500000000001</ele>
        <time>2025-11-23T12:53:04Z</time>
      </trkpt>
      <trkpt lat="46.086845509707928" lon="9.089605361223221">
        <ele>1557.8399999999999</ele>
        <time>2025-11-23T12:53:25Z</time>
      </trkpt>
      <trkpt lat="46.086635207757354" lon="9.089553309604526">
        <ele>1558.01</ele>
        <time>2025-11-23T12:53:53Z</time>
      </trkpt>
      <trkpt lat="46.086826231330633" lon="9.089591195806861">
        <ele>1557.9100000000001</ele>
        <time>2025-11-23T12:54:19Z</time>
      </trkpt>
      <trkpt lat="46.086908122524619" lon="9.089595135301352">
        <ele>1558.3099999999999</ele>
        <time>2025-11-23T12:54:42Z</time>
      </trkpt>
      <trkpt lat="46.087180702015758" lon="9.089732598513365">
        <ele>1558.3299999999999</ele>
        <time>2025-11-23T12:55:13Z</time>
      </trkpt>
      <trkpt lat="46.087205596268177" lon="9.089798228815198">
        <ele>1558.29</ele>
        <time>2025-11-23T12:55:29Z</time>
      </trkpt>
      <trkpt lat="46.08701323159039" lon="9.08966202288866">
        <ele>1558.1800000000001</ele>
        <time>2025-11-23T12:55:53Z</time>
      </trkpt>
      <trkpt lat="46.086983643472195" lon="9.089635703712702">
        <ele>1558.2</ele>
        <time>2025-11-23T12:56:11Z</time>
      </trkpt>
      <trkpt lat="46.087375329807401" lon="9.089917754754424">
        <ele>1558.1900000000001</ele>
        <time>2025-11-23T12:56:50Z</time>
      </trkpt>
      <trkpt lat="46.087248846888542" lon="9.089821111410856">
        <ele>1558.0599999999999</ele>
        <time>2025-11-23T12:57:11Z</time>
      </trkpt>
      <trkpt lat="46.087108366191387" lon="9.089714912697673">
        <ele>1557.9000000000001</ele>
        <time>2025-11-23T12:57:32Z</time>
      </trkpt>
      <trkpt lat="46.087082214653492" lon="9.089635284617543">
        <ele>1557.99</ele>
        <time>2025-11-23T12:57:54Z</time>
      </trkpt>
      <trkpt lat="46.087055141106248" lon="9.089547693729401">
        <ele>1558.1900000000001</ele>
        <time>2025-11-23T12:58:12Z</time>
      </trkpt>
      <trkpt lat="46.087058745324612" lon="9.089579628780484">
        <ele>1558.6800000000001</ele>
        <time>2025-11-23T12:58:31Z</time>
      </trkpt>
      <trkpt lat="46.087074000388384" lon="9.08973335288465">
        <ele>1558.51</ele>
        <time>2025-11-23T12:58:44Z</time>
      </trkpt>
      <trkpt lat="46.087125632911921" lon="9.089726395905018">
        <ele>1558.45</ele>
        <time>2025-11-23T12:59:06Z</time>
      </trkpt>
      <trkpt lat="46.087169637903571" lon="9.089702256023884">
        <ele>1558.3199999999999</ele>
        <time>2025-11-23T12:59:37Z</time>
      </trkpt>
      <trkpt lat="46.087080789729953" lon="9.089642660692334">
        <ele>1558.55</ele>
        <time>2025-11-23T13:00:04Z</time>
      </trkpt>
      <trkpt lat="46.087058242410421" lon="9.089601757004857">
        <ele>1558.27</ele>
        <time>2025-11-23T13:00:20Z</time>
      </trkpt>
      <trkpt lat="46.087059080600739" lon="9.089678367599845">
        <ele>1558.4000000000001</ele>
        <time>2025-11-23T13:00:40Z</time>
      </trkpt>
      <trkpt lat="46.087108198553324" lon="9.08965858630836">
        <ele>1558.3800000000001</ele>
        <time>2025-11-23T13:01:02Z</time>
      </trkpt>
      <trkpt lat="46.086964951828122" lon="9.089614413678646">
        <ele>1558.05</ele>
        <time>2025-11-23T13:01:24Z</time>
      </trkpt>
      <trkpt lat="46.087027732282877" lon="9.08967861905694">
        <ele>1558.22</ele>
        <time>2025-11-23T13:01:44Z</time>
      </trkpt>
      <trkpt lat="46.086983308196068" lon="9.089690437540412">
        <ele>1558.3299999999999</ele>
        <time>2025-11-23T13:02:00Z</time>
      </trkpt>
      <trkpt lat="46.086913822218776" lon="9.089666968211532">
        <ele>1558.3699999999999</ele>
        <time>2025-11-23T13:02:17Z</time>
      </trkpt>
      <trkpt lat="46.087143402546644" lon="9.089682726189494">
        <ele>1558.52</ele>
        <time>2025-11-23T13:03:12Z</time>
      </trkpt>
      <trkpt lat="46.087215319275856" lon="9.089638972654939">
        <ele>1558.4400000000001</ele>
        <time>2025-11-23T13:03:29Z</time>
      </trkpt>
      <trkpt lat="46.087096380069852" lon="9.089771909639239">
        <ele>1558.25</ele>
        <time>2025-11-23T13:03:58Z</time>
      </trkpt>
      <trkpt lat="46.08707383275032" lon="9.089779788628221">
        <ele>1558.29</ele>
        <time>2025-11-23T13:04:16Z</time>
      </trkpt>
      <trkpt lat="46.086883898824453" lon="9.0895667206496">
        <ele>1558.25</ele>
        <time>2025-11-23T13:04:44Z</time>
      </trkpt>
      <trkpt lat="46.086922707036138" lon="9.089599577710033">
        <ele>1558.22</ele>
        <time>2025-11-23T13:05:07Z</time>
      </trkpt>
      <trkpt lat="46.086840396746993" lon="9.089564541354775">
        <ele>1558.0899999999999</ele>
        <time>2025-11-23T13:05:25Z</time>
      </trkpt>
      <trkpt lat="46.086877528578043" lon="9.089618856087327">
        <ele>1558.3800000000001</ele>
        <time>2025-11-23T13:05:45Z</time>
      </trkpt>
      <trkpt lat="46.08699562959373" lon="9.089707201346755">
        <ele>1558.3499999999999</ele>
        <time>2025-11-23T13:06:01Z</time>
      </trkpt>
      <trkpt lat="46.086949780583382" lon="9.089692700654268">
        <ele>1558.4000000000001</ele>
        <time>2025-11-23T13:06:23Z</time>
      </trkpt>
      <trkpt lat="46.087079867720604" lon="9.089804347604513">
        <ele>1557.5699999999999</ele>
        <time>2025-11-23T13:06:43Z</time>
      </trkpt>
      <trkpt lat="46.087062517181039" lon="9.089797977358103">
        <ele>1557.8299999999999</ele>
        <time>2025-11-23T13:07:03Z</time>
      </trkpt>
      <trkpt lat="46.087124459445477" lon="9.089732430875301">
        <ele>1557.75</ele>
        <time>2025-11-23T13:07:24Z</time>
      </trkpt>
      <trkpt lat="46.087035443633795" lon="9.089673589915037">
        <ele>1557.8599999999999</ele>
        <time>2025-11-23T13:07:43Z</time>
      </trkpt>
      <trkpt lat="46.087215319275856" lon="9.089882550761104">
        <ele>1557.24</ele>
        <time>2025-11-23T13:08:07Z</time>
      </trkpt>
      <trkpt lat="46.08719989657402" lon="9.090004339814186">
        <ele>1557.6600000000001</ele>
        <time>2025-11-23T13:08:28Z</time>
      </trkpt>
      <trkpt lat="46.087318081408739" lon="9.089927729219198">
        <ele>1557.28</ele>
        <time>2025-11-23T13:09:05Z</time>
      </trkpt>
      <trkpt lat="46.087648160755634" lon="9.090508930385113">
        <ele>1556.9000000000001</ele>
        <time>2025-11-23T13:10:06Z</time>
      </trkpt>
      <trkpt lat="46.087312716990709" lon="9.089870564639568">
        <ele>1556.9400000000001</ele>
        <time>2025-11-23T13:10:41Z</time>
      </trkpt>
      <trkpt lat="46.087312716990709" lon="9.089870564639568">
        <ele>1557.05</ele>
        <time>2025-11-23T13:11:01Z</time>
      </trkpt>
      <trkpt lat="46.087312716990709" lon="9.089870564639568">
        <ele>1557.1900000000001</ele>
        <time>2025-11-23T13:11:08Z</time>
      </trkpt>
      <trkpt lat="46.086564045399427" lon="9.089316688477993">
        <ele>1557.3</ele>
        <time>2025-11-23T13:11:14Z</time>
      </trkpt>
      <trkpt lat="46.087370133027434" lon="9.089968129992485">
        <ele>1557.8299999999999</ele>
        <time>2025-11-23T13:13:05Z</time>
      </trkpt>
      <trkpt lat="46.087718401104212" lon="9.091131119057536">
        <ele>1557.6700000000001</ele>
        <time>2025-11-23T13:13:36Z</time>
      </trkpt>
      <trkpt lat="46.086544180288911" lon="9.08911133185029">
        <ele>1557.6800000000001</ele>
        <time>2025-11-23T13:14:57Z</time>
      </trkpt>
      <trkpt lat="46.087044160813093" lon="9.089415511116386">
        <ele>1557.54</ele>
        <time>2025-11-23T13:16:42Z</time>
      </trkpt>
      <trkpt lat="46.086941063404083" lon="9.089448787271977">
        <ele>1557.3399999999999</ele>
        <time>2025-11-23T13:17:05Z</time>
      </trkpt>
      <trkpt lat="46.087291929870844" lon="9.089823206886649">
        <ele>1557.3800000000001</ele>
        <time>2025-11-23T13:17:39Z</time>
      </trkpt>
      <trkpt lat="46.087252283468843" lon="9.089512154459953">
        <ele>1557.3</ele>
        <time>2025-11-23T13:18:07Z</time>
      </trkpt>
      <trkpt lat="46.087288744747639" lon="9.089566301554442">
        <ele>1557.1500000000001</ele>
        <time>2025-11-23T13:18:35Z</time>
      </trkpt>
      <trkpt lat="46.087041813880205" lon="9.089737040922046">
        <ele>1557.0799999999999</ele>
        <time>2025-11-23T13:19:03Z</time>
      </trkpt>
      <trkpt lat="46.087141558527946" lon="9.089722037315369">
        <ele>1557.1099999999999</ele>
        <time>2025-11-23T13:20:04Z</time>
      </trkpt>
      <trkpt lat="46.087126303464174" lon="9.089748691767454">
        <ele>1557</ele>
        <time>2025-11-23T13:20:28Z</time>
      </trkpt>
      <trkpt lat="46.087071653455496" lon="9.089732514694333">
        <ele>1556.8399999999999</ele>
        <time>2025-11-23T13:20:52Z</time>
      </trkpt>
      <trkpt lat="46.087111467495561" lon="9.089836701750755">
        <ele>1556.6300000000001</ele>
        <time>2025-11-23T13:21:06Z</time>
      </trkpt>
      <trkpt lat="46.087187239900231" lon="9.089857656508684">
        <ele>1556.71</ele>
        <time>2025-11-23T13:21:27Z</time>
      </trkpt>
      <trkpt lat="46.087166955694556" lon="9.089803593233228">
        <ele>1556.3099999999999</ele>
        <time>2025-11-23T13:21:48Z</time>
      </trkpt>
      <trkpt lat="46.087102079764009" lon="9.08980124630034">
        <ele>1556.1600000000001</ele>
        <time>2025-11-23T13:22:03Z</time>
      </trkpt>
      <trkpt lat="46.087111886590719" lon="9.089861679822207">
        <ele>1556.1099999999999</ele>
        <time>2025-11-23T13:22:25Z</time>
      </trkpt>
      <trkpt lat="46.087112054228783" lon="9.089703680947423">
        <ele>1556.0699999999999</ele>
        <time>2025-11-23T13:22:37Z</time>
      </trkpt>
      <trkpt lat="46.087028067559004" lon="9.089686162769795">
        <ele>1556.05</ele>
        <time>2025-11-23T13:23:12Z</time>
      </trkpt>
      <trkpt lat="46.087116077542305" lon="9.089700244367123">
        <ele>1555.8800000000001</ele>
        <time>2025-11-23T13:23:24Z</time>
      </trkpt>
      <trkpt lat="46.087157148867846" lon="9.089753301814199">
        <ele>1555.75</ele>
        <time>2025-11-23T13:23:45Z</time>
      </trkpt>
      <trkpt lat="46.087152790278196" lon="9.089718433097005">
        <ele>1555.6600000000001</ele>
        <time>2025-11-23T13:24:05Z</time>
      </trkpt>
      <trkpt lat="46.087165111675858" lon="9.089839216321707">
        <ele>1555.52</ele>
        <time>2025-11-23T13:24:20Z</time>
      </trkpt>
      <trkpt lat="46.087158406153321" lon="9.089802922680974">
        <ele>1555.5699999999999</ele>
        <time>2025-11-23T13:24:36Z</time>
      </trkpt>
      <trkpt lat="46.087121358141303" lon="9.089761851355434">
        <ele>1555.78</ele>
        <time>2025-11-23T13:24:53Z</time>
      </trkpt>
      <trkpt lat="46.087150443345308" lon="9.089667722582817">
        <ele>1555.53</ele>
        <time>2025-11-23T13:25:10Z</time>
      </trkpt>
      <trkpt lat="46.087196208536625" lon="9.089645426720381">
        <ele>1555.54</ele>
        <time>2025-11-23T13:25:29Z</time>
      </trkpt>
      <trkpt lat="46.08730735257268" lon="9.08976512029767">
        <ele>1555.3399999999999</ele>
        <time>2025-11-23T13:25:48Z</time>
      </trkpt>
      <trkpt lat="46.087229652330279" lon="9.089817004278302">
        <ele>1555.47</ele>
        <time>2025-11-23T13:26:03Z</time>
      </trkpt>
      <trkpt lat="46.087074084207416" lon="9.089734693989158">
        <ele>1555.52</ele>
        <time>2025-11-23T13:26:24Z</time>
      </trkpt>
      <trkpt lat="46.087100319564342" lon="9.089734274893999">
        <ele>1555.45</ele>
        <time>2025-11-23T13:26:43Z</time>
      </trkpt>
      <trkpt lat="46.087078275159001" lon="9.089760174974799">
        <ele>1555.3599999999999</ele>
        <time>2025-11-23T13:27:07Z</time>
      </trkpt>
      <trkpt lat="46.087131667882204" lon="9.08983058296144">
        <ele>1555.51</ele>
        <time>2025-11-23T13:27:26Z</time>
      </trkpt>
      <trkpt lat="46.087100654840469" lon="9.089807448908687">
        <ele>1555.3199999999999</ele>
        <time>2025-11-23T13:27:40Z</time>
      </trkpt>
      <trkpt lat="46.087065953761339" lon="9.089764282107353">
        <ele>1555.3399999999999</ele>
        <time>2025-11-23T13:28:12Z</time>
      </trkpt>
      <trkpt lat="46.087094619870186" lon="9.089733688160777">
        <ele>1555.0999999999999</ele>
        <time>2025-11-23T13:28:36Z</time>
      </trkpt>
      <trkpt lat="46.087024547159672" lon="9.08968498930335">
        <ele>1555.1600000000001</ele>
        <time>2025-11-23T13:28:57Z</time>
      </trkpt>
      <trkpt lat="46.087029492482543" lon="9.089673422276974">
        <ele>1555.1099999999999</ele>
        <time>2025-11-23T13:29:28Z</time>
      </trkpt>
      <trkpt lat="46.087106103077531" lon="9.089725473895669">
        <ele>1555.0599999999999</ele>
        <time>2025-11-23T13:29:58Z</time>
      </trkpt>
      <trkpt lat="46.087156981229782" lon="9.089822368696332">
        <ele>1555.0899999999999</ele>
        <time>2025-11-23T13:30:18Z</time>
      </trkpt>
      <trkpt lat="46.087260078638792" lon="9.089837037026882">
        <ele>1555.4000000000001</ele>
        <time>2025-11-23T13:30:35Z</time>
      </trkpt>
      <trkpt lat="46.087230490520597" lon="9.089889172464609">
        <ele>1555.02</ele>
        <time>2025-11-23T13:30:54Z</time>
      </trkpt>
      <trkpt lat="46.087151113897562" lon="9.089735029265285">
        <ele>1555.03</ele>
        <time>2025-11-23T13:31:16Z</time>
      </trkpt>
      <trkpt lat="46.087315147742629" lon="9.089817423373461">
        <ele>1554.8</ele>
        <time>2025-11-23T13:31:38Z</time>
      </trkpt>
      <trkpt lat="46.087143654003739" lon="9.08977241255343">
        <ele>1555.3699999999999</ele>
        <time>2025-11-23T13:32:05Z</time>
      </trkpt>
      <trkpt lat="46.08701909892261" lon="9.089714745059609">
        <ele>1555</ele>
        <time>2025-11-23T13:32:31Z</time>
      </trkpt>
      <trkpt lat="46.086922623217106" lon="9.089745841920376">
        <ele>1555.4100000000001</ele>
        <time>2025-11-23T13:37:33Z</time>
      </trkpt>
      <trkpt lat="46.086824974045157" lon="9.089707955718041">
        <ele>1553.6199999999999</ele>
        <time>2025-11-23T13:37:49Z</time>
      </trkpt>
      <trkpt lat="46.08673763461411" lon="9.089652383700013">
        <ele>1551.8699999999999</ele>
        <time>2025-11-23T13:37:57Z</time>
      </trkpt>
      <trkpt lat="46.08664920553565" lon="9.089622292667627">
        <ele>1550.8900000000001</ele>
        <time>2025-11-23T13:38:06Z</time>
      </trkpt>
      <trkpt lat="46.086552143096924" lon="9.089596979320049">
        <ele>1550.03</ele>
        <time>2025-11-23T13:38:15Z</time>
      </trkpt>
      <trkpt lat="46.086461031809449" lon="9.089581556618214">
        <ele>1548.53</ele>
        <time>2025-11-23T13:38:24Z</time>
      </trkpt>
      <trkpt lat="46.086371513083577" lon="9.089536126703024">
        <ele>1546.8299999999999</ele>
        <time>2025-11-23T13:38:32Z</time>
      </trkpt>
      <trkpt lat="46.086288196966052" lon="9.089489271864295">
        <ele>1545.73</ele>
        <time>2025-11-23T13:38:40Z</time>
      </trkpt>
      <trkpt lat="46.086198594421148" lon="9.089479884132743">
        <ele>1544.54</ele>
        <time>2025-11-23T13:38:48Z</time>
      </trkpt>
      <trkpt lat="46.086134724318981" lon="9.089387515559793">
        <ele>1543.0699999999999</ele>
        <time>2025-11-23T13:38:56Z</time>
      </trkpt>
      <trkpt lat="46.08607311733067" lon="9.089269414544106">
        <ele>1541.97</ele>
        <time>2025-11-23T13:39:05Z</time>
      </trkpt>
      <trkpt lat="46.086054090410471" lon="9.089171681553125">
        <ele>1540.52</ele>
        <time>2025-11-23T13:39:13Z</time>
      </trkpt>
      <trkpt lat="46.086155343800783" lon="9.089158186689019">
        <ele>1539.2</ele>
        <time>2025-11-23T13:39:40Z</time>
      </trkpt>
      <trkpt lat="46.086215022951365" lon="9.089071182534099">
        <ele>1538.05</ele>
        <time>2025-11-23T13:39:49Z</time>
      </trkpt>
      <trkpt lat="46.086275540292263" lon="9.088967079296708">
        <ele>1535.77</ele>
        <time>2025-11-23T13:39:57Z</time>
      </trkpt>
      <trkpt lat="46.086340751498938" lon="9.088870016857982">
        <ele>1534.0899999999999</ele>
        <time>2025-11-23T13:40:05Z</time>
      </trkpt>
      <trkpt lat="46.086390959098935" lon="9.088759291917086">
        <ele>1532.8199999999999</ele>
        <time>2025-11-23T13:40:13Z</time>
      </trkpt>
      <trkpt lat="46.086437730118632" lon="9.088633814826608">
        <ele>1530.55</ele>
        <time>2025-11-23T13:40:23Z</time>
      </trkpt>
      <trkpt lat="46.086471593007445" lon="9.088509762659669">
        <ele>1528.46</ele>
        <time>2025-11-23T13:40:31Z</time>
      </trkpt>
      <trkpt lat="46.086501181125641" lon="9.088382525369525">
        <ele>1526.3800000000001</ele>
        <time>2025-11-23T13:40:39Z</time>
      </trkpt>
      <trkpt lat="46.086541078984737" lon="9.088263837620616">
        <ele>1524.8599999999999</ele>
        <time>2025-11-23T13:40:47Z</time>
      </trkpt>
      <trkpt lat="46.086624814197421" lon="9.088189238682389">
        <ele>1522.24</ele>
        <time>2025-11-23T13:40:56Z</time>
      </trkpt>
      <trkpt lat="46.086719278246164" lon="9.088171888142824">
        <ele>1520.1500000000001</ele>
        <time>2025-11-23T13:41:05Z</time>
      </trkpt>
      <trkpt lat="46.086740735918283" lon="9.088079268112779">
        <ele>1518.47</ele>
        <time>2025-11-23T13:41:14Z</time>
      </trkpt>
      <trkpt lat="46.086697317659855" lon="9.087960412725806">
        <ele>1515.47</ele>
        <time>2025-11-23T13:41:24Z</time>
      </trkpt>
      <trkpt lat="46.086643673479557" lon="9.087850358337164">
        <ele>1513.1800000000001</ele>
        <time>2025-11-23T13:41:34Z</time>
      </trkpt>
      <trkpt lat="46.086584581062198" lon="9.087752122431994">
        <ele>1510.8800000000001</ele>
        <time>2025-11-23T13:41:44Z</time>
      </trkpt>
      <trkpt lat="46.08650553971529" lon="9.087686073035002">
        <ele>1508.5999999999999</ele>
        <time>2025-11-23T13:41:55Z</time>
      </trkpt>
      <trkpt lat="46.086412081494927" lon="9.087702250108123">
        <ele>1505.99</ele>
        <time>2025-11-23T13:42:05Z</time>
      </trkpt>
      <trkpt lat="46.086390875279903" lon="9.087600326165557">
        <ele>1504.24</ele>
        <time>2025-11-23T13:42:15Z</time>
      </trkpt>
      <trkpt lat="46.086447788402438" lon="9.087490187957883">
        <ele>1501.74</ele>
        <time>2025-11-23T13:42:26Z</time>
      </trkpt>
      <trkpt lat="46.08653487637639" lon="9.087428664788604">
        <ele>1500.3499999999999</ele>
        <time>2025-11-23T13:42:36Z</time>
      </trkpt>
      <trkpt lat="46.086635459214449" lon="9.087420953437686">
        <ele>1499.04</ele>
        <time>2025-11-23T13:42:47Z</time>
      </trkpt>
      <trkpt lat="46.086729168891907" lon="9.087401339784265">
        <ele>1495.8599999999999</ele>
        <time>2025-11-23T13:42:57Z</time>
      </trkpt>
      <trkpt lat="46.086822208017111" lon="9.087427239865065">
        <ele>1494.4400000000001</ele>
        <time>2025-11-23T13:43:06Z</time>
      </trkpt>
      <trkpt lat="46.086911894381046" lon="9.087458420544863">
        <ele>1493.23</ele>
        <time>2025-11-23T13:43:15Z</time>
      </trkpt>
      <trkpt lat="46.087008537724614" lon="9.087476693093777">
        <ele>1492.8399999999999</ele>
        <time>2025-11-23T13:43:24Z</time>
      </trkpt>
      <trkpt lat="46.087073246017098" lon="9.087527738884091">
        <ele>1490.3699999999999</ele>
        <time>2025-11-23T13:43:36Z</time>
      </trkpt>
      <trkpt lat="46.087144995108247" lon="9.087599655613303">
        <ele>1488.51</ele>
        <time>2025-11-23T13:43:54Z</time>
      </trkpt>
      <trkpt lat="46.087219007313251" lon="9.087598901242018">
        <ele>1488.6199999999999</ele>
        <time>2025-11-23T13:44:04Z</time>
      </trkpt>
      <trkpt lat="46.087279776111245" lon="9.087496725842357">
        <ele>1489.3099999999999</ele>
        <time>2025-11-23T13:44:14Z</time>
      </trkpt>
      <trkpt lat="46.087278686463833" lon="9.087352138012648">
        <ele>1490.03</ele>
        <time>2025-11-23T13:44:33Z</time>
      </trkpt>
      <trkpt lat="46.087222779169679" lon="9.087247867137194">
        <ele>1490.03</ele>
        <time>2025-11-23T13:44:56Z</time>
      </trkpt>
      <trkpt lat="46.087230825796723" lon="9.087109481915832">
        <ele>1489</ele>
        <time>2025-11-23T13:45:04Z</time>
      </trkpt>
      <trkpt lat="46.08725605532527" lon="9.086969923228025">
        <ele>1486.5599999999999</ele>
        <time>2025-11-23T13:45:13Z</time>
      </trkpt>
      <trkpt lat="46.087279189378023" lon="9.086822653189302">
        <ele>1484.53</ele>
        <time>2025-11-23T13:45:24Z</time>
      </trkpt>
      <trkpt lat="46.087301317602396" lon="9.086667001247406">
        <ele>1482.3399999999999</ele>
        <time>2025-11-23T13:45:36Z</time>
      </trkpt>
      <trkpt lat="46.087317997589707" lon="9.086512271314859">
        <ele>1479.7</ele>
        <time>2025-11-23T13:45:48Z</time>
      </trkpt>
      <trkpt lat="46.087395697832108" lon="9.086413029581308">
        <ele>1476.7</ele>
        <time>2025-11-23T13:46:01Z</time>
      </trkpt>
      <trkpt lat="46.087497537955642" lon="9.086352093145251">
        <ele>1473.9400000000001</ele>
        <time>2025-11-23T13:46:14Z</time>
      </trkpt>
      <trkpt lat="46.087601222097874" lon="9.086375143378973">
        <ele>1471.5799999999999</ele>
        <time>2025-11-23T13:46:27Z</time>
      </trkpt>
      <trkpt lat="46.087719239294529" lon="9.086407665163279">
        <ele>1468.6500000000001</ele>
        <time>2025-11-23T13:46:42Z</time>
      </trkpt>
      <trkpt lat="46.087832562625408" lon="9.086405904963613">
        <ele>1466.3099999999999</ele>
        <time>2025-11-23T13:46:53Z</time>
      </trkpt>
      <trkpt lat="46.087928619235754" lon="9.086422249674797">
        <ele>1463.96</ele>
        <time>2025-11-23T13:47:03Z</time>
      </trkpt>
      <trkpt lat="46.087993746623397" lon="9.086347986012697">
        <ele>1462.72</ele>
        <time>2025-11-23T13:47:15Z</time>
      </trkpt>
      <trkpt lat="46.087970361113548" lon="9.086217982694507">
        <ele>1460.8199999999999</ele>
        <time>2025-11-23T13:47:29Z</time>
      </trkpt>
      <trkpt lat="46.087862402200699" lon="9.086128044873476">
        <ele>1459.47</ele>
        <time>2025-11-23T13:47:44Z</time>
      </trkpt>
      <trkpt lat="46.087791575118899" lon="9.086010530591011">
        <ele>1458.78</ele>
        <time>2025-11-23T13:47:55Z</time>
      </trkpt>
      <trkpt lat="46.087741535156965" lon="9.085859321057797">
        <ele>1458.26</ele>
        <time>2025-11-23T13:48:06Z</time>
      </trkpt>
      <trkpt lat="46.087718149647117" lon="9.085706351324916">
        <ele>1456.77</ele>
        <time>2025-11-23T13:48:16Z</time>
      </trkpt>
      <trkpt lat="46.087718233466148" lon="9.085560254752636">
        <ele>1454.4100000000001</ele>
        <time>2025-11-23T13:48:29Z</time>
      </trkpt>
      <trkpt lat="46.08772468753159" lon="9.085414241999388">
        <ele>1452.55</ele>
        <time>2025-11-23T13:48:39Z</time>
      </trkpt>
      <trkpt lat="46.087721586227417" lon="9.085281556472182">
        <ele>1451.0899999999999</ele>
        <time>2025-11-23T13:48:50Z</time>
      </trkpt>
      <trkpt lat="46.087726447731256" lon="9.085140824317932">
        <ele>1449.5899999999999</ele>
        <time>2025-11-23T13:49:01Z</time>
      </trkpt>
      <trkpt lat="46.08774178661406" lon="9.085009479895234">
        <ele>1447.5599999999999</ele>
        <time>2025-11-23T13:49:10Z</time>
      </trkpt>
      <trkpt lat="46.087798280641437" lon="9.084899257868528">
        <ele>1445.9300000000001</ele>
        <time>2025-11-23T13:49:20Z</time>
      </trkpt>
      <trkpt lat="46.087860558182001" lon="9.084791550412774">
        <ele>1443.49</ele>
        <time>2025-11-23T13:49:30Z</time>
      </trkpt>
      <trkpt lat="46.087929457426071" lon="9.084695326164365">
        <ele>1441.22</ele>
        <time>2025-11-23T13:49:41Z</time>
      </trkpt>
      <trkpt lat="46.087994752451777" lon="9.084611590951681">
        <ele>1438.5899999999999</ele>
        <time>2025-11-23T13:49:53Z</time>
      </trkpt>
      <trkpt lat="46.088075302541256" lon="9.084556018933654">
        <ele>1437.52</ele>
        <time>2025-11-23T13:51:14Z</time>
      </trkpt>
      <trkpt lat="46.08803590759635" lon="9.084444623440504">
        <ele>1434.95</ele>
        <time>2025-11-23T13:52:20Z</time>
      </trkpt>
      <trkpt lat="46.088006487116218" lon="9.084307411685586">
        <ele>1433.48</ele>
        <time>2025-11-23T13:52:30Z</time>
      </trkpt>
      <trkpt lat="46.087993746623397" lon="9.084169613197446">
        <ele>1430.71</ele>
        <time>2025-11-23T13:52:40Z</time>
      </trkpt>
      <trkpt lat="46.087966253980994" lon="9.084044303745031">
        <ele>1428.6199999999999</ele>
        <time>2025-11-23T13:52:52Z</time>
      </trkpt>
      <trkpt lat="46.087935492396355" lon="9.08391572535038">
        <ele>1425.75</ele>
        <time>2025-11-23T13:53:04Z</time>
      </trkpt>
      <trkpt lat="46.087984861806035" lon="9.083801563829184">
        <ele>1423.6199999999999</ele>
        <time>2025-11-23T13:53:15Z</time>
      </trkpt>
      <trkpt lat="46.088067423552275" lon="9.083794606849551">
        <ele>1421.8299999999999</ele>
        <time>2025-11-23T13:53:25Z</time>
      </trkpt>
      <trkpt lat="46.088141435757279" lon="9.083709614351392">
        <ele>1421.0899999999999</ele>
        <time>2025-11-23T13:53:35Z</time>
      </trkpt>
      <trkpt lat="46.088186027482152" lon="9.083595536649227">
        <ele>1419.6600000000001</ele>
        <time>2025-11-23T13:53:44Z</time>
      </trkpt>
      <trkpt lat="46.088211759924889" lon="9.083472741767764">
        <ele>1418.54</ele>
        <time>2025-11-23T13:53:53Z</time>
      </trkpt>
      <trkpt lat="46.088208071887493" lon="9.083338044583798">
        <ele>1416.3099999999999</ele>
        <time>2025-11-23T13:54:03Z</time>
      </trkpt>
      <trkpt lat="46.088206814602017" lon="9.083199575543404">
        <ele>1414.3299999999999</ele>
        <time>2025-11-23T13:54:13Z</time>
      </trkpt>
      <trkpt lat="46.088230619207025" lon="9.083074769005179">
        <ele>1412.6800000000001</ele>
        <time>2025-11-23T13:54:22Z</time>
      </trkpt>
      <trkpt lat="46.088288286700845" lon="9.082967396825552">
        <ele>1411.26</ele>
        <time>2025-11-23T13:54:31Z</time>
      </trkpt>
      <trkpt lat="46.088312594220042" lon="9.082847284153104">
        <ele>1409.6800000000001</ele>
        <time>2025-11-23T13:54:41Z</time>
      </trkpt>
      <trkpt lat="46.088308654725552" lon="9.08270881511271">
        <ele>1407.8900000000001</ele>
        <time>2025-11-23T13:54:51Z</time>
      </trkpt>
      <trkpt lat="46.088331285864115" lon="9.082573363557458">
        <ele>1406.22</ele>
        <time>2025-11-23T13:55:01Z</time>
      </trkpt>
      <trkpt lat="46.088369591161609" lon="9.082454759627581">
        <ele>1405.1099999999999</ele>
        <time>2025-11-23T13:55:10Z</time>
      </trkpt>
      <trkpt lat="46.088428180664778" lon="9.082341436296701">
        <ele>1403.72</ele>
        <time>2025-11-23T13:55:19Z</time>
      </trkpt>
      <trkpt lat="46.088513089343905" lon="9.082276811823249">
        <ele>1402.8099999999999</ele>
        <time>2025-11-23T13:55:30Z</time>
      </trkpt>
      <trkpt lat="46.088506802916527" lon="9.082134403288364">
        <ele>1400.4200000000001</ele>
        <time>2025-11-23T13:55:45Z</time>
      </trkpt>
      <trkpt lat="46.088586263358593" lon="9.081999873742461">
        <ele>1398.46</ele>
        <time>2025-11-23T13:55:59Z</time>
      </trkpt>
      <trkpt lat="46.088648037984967" lon="9.081877581775188">
        <ele>1396.47</ele>
        <time>2025-11-23T13:56:12Z</time>
      </trkpt>
      <trkpt lat="46.088662790134549" lon="9.081736179068685">
        <ele>1393.99</ele>
        <time>2025-11-23T13:56:26Z</time>
      </trkpt>
      <trkpt lat="46.088710147887468" lon="9.081582371145487">
        <ele>1391.9300000000001</ele>
        <time>2025-11-23T13:56:39Z</time>
      </trkpt>
      <trkpt lat="46.088731270283461" lon="9.081401489675045">
        <ele>1389.5599999999999</ele>
        <time>2025-11-23T13:56:51Z</time>
      </trkpt>
      <trkpt lat="46.088769994676113" lon="9.081267295405269">
        <ele>1387.4400000000001</ele>
        <time>2025-11-23T13:57:03Z</time>
      </trkpt>
      <trkpt lat="46.088856998831034" lon="9.081147518008947">
        <ele>1384.8599999999999</ele>
        <time>2025-11-23T13:57:17Z</time>
      </trkpt>
      <trkpt lat="46.088926233351231" lon="9.08103670924902">
        <ele>1381.98</ele>
        <time>2025-11-23T13:57:29Z</time>
      </trkpt>
      <trkpt lat="46.088964035734534" lon="9.08088474534452">
        <ele>1379.28</ele>
        <time>2025-11-23T13:57:44Z</time>
      </trkpt>
      <trkpt lat="46.088986834511161" lon="9.08071375451982">
        <ele>1375.0699999999999</ele>
        <time>2025-11-23T13:58:00Z</time>
      </trkpt>
      <trkpt lat="46.089007537811995" lon="9.080577967688441">
        <ele>1372.28</ele>
        <time>2025-11-23T13:58:14Z</time>
      </trkpt>
      <trkpt lat="46.089063109830022" lon="9.080442767590284">
        <ele>1369.71</ele>
        <time>2025-11-23T13:58:29Z</time>
      </trkpt>
      <trkpt lat="46.089152209460735" lon="9.080364983528853">
        <ele>1367.97</ele>
        <time>2025-11-23T13:58:44Z</time>
      </trkpt>
      <trkpt lat="46.089254803955555" lon="9.080336904153228">
        <ele>1366.47</ele>
        <time>2025-11-23T13:58:56Z</time>
      </trkpt>
      <trkpt lat="46.089361337944865" lon="9.080306813120842">
        <ele>1364.6199999999999</ele>
        <time>2025-11-23T13:59:09Z</time>
      </trkpt>
      <trkpt lat="46.089467536658049" lon="9.080280577763915">
        <ele>1363.3099999999999</ele>
        <time>2025-11-23T13:59:22Z</time>
      </trkpt>
      <trkpt lat="46.089575830847025" lon="9.080210672691464">
        <ele>1361.29</ele>
        <time>2025-11-23T13:59:35Z</time>
      </trkpt>
      <trkpt lat="46.089675324037671" lon="9.080178234726191">
        <ele>1360.27</ele>
        <time>2025-11-23T13:59:46Z</time>
      </trkpt>
      <trkpt lat="46.089777750894427" lon="9.080175636336207">
        <ele>1359.05</ele>
        <time>2025-11-23T13:59:58Z</time>
      </trkpt>
      <trkpt lat="46.089884201064706" lon="9.080176223069429">
        <ele>1357.74</ele>
        <time>2025-11-23T14:00:10Z</time>
      </trkpt>
      <trkpt lat="46.089997189119458" lon="9.080162225291133">
        <ele>1355.72</ele>
        <time>2025-11-23T14:00:23Z</time>
      </trkpt>
      <trkpt lat="46.090089976787567" lon="9.080241098999977">
        <ele>1354.3800000000001</ele>
        <time>2025-11-23T14:00:35Z</time>
      </trkpt>
      <trkpt lat="46.09016683883965" lon="9.080358697101474">
        <ele>1352.5799999999999</ele>
        <time>2025-11-23T14:00:49Z</time>
      </trkpt>
      <trkpt lat="46.090203719213605" lon="9.080493561923504">
        <ele>1351.97</ele>
        <time>2025-11-23T14:00:58Z</time>
      </trkpt>
      <trkpt lat="46.090170526877046" lon="9.080598503351212">
        <ele>1349.6600000000001</ele>
        <time>2025-11-23T14:01:11Z</time>
      </trkpt>
      <trkpt lat="46.090159630402923" lon="9.080748623237014">
        <ele>1347.8099999999999</ele>
        <time>2025-11-23T14:01:25Z</time>
      </trkpt>
      <trkpt lat="46.090318467468023" lon="9.080769494175911">
        <ele>1348.4100000000001</ele>
        <time>2025-11-23T14:01:38Z</time>
      </trkpt>
      <trkpt lat="46.090422067791224" lon="9.080737223848701">
        <ele>1349.78</ele>
        <time>2025-11-23T14:01:51Z</time>
      </trkpt>
      <trkpt lat="46.090522734448314" lon="9.080741414800286">
        <ele>1350.3299999999999</ele>
        <time>2025-11-23T14:02:05Z</time>
      </trkpt>
      <trkpt lat="46.090624993667006" lon="9.080764884129167">
        <ele>1351.47</ele>
        <time>2025-11-23T14:02:16Z</time>
      </trkpt>
      <trkpt lat="46.090696910396218" lon="9.080673605203629">
        <ele>1352.96</ele>
        <time>2025-11-23T14:02:29Z</time>
      </trkpt>
      <trkpt lat="46.090794056653976" lon="9.080671342089772">
        <ele>1353.3699999999999</ele>
        <time>2025-11-23T14:02:41Z</time>
      </trkpt>
      <trkpt lat="46.09081475995481" lon="9.080545194447041">
        <ele>1353.4400000000001</ele>
        <time>2025-11-23T14:02:57Z</time>
      </trkpt>
      <trkpt lat="46.090790703892708" lon="9.08049582503736">
        <ele>1355.0799999999999</ele>
        <time>2025-11-23T14:03:18Z</time>
      </trkpt>
      <trkpt lat="46.09066572971642" lon="9.080474618822336">
        <ele>1355.1500000000001</ele>
        <time>2025-11-23T14:03:52Z</time>
      </trkpt>
      <trkpt lat="46.090538157150149" lon="9.080476965755224">
        <ele>1355.05</ele>
        <time>2025-11-23T14:04:08Z</time>
      </trkpt>
      <trkpt lat="46.090448806062341" lon="9.080440504476428">
        <ele>1355.6400000000001</ele>
        <time>2025-11-23T14:04:32Z</time>
      </trkpt>
      <trkpt lat="46.090486440807581" lon="9.080420471727848">
        <ele>1355.6600000000001</ele>
        <time>2025-11-23T14:04:55Z</time>
      </trkpt>
      <trkpt lat="46.090475041419268" lon="9.080396164208651">
        <ele>1355.8699999999999</ele>
        <time>2025-11-23T14:05:14Z</time>
      </trkpt>
      <trkpt lat="46.090535558760166" lon="9.080256018787623">
        <ele>1355.6600000000001</ele>
        <time>2025-11-23T14:05:27Z</time>
      </trkpt>
      <trkpt lat="46.090598255395889" lon="9.080154513940215">
        <ele>1355.8900000000001</ele>
        <time>2025-11-23T14:05:42Z</time>
      </trkpt>
      <trkpt lat="46.090515777468681" lon="9.080076394602656">
        <ele>1356</ele>
        <time>2025-11-23T14:06:01Z</time>
      </trkpt>
      <trkpt lat="46.090549221262336" lon="9.079928454011679">
        <ele>1355.9400000000001</ele>
        <time>2025-11-23T14:06:12Z</time>
      </trkpt>
      <trkpt lat="46.090528350323439" lon="9.079801384359598">
        <ele>1355.4400000000001</ele>
        <time>2025-11-23T14:06:21Z</time>
      </trkpt>
      <trkpt lat="46.090547293424606" lon="9.079664004966617">
        <ele>1353.5</ele>
        <time>2025-11-23T14:06:33Z</time>
      </trkpt>
      <trkpt lat="46.090588951483369" lon="9.079547077417374">
        <ele>1351.26</ele>
        <time>2025-11-23T14:06:46Z</time>
      </trkpt>
      <trkpt lat="46.090573780238628" lon="9.079419756308198">
        <ele>1347.8499999999999</ele>
        <time>2025-11-23T14:07:00Z</time>
      </trkpt>
      <trkpt lat="46.090571684762836" lon="9.079266367480159">
        <ele>1346.1400000000001</ele>
        <time>2025-11-23T14:07:11Z</time>
      </trkpt>
      <trkpt lat="46.090630860999227" lon="9.079143153503537">
        <ele>1345.6600000000001</ele>
        <time>2025-11-23T14:07:22Z</time>
      </trkpt>
      <trkpt lat="46.090649804100394" lon="9.079004097729921">
        <ele>1340.77</ele>
        <time>2025-11-23T14:07:38Z</time>
      </trkpt>
      <trkpt lat="46.090672519057989" lon="9.078864958137274">
        <ele>1337.7</ele>
        <time>2025-11-23T14:07:51Z</time>
      </trkpt>
      <trkpt lat="46.09072582796216" lon="9.078737050294876">
        <ele>1333.97</ele>
        <time>2025-11-23T14:08:07Z</time>
      </trkpt>
      <trkpt lat="46.090712500736117" lon="9.078573603183031">
        <ele>1330.01</ele>
        <time>2025-11-23T14:08:24Z</time>
      </trkpt>
      <trkpt lat="46.090632285922766" lon="9.078557342290878">
        <ele>1326.03</ele>
        <time>2025-11-23T14:08:42Z</time>
      </trkpt>
      <trkpt lat="46.090599847957492" lon="9.078419711440802">
        <ele>1322.26</ele>
        <time>2025-11-23T14:08:59Z</time>
      </trkpt>
      <trkpt lat="46.090658353641629" lon="9.07828769646585">
        <ele>1319.2</ele>
        <time>2025-11-23T14:09:13Z</time>
      </trkpt>
      <trkpt lat="46.090620383620262" lon="9.078122489154339">
        <ele>1315.1099999999999</ele>
        <time>2025-11-23T14:09:28Z</time>
      </trkpt>
      <trkpt lat="46.090569505468011" lon="9.0779950004071">
        <ele>1312.1099999999999</ele>
        <time>2025-11-23T14:09:38Z</time>
      </trkpt>
      <trkpt lat="46.090596998110414" lon="9.077875558286905">
        <ele>1310.3099999999999</ele>
        <time>2025-11-23T14:09:51Z</time>
      </trkpt>
      <trkpt lat="46.090646116062999" lon="9.077798947691917">
        <ele>1310.22</ele>
        <time>2025-11-23T14:10:05Z</time>
      </trkpt>
      <trkpt lat="46.090626586228609" lon="9.077851166948676">
        <ele>1310.3800000000001</ele>
        <time>2025-11-23T14:10:20Z</time>
      </trkpt>
      <trkpt lat="46.090578390285373" lon="9.077702974900603">
        <ele>1311.8099999999999</ele>
        <time>2025-11-23T14:10:38Z</time>
      </trkpt>
      <trkpt lat="46.090624071657658" lon="9.077527122572064">
        <ele>1311.47</ele>
        <time>2025-11-23T14:10:50Z</time>
      </trkpt>
      <trkpt lat="46.090631699189544" lon="9.077403321862221">
        <ele>1307.8199999999999</ele>
        <time>2025-11-23T14:11:07Z</time>
      </trkpt>
      <trkpt lat="46.090625999495387" lon="9.077251777052879">
        <ele>1306.8599999999999</ele>
        <time>2025-11-23T14:11:18Z</time>
      </trkpt>
      <trkpt lat="46.090590544044971" lon="9.077086821198463">
        <ele>1306.26</ele>
        <time>2025-11-23T14:11:29Z</time>
      </trkpt>
      <trkpt lat="46.090622060000896" lon="9.076944747939706">
        <ele>1306.3299999999999</ele>
        <time>2025-11-23T14:11:40Z</time>
      </trkpt>
      <trkpt lat="46.09065743163228" lon="9.076818600296974">
        <ele>1304.05</ele>
        <time>2025-11-23T14:11:53Z</time>
      </trkpt>
      <trkpt lat="46.0906632989645" lon="9.07667376101017">
        <ele>1301.1400000000001</ele>
        <time>2025-11-23T14:12:07Z</time>
      </trkpt>
      <trkpt lat="46.090632621198893" lon="9.076534286141396">
        <ele>1298.8199999999999</ele>
        <time>2025-11-23T14:12:18Z</time>
      </trkpt>
      <trkpt lat="46.090622143819928" lon="9.076382573693991">
        <ele>1296.01</ele>
        <time>2025-11-23T14:12:31Z</time>
      </trkpt>
      <trkpt lat="46.090640835464001" lon="9.076248547062278">
        <ele>1294.2</ele>
        <time>2025-11-23T14:12:43Z</time>
      </trkpt>
      <trkpt lat="46.090628262609243" lon="9.076092559844255">
        <ele>1291.1500000000001</ele>
        <time>2025-11-23T14:12:55Z</time>
      </trkpt>
      <trkpt lat="46.090642595663667" lon="9.075961299240589">
        <ele>1288.01</ele>
        <time>2025-11-23T14:13:10Z</time>
      </trkpt>
      <trkpt lat="46.090610828250647" lon="9.075829619541764">
        <ele>1285.6400000000001</ele>
        <time>2025-11-23T14:13:22Z</time>
      </trkpt>
      <trkpt lat="46.090565817430615" lon="9.07566768117249">
        <ele>1282.26</ele>
        <time>2025-11-23T14:13:33Z</time>
      </trkpt>
      <trkpt lat="46.090527847409248" lon="9.075514040887356">
        <ele>1280.24</ele>
        <time>2025-11-23T14:13:44Z</time>
      </trkpt>
      <trkpt lat="46.090540671721101" lon="9.075386384502053">
        <ele>1277.73</ele>
        <time>2025-11-23T14:13:58Z</time>
      </trkpt>
      <trkpt lat="46.090526841580868" lon="9.075263002887368">
        <ele>1275.77</ele>
        <time>2025-11-23T14:14:10Z</time>
      </trkpt>
      <trkpt lat="46.090554501861334" lon="9.075130065903068">
        <ele>1272.55</ele>
        <time>2025-11-23T14:14:24Z</time>
      </trkpt>
      <trkpt lat="46.090589957311749" lon="9.075012048706412">
        <ele>1269.8099999999999</ele>
        <time>2025-11-23T14:14:37Z</time>
      </trkpt>
      <trkpt lat="46.090574115514755" lon="9.074894199147821">
        <ele>1266.7</ele>
        <time>2025-11-23T14:14:51Z</time>
      </trkpt>
      <trkpt lat="46.090569673106074" lon="9.074774421751499">
        <ele>1263.8299999999999</ele>
        <time>2025-11-23T14:15:03Z</time>
      </trkpt>
      <trkpt lat="46.09055140055716" lon="9.074625642970204">
        <ele>1260.73</ele>
        <time>2025-11-23T14:15:15Z</time>
      </trkpt>
      <trkpt lat="46.0905337985605" lon="9.0744998306036">
        <ele>1258.79</ele>
        <time>2025-11-23T14:15:27Z</time>
      </trkpt>
      <trkpt lat="46.090499348938465" lon="9.074383741244674">
        <ele>1256.3800000000001</ele>
        <time>2025-11-23T14:15:38Z</time>
      </trkpt>
      <trkpt lat="46.090517370030284" lon="9.074359685182571">
        <ele>1255.77</ele>
        <time>2025-11-23T14:16:30Z</time>
      </trkpt>
      <trkpt lat="46.090543856844306" lon="9.074364714324474">
        <ele>1255.55</ele>
        <time>2025-11-23T14:16:57Z</time>
      </trkpt>
      <trkpt lat="46.090590041130781" lon="9.074377035722137">
        <ele>1255.6199999999999</ele>
        <time>2025-11-23T14:17:19Z</time>
      </trkpt>
      <trkpt lat="46.090550227090716" lon="9.074381142854691">
        <ele>1256.29</ele>
        <time>2025-11-23T14:18:20Z</time>
      </trkpt>
      <trkpt lat="46.090571600943804" lon="9.074360942468047">
        <ele>1256.3199999999999</ele>
        <time>2025-11-23T14:19:21Z</time>
      </trkpt>
      <trkpt lat="46.090610744431615" lon="9.074316015467048">
        <ele>1255.96</ele>
        <time>2025-11-23T14:20:06Z</time>
      </trkpt>
      <trkpt lat="46.090645445510745" lon="9.074226999655366">
        <ele>1253.8</ele>
        <time>2025-11-23T14:20:20Z</time>
      </trkpt>
      <trkpt lat="46.090717613697052" lon="9.074211157858372">
        <ele>1251.1099999999999</ele>
        <time>2025-11-23T14:20:34Z</time>
      </trkpt>
      <trkpt lat="46.090767988935113" lon="9.074161620810628">
        <ele>1247.8800000000001</ele>
        <time>2025-11-23T14:20:49Z</time>
      </trkpt>
      <trkpt lat="46.090824063867331" lon="9.074080148711801">
        <ele>1244.8399999999999</ele>
        <time>2025-11-23T14:21:03Z</time>
      </trkpt>
      <trkpt lat="46.090913414955139" lon="9.074045950546861">
        <ele>1241.8399999999999</ele>
        <time>2025-11-23T14:21:20Z</time>
      </trkpt>
      <trkpt lat="46.091017182916403" lon="9.074047710746527">
        <ele>1238.8599999999999</ele>
        <time>2025-11-23T14:21:36Z</time>
      </trkpt>
      <trkpt lat="46.091089183464646" lon="9.073963137343526">
        <ele>1234.3</ele>
        <time>2025-11-23T14:21:57Z</time>
      </trkpt>
      <trkpt lat="46.091007879003882" lon="9.07386900857091">
        <ele>1231.1400000000001</ele>
        <time>2025-11-23T14:22:14Z</time>
      </trkpt>
      <trkpt lat="46.090907128527761" lon="9.073809161782265">
        <ele>1227.1500000000001</ele>
        <time>2025-11-23T14:22:35Z</time>
      </trkpt>
      <trkpt lat="46.090918527916074" lon="9.073751829564571">
        <ele>1224.01</ele>
        <time>2025-11-23T14:22:51Z</time>
      </trkpt>
      <trkpt lat="46.091026067733765" lon="9.073704974725843">
        <ele>1221.3699999999999</ele>
        <time>2025-11-23T14:23:05Z</time>
      </trkpt>
      <trkpt lat="46.09113528393209" lon="9.073769012466073">
        <ele>1220.3299999999999</ele>
        <time>2025-11-23T14:23:18Z</time>
      </trkpt>
      <trkpt lat="46.091220024973154" lon="9.073728108778596">
        <ele>1220.54</ele>
        <time>2025-11-23T14:23:34Z</time>
      </trkpt>
      <trkpt lat="46.091297473758459" lon="9.073558039963245">
        <ele>1221.1700000000001</ele>
        <time>2025-11-23T14:23:48Z</time>
      </trkpt>
      <trkpt lat="46.091330163180828" lon="9.07341755926609">
        <ele>1218.3299999999999</ele>
        <time>2025-11-23T14:24:03Z</time>
      </trkpt>
      <trkpt lat="46.091420352458954" lon="9.073393419384956">
        <ele>1215.0799999999999</ele>
        <time>2025-11-23T14:24:21Z</time>
      </trkpt>
      <trkpt lat="46.091441893950105" lon="9.073253693059087">
        <ele>1212.2</ele>
        <time>2025-11-23T14:24:36Z</time>
      </trkpt>
      <trkpt lat="46.091503584757447" lon="9.073126707226038">
        <ele>1211.78</ele>
        <time>2025-11-23T14:24:50Z</time>
      </trkpt>
      <trkpt lat="46.091641215607524" lon="9.073019251227379">
        <ele>1210.3</ele>
        <time>2025-11-23T14:25:06Z</time>
      </trkpt>
      <trkpt lat="46.091598970815539" lon="9.072885978966951">
        <ele>1210.51</ele>
        <time>2025-11-23T14:25:19Z</time>
      </trkpt>
      <trkpt lat="46.091526886448264" lon="9.072810541838408">
        <ele>1209.25</ele>
        <time>2025-11-23T14:25:32Z</time>
      </trkpt>
      <trkpt lat="46.09144507907331" lon="9.072712222114205">
        <ele>1207.4400000000001</ele>
        <time>2025-11-23T14:25:43Z</time>
      </trkpt>
      <trkpt lat="46.091397050768137" lon="9.07258247025311">
        <ele>1206.1700000000001</ele>
        <time>2025-11-23T14:25:54Z</time>
      </trkpt>
      <trkpt lat="46.09130778349936" lon="9.072512732818723">
        <ele>1205.4000000000001</ele>
        <time>2025-11-23T14:26:06Z</time>
      </trkpt>
      <trkpt lat="46.09123058617115" lon="9.072384238243103">
        <ele>1202.75</ele>
        <time>2025-11-23T14:26:18Z</time>
      </trkpt>
      <trkpt lat="46.09118415042758" lon="9.072244092822075">
        <ele>1200.3199999999999</ele>
        <time>2025-11-23T14:26:29Z</time>
      </trkpt>
      <trkpt lat="46.091147605329752" lon="9.072116771712899">
        <ele>1198.3599999999999</ele>
        <time>2025-11-23T14:26:38Z</time>
      </trkpt>
      <trkpt lat="46.091114915907383" lon="9.071984337642789">
        <ele>1198.04</ele>
        <time>2025-11-23T14:26:48Z</time>
      </trkpt>
      <trkpt lat="46.091024558991194" lon="9.0718939807266">
        <ele>1197</ele>
        <time>2025-11-23T14:27:01Z</time>
      </trkpt>
      <trkpt lat="46.090976949781179" lon="9.071795577183366">
        <ele>1194.3900000000001</ele>
        <time>2025-11-23T14:27:13Z</time>
      </trkpt>
      <trkpt lat="46.090915929526091" lon="9.071667166426778">
        <ele>1192.27</ele>
        <time>2025-11-23T14:27:30Z</time>
      </trkpt>
      <trkpt lat="46.090853484347463" lon="9.071543114259839">
        <ele>1191.26</ele>
        <time>2025-11-23T14:27:41Z</time>
      </trkpt>
      <trkpt lat="46.090786764398217" lon="9.071436747908592">
        <ele>1191.24</ele>
        <time>2025-11-23T14:27:51Z</time>
      </trkpt>
      <trkpt lat="46.090711075812578" lon="9.071316383779049">
        <ele>1190.6300000000001</ele>
        <time>2025-11-23T14:28:02Z</time>
      </trkpt>
      <trkpt lat="46.090649636462331" lon="9.071183865889907">
        <ele>1189.3199999999999</ele>
        <time>2025-11-23T14:28:15Z</time>
      </trkpt>
      <trkpt lat="46.09057579189539" lon="9.071087641641498">
        <ele>1186.1600000000001</ele>
        <time>2025-11-23T14:28:31Z</time>
      </trkpt>
      <trkpt lat="46.090492391958833" lon="9.071002481505275">
        <ele>1183.53</ele>
        <time>2025-11-23T14:28:45Z</time>
      </trkpt>
      <trkpt lat="46.090438831597567" lon="9.07088253647089">
        <ele>1182.0599999999999</ele>
        <time>2025-11-23T14:28:58Z</time>
      </trkpt>
      <trkpt lat="46.090366076678038" lon="9.070791509002447">
        <ele>1181</ele>
        <time>2025-11-23T14:29:11Z</time>
      </trkpt>
      <trkpt lat="46.090302709490061" lon="9.070659829303622">
        <ele>1178.3399999999999</ele>
        <time>2025-11-23T14:29:25Z</time>
      </trkpt>
      <trkpt lat="46.090255603194237" lon="9.070532005280256">
        <ele>1175.6300000000001</ele>
        <time>2025-11-23T14:29:37Z</time>
      </trkpt>
      <trkpt lat="46.090279659256339" lon="9.070380376651883">
        <ele>1174.0699999999999</ele>
        <time>2025-11-23T14:29:49Z</time>
      </trkpt>
      <trkpt lat="46.090313773602247" lon="9.070245008915663">
        <ele>1172.45</ele>
        <time>2025-11-23T14:30:01Z</time>
      </trkpt>
      <trkpt lat="46.090381080284715" lon="9.070142665877938">
        <ele>1170.3599999999999</ele>
        <time>2025-11-23T14:30:14Z</time>
      </trkpt>
      <trkpt lat="46.090335734188557" lon="9.070066474378109">
        <ele>1166.6600000000001</ele>
        <time>2025-11-23T14:30:31Z</time>
      </trkpt>
      <trkpt lat="46.090240348130465" lon="9.07016571611166">
        <ele>1163.6900000000001</ele>
        <time>2025-11-23T14:30:49Z</time>
      </trkpt>
      <trkpt lat="46.090116798877716" lon="9.07024341635406">
        <ele>1159.9300000000001</ele>
        <time>2025-11-23T14:31:06Z</time>
      </trkpt>
      <trkpt lat="46.090021831914783" lon="9.070339305326343">
        <ele>1157.3099999999999</ele>
        <time>2025-11-23T14:31:21Z</time>
      </trkpt>
      <trkpt lat="46.089950334280729" lon="9.070467548444867">
        <ele>1155.7</ele>
        <time>2025-11-23T14:31:35Z</time>
      </trkpt>
      <trkpt lat="46.08988487161696" lon="9.070599814876914">
        <ele>1153.1900000000001</ele>
        <time>2025-11-23T14:31:50Z</time>
      </trkpt>
      <trkpt lat="46.089828629046679" lon="9.070471236482263">
        <ele>1150.5699999999999</ele>
        <time>2025-11-23T14:32:04Z</time>
      </trkpt>
      <trkpt lat="46.08976760879159" lon="9.070374676957727">
        <ele>1148.0899999999999</ele>
        <time>2025-11-23T14:32:18Z</time>
      </trkpt>
      <trkpt lat="46.089735925197601" lon="9.070220282301307">
        <ele>1146.24</ele>
        <time>2025-11-23T14:32:31Z</time>
      </trkpt>
      <trkpt lat="46.089771213009953" lon="9.070112491026521">
        <ele>1144.0699999999999</ele>
        <time>2025-11-23T14:32:43Z</time>
      </trkpt>
      <trkpt lat="46.089887637645006" lon="9.070031689479947">
        <ele>1141.3399999999999</ele>
        <time>2025-11-23T14:32:59Z</time>
      </trkpt>
      <trkpt lat="46.089951088652015" lon="9.06992482021451">
        <ele>1138.5999999999999</ele>
        <time>2025-11-23T14:33:12Z</time>
      </trkpt>
      <trkpt lat="46.090019233524799" lon="9.069769252091646">
        <ele>1135.1199999999999</ele>
        <time>2025-11-23T14:33:29Z</time>
      </trkpt>
      <trkpt lat="46.090094419196248" lon="9.069675458595157">
        <ele>1132.55</ele>
        <time>2025-11-23T14:33:42Z</time>
      </trkpt>
      <trkpt lat="46.090161390602589" lon="9.069532966241241">
        <ele>1130.6700000000001</ele>
        <time>2025-11-23T14:33:55Z</time>
      </trkpt>
      <trkpt lat="46.090244287624955" lon="9.06943959183991">
        <ele>1127.4100000000001</ele>
        <time>2025-11-23T14:34:13Z</time>
      </trkpt>
      <trkpt lat="46.09033590182662" lon="9.069338170811534">
        <ele>1125.1300000000001</ele>
        <time>2025-11-23T14:34:26Z</time>
      </trkpt>
      <trkpt lat="46.090368675068021" lon="9.069188805297017">
        <ele>1124.25</ele>
        <time>2025-11-23T14:34:37Z</time>
      </trkpt>
      <trkpt lat="46.090404130518436" lon="9.069045893847942">
        <ele>1122.52</ele>
        <time>2025-11-23T14:34:50Z</time>
      </trkpt>
      <trkpt lat="46.090473281219602" lon="9.068928714841604">
        <ele>1122.1800000000001</ele>
        <time>2025-11-23T14:35:01Z</time>
      </trkpt>
      <trkpt lat="46.090555088594556" lon="9.068839196115732">
        <ele>1120.5999999999999</ele>
        <time>2025-11-23T14:35:12Z</time>
      </trkpt>
      <trkpt lat="46.090654078871012" lon="9.068758729845285">
        <ele>1118.6500000000001</ele>
        <time>2025-11-23T14:35:25Z</time>
      </trkpt>
      <trkpt lat="46.090717362239957" lon="9.068637862801552">
        <ele>1116.5699999999999</ele>
        <time>2025-11-23T14:35:37Z</time>
      </trkpt>
      <trkpt lat="46.090684924274683" lon="9.068557983264327">
        <ele>1113.3299999999999</ele>
        <time>2025-11-23T14:35:52Z</time>
      </trkpt>
      <trkpt lat="46.090641422197223" lon="9.068479863926768">
        <ele>1109.5799999999999</ele>
        <time>2025-11-23T14:36:05Z</time>
      </trkpt>
      <trkpt lat="46.090713925659657" lon="9.068392608314753">
        <ele>1106.8499999999999</ele>
        <time>2025-11-23T14:36:19Z</time>
      </trkpt>
      <trkpt lat="46.090661119669676" lon="9.068350866436958">
        <ele>1103.24</ele>
        <time>2025-11-23T14:36:36Z</time>
      </trkpt>
      <trkpt lat="46.090682242065668" lon="9.068200159817934">
        <ele>1099.22</ele>
        <time>2025-11-23T14:36:52Z</time>
      </trkpt>
      <trkpt lat="46.090663718059659" lon="9.068108880892396">
        <ele>1096.01</ele>
        <time>2025-11-23T14:37:05Z</time>
      </trkpt>
      <trkpt lat="46.090630693361163" lon="9.068004777655006">
        <ele>1093.5</ele>
        <time>2025-11-23T14:37:19Z</time>
      </trkpt>
      <trkpt lat="46.090577216818929" lon="9.068051045760512">
        <ele>1089.74</ele>
        <time>2025-11-23T14:37:37Z</time>
      </trkpt>
      <trkpt lat="46.090528015047312" lon="9.067985499277711">
        <ele>1085.8399999999999</ele>
        <time>2025-11-23T14:37:56Z</time>
      </trkpt>
      <trkpt lat="46.090452326461673" lon="9.06800352036953">
        <ele>1082.72</ele>
        <time>2025-11-23T14:38:11Z</time>
      </trkpt>
      <trkpt lat="46.09040186740458" lon="9.067890448495746">
        <ele>1079.26</ele>
        <time>2025-11-23T14:38:24Z</time>
      </trkpt>
      <trkpt lat="46.090419637039304" lon="9.067769162356854">
        <ele>1076.75</ele>
        <time>2025-11-23T14:38:35Z</time>
      </trkpt>
      <trkpt lat="46.090361634269357" lon="9.067800929769874">
        <ele>1073.9100000000001</ele>
        <time>2025-11-23T14:38:51Z</time>
      </trkpt>
      <trkpt lat="46.090260297060013" lon="9.067858094349504">
        <ele>1070.5799999999999</ele>
        <time>2025-11-23T14:39:07Z</time>
      </trkpt>
      <trkpt lat="46.090259877964854" lon="9.067735215649009">
        <ele>1067.8499999999999</ele>
        <time>2025-11-23T14:39:20Z</time>
      </trkpt>
      <trkpt lat="46.090153343975544" lon="9.067775700241327">
        <ele>1063.8099999999999</ele>
        <time>2025-11-23T14:39:37Z</time>
      </trkpt>
      <trkpt lat="46.090116295963526" lon="9.067714596167207">
        <ele>1060.0799999999999</ele>
        <time>2025-11-23T14:39:54Z</time>
      </trkpt>
      <trkpt lat="46.090049827471375" lon="9.067697077989578">
        <ele>1057.2</ele>
        <time>2025-11-23T14:40:11Z</time>
      </trkpt>
      <trkpt lat="46.08999727293849" lon="9.067658353596926">
        <ele>1054.55</ele>
        <time>2025-11-23T14:40:24Z</time>
      </trkpt>
      <trkpt lat="46.090046809986234" lon="9.067543605342507">
        <ele>1052.3900000000001</ele>
        <time>2025-11-23T14:40:36Z</time>
      </trkpt>
      <trkpt lat="46.089983358979225" lon="9.067488284781575">
        <ele>1048.8599999999999</ele>
        <time>2025-11-23T14:40:55Z</time>
      </trkpt>
      <trkpt lat="46.08999827876687" lon="9.067372446879745">
        <ele>1045.45</ele>
        <time>2025-11-23T14:41:09Z</time>
      </trkpt>
      <trkpt lat="46.089929798617959" lon="9.067291393876076">
        <ele>1042.6900000000001</ele>
        <time>2025-11-23T14:41:23Z</time>
      </trkpt>
      <trkpt lat="46.090003056451678" lon="9.067215705290437">
        <ele>1040.3299999999999</ele>
        <time>2025-11-23T14:41:35Z</time>
      </trkpt>
      <trkpt lat="46.089954022318125" lon="9.067127611488104">
        <ele>1037.1400000000001</ele>
        <time>2025-11-23T14:41:51Z</time>
      </trkpt>
      <trkpt lat="46.089906664565206" lon="9.067074386402965">
        <ele>1034.1800000000001</ele>
        <time>2025-11-23T14:42:06Z</time>
      </trkpt>
      <trkpt lat="46.089950418099761" lon="9.06697397120297">
        <ele>1032.0699999999999</ele>
        <time>2025-11-23T14:42:18Z</time>
      </trkpt>
      <trkpt lat="46.089929966256022" lon="9.066881015896797">
        <ele>1030.49</ele>
        <time>2025-11-23T14:42:30Z</time>
      </trkpt>
      <trkpt lat="46.089840531349182" lon="9.066927032545209">
        <ele>1028.3199999999999</ele>
        <time>2025-11-23T14:42:42Z</time>
      </trkpt>
      <trkpt lat="46.089791245758533" lon="9.066814798861742">
        <ele>1023.2</ele>
        <time>2025-11-23T14:43:01Z</time>
      </trkpt>
      <trkpt lat="46.089839525520802" lon="9.066640706732869">
        <ele>1019.29</ele>
        <time>2025-11-23T14:43:18Z</time>
      </trkpt>
      <trkpt lat="46.089931558817625" lon="9.066589660942555">
        <ele>1017.74</ele>
        <time>2025-11-23T14:43:33Z</time>
      </trkpt>
      <trkpt lat="46.090017976239324" lon="9.066562252119184">
        <ele>1015.03</ele>
        <time>2025-11-23T14:43:53Z</time>
      </trkpt>
      <trkpt lat="46.089994171634316" lon="9.066445576027036">
        <ele>1011.41</ele>
        <time>2025-11-23T14:44:10Z</time>
      </trkpt>
      <trkpt lat="46.089955866336823" lon="9.066325128078461">
        <ele>1007.05</ele>
        <time>2025-11-23T14:44:28Z</time>
      </trkpt>
      <trkpt lat="46.089925356209278" lon="9.066175175830722">
        <ele>1004.6900000000001</ele>
        <time>2025-11-23T14:44:42Z</time>
      </trkpt>
      <trkpt lat="46.0898223426193" lon="9.066089680418372">
        <ele>1002.5700000000001</ele>
        <time>2025-11-23T14:44:54Z</time>
      </trkpt>
      <trkpt lat="46.089747911319137" lon="9.066019440069795">
        <ele>1001.8200000000001</ele>
        <time>2025-11-23T14:45:04Z</time>
      </trkpt>
      <trkpt lat="46.089671216905117" lon="9.065941656008363">
        <ele>1001.16</ele>
        <time>2025-11-23T14:45:16Z</time>
      </trkpt>
      <trkpt lat="46.089597456157207" lon="9.065866218879819">
        <ele>998.86000000000001</ele>
        <time>2025-11-23T14:45:31Z</time>
      </trkpt>
      <trkpt lat="46.089527131989598" lon="9.065774101763964">
        <ele>996.59000000000003</ele>
        <time>2025-11-23T14:45:51Z</time>
      </trkpt>
      <trkpt lat="46.089603742584586" lon="9.065815340727568">
        <ele>996.40999999999997</ele>
        <time>2025-11-23T14:46:14Z</time>
      </trkpt>
      <trkpt lat="46.089586727321148" lon="9.065861608833075">
        <ele>997.04999999999995</ele>
        <time>2025-11-23T14:46:50Z</time>
      </trkpt>
      <trkpt lat="46.089663421735168" lon="9.065877785906196">
        <ele>998.72000000000003</ele>
        <time>2025-11-23T14:47:46Z</time>
      </trkpt>
      <trkpt lat="46.08966501429677" lon="9.065843336284161">
        <ele>998.21000000000004</ele>
        <time>2025-11-23T14:48:15Z</time>
      </trkpt>
      <trkpt lat="46.089623440057039" lon="9.065853478386998">
        <ele>998.78999999999996</ele>
        <time>2025-11-23T14:49:01Z</time>
      </trkpt>
      <trkpt lat="46.089621093124151" lon="9.065828416496515">
        <ele>999.29999999999995</ele>
        <time>2025-11-23T14:49:40Z</time>
      </trkpt>
      <trkpt lat="46.089683873578906" lon="9.06579002737999">
        <ele>999.38</ele>
        <time>2025-11-23T14:49:57Z</time>
      </trkpt>
      <trkpt lat="46.089706085622311" lon="9.065731270238757">
        <ele>1000.0700000000001</ele>
        <time>2025-11-23T14:50:28Z</time>
      </trkpt>
      <trkpt lat="46.089731063693762" lon="9.065775610506535">
        <ele>1000.74</ele>
        <time>2025-11-23T14:51:16Z</time>
      </trkpt>
      <trkpt lat="46.089697787538171" lon="9.065796062350273">
        <ele>1000.92</ele>
        <time>2025-11-23T14:52:01Z</time>
      </trkpt>
      <trkpt lat="46.089640287682414" lon="9.065742334350944">
        <ele>1001.16</ele>
        <time>2025-11-23T14:52:24Z</time>
      </trkpt>
      <trkpt lat="46.089731734246016" lon="9.065747614949942">
        <ele>1001.14</ele>
        <time>2025-11-23T14:52:37Z</time>
      </trkpt>
      <trkpt lat="46.089789485558867" lon="9.065810646861792">
        <ele>1001.1</ele>
        <time>2025-11-23T14:53:03Z</time>
      </trkpt>
      <trkpt lat="46.089775823056698" lon="9.065896812826395">
        <ele>1001.58</ele>
        <time>2025-11-23T14:53:39Z</time>
      </trkpt>
      <trkpt lat="46.089763836935163" lon="9.065936962142587">
        <ele>1001.99</ele>
        <time>2025-11-23T14:54:04Z</time>
      </trkpt>
      <trkpt lat="46.089726286008954" lon="9.065846269950271">
        <ele>1002.21</ele>
        <time>2025-11-23T14:54:27Z</time>
      </trkpt>
      <trkpt lat="46.089673228561878" lon="9.065817855298519">
        <ele>1002.23</ele>
        <time>2025-11-23T14:54:53Z</time>
      </trkpt>
      <trkpt lat="46.089692423120141" lon="9.065791703760624">
        <ele>1002.52</ele>
        <time>2025-11-23T14:55:27Z</time>
      </trkpt>
      <trkpt lat="46.08979593962431" lon="9.065855154767633">
        <ele>1002.42</ele>
        <time>2025-11-23T14:55:46Z</time>
      </trkpt>
      <trkpt lat="46.089710695669055" lon="9.065844677388668">
        <ele>1002.73</ele>
        <time>2025-11-23T14:56:02Z</time>
      </trkpt>
      <trkpt lat="46.08962394297123" lon="9.065802684053779">
        <ele>1002.8099999999999</ele>
        <time>2025-11-23T14:56:34Z</time>
      </trkpt>
      <trkpt lat="46.089672222733498" lon="9.065822549164295">
        <ele>1002.85</ele>
        <time>2025-11-23T14:57:11Z</time>
      </trkpt>
      <trkpt lat="46.089784037321806" lon="9.065931178629398">
        <ele>1003.1799999999999</ele>
        <time>2025-11-23T14:57:50Z</time>
      </trkpt>
      <trkpt lat="46.089719077572227" lon="9.065865967422724">
        <ele>1002.7</ele>
        <time>2025-11-23T14:58:28Z</time>
      </trkpt>
      <trkpt lat="46.089759059250355" lon="9.065954899415374">
        <ele>1002.3200000000001</ele>
        <time>2025-11-23T14:58:47Z</time>
      </trkpt>
      <trkpt lat="46.089725783094764" lon="9.065921623259783">
        <ele>1003.63</ele>
        <time>2025-11-23T14:59:11Z</time>
      </trkpt>
      <trkpt lat="46.089666858315468" lon="9.065827745944262">
        <ele>1003.33</ele>
        <time>2025-11-23T14:59:41Z</time>
      </trkpt>
      <trkpt lat="46.089669791981578" lon="9.06588189303875">
        <ele>1003.3200000000001</ele>
        <time>2025-11-23T15:00:39Z</time>
      </trkpt>
      <trkpt lat="46.089738188311458" lon="9.06584870070219">
        <ele>1003.24</ele>
        <time>2025-11-23T15:01:07Z</time>
      </trkpt>
      <trkpt lat="46.089732740074396" lon="9.065813664346933">
        <ele>1003.42</ele>
        <time>2025-11-23T15:01:54Z</time>
      </trkpt>
      <trkpt lat="46.089747408404946" lon="9.065804444253445">
        <ele>1003.48</ele>
        <time>2025-11-23T15:02:27Z</time>
      </trkpt>
      <trkpt lat="46.089665601029992" lon="9.065773012116551">
        <ele>1003.77</ele>
        <time>2025-11-23T15:03:10Z</time>
      </trkpt>
      <trkpt lat="46.089663170278072" lon="9.065777538344264">
        <ele>1004.0599999999999</ele>
        <time>2025-11-23T15:03:35Z</time>
      </trkpt>
      <trkpt lat="46.089708851650357" lon="9.065782148391008">
        <ele>1004.0599999999999</ele>
        <time>2025-11-23T15:03:55Z</time>
      </trkpt>
      <trkpt lat="46.089677503332496" lon="9.065754069015384">
        <ele>1004.45</ele>
        <time>2025-11-23T15:04:36Z</time>
      </trkpt>
      <trkpt lat="46.089594690129161" lon="9.06578466296196">
        <ele>1004.4299999999999</ele>
        <time>2025-11-23T15:04:58Z</time>
      </trkpt>
      <trkpt lat="46.089523360133171" lon="9.065696066245437">
        <ele>1004.55</ele>
        <time>2025-11-23T15:05:11Z</time>
      </trkpt>
      <trkpt lat="46.089549176394939" lon="9.065725570544601">
        <ele>1004.9299999999999</ele>
        <time>2025-11-23T15:05:38Z</time>
      </trkpt>
      <trkpt lat="46.089471140876412" lon="9.065653402358294">
        <ele>1002.49</ele>
        <time>2025-11-23T15:05:53Z</time>
      </trkpt>
      <trkpt lat="46.089391931891441" lon="9.065592801198363">
        <ele>1000.4</ele>
        <time>2025-11-23T15:06:04Z</time>
      </trkpt>
      <trkpt lat="46.089397212490439" lon="9.065439915284514">
        <ele>997.47000000000003</ele>
        <time>2025-11-23T15:06:19Z</time>
      </trkpt>
      <trkpt lat="46.089390842244029" lon="9.065329944714904">
        <ele>996.08000000000004</ele>
        <time>2025-11-23T15:06:31Z</time>
      </trkpt>
      <trkpt lat="46.089445827528834" lon="9.065217459574342">
        <ele>995.83000000000004</ele>
        <time>2025-11-23T15:06:39Z</time>
      </trkpt>
      <trkpt lat="46.089499220252037" lon="9.065100783482194">
        <ele>995.21000000000004</ele>
        <time>2025-11-23T15:06:48Z</time>
      </trkpt>
      <trkpt lat="46.089547919109464" lon="9.064980754628778">
        <ele>995.52999999999997</ele>
        <time>2025-11-23T15:06:57Z</time>
      </trkpt>
      <trkpt lat="46.089591505005956" lon="9.064855026081204">
        <ele>995.27999999999997</ele>
        <time>2025-11-23T15:07:06Z</time>
      </trkpt>
      <trkpt lat="46.089637102559209" lon="9.064729381352663">
        <ele>994.37</ele>
        <time>2025-11-23T15:07:15Z</time>
      </trkpt>
      <trkpt lat="46.089688735082746" lon="9.064615638926625">
        <ele>993.73000000000002</ele>
        <time>2025-11-23T15:07:24Z</time>
      </trkpt>
      <trkpt lat="46.08974757604301" lon="9.06450348906219">
        <ele>992.96000000000004</ele>
        <time>2025-11-23T15:07:33Z</time>
      </trkpt>
      <trkpt lat="46.089802980422974" lon="9.064395278692246">
        <ele>991.22000000000003</ele>
        <time>2025-11-23T15:07:42Z</time>
      </trkpt>
      <trkpt lat="46.089827287942171" lon="9.064265945926309">
        <ele>989.75</ele>
        <time>2025-11-23T15:07:51Z</time>
      </trkpt>
      <trkpt lat="46.089838268235326" lon="9.06413552351296">
        <ele>988.67999999999995</ele>
        <time>2025-11-23T15:08:00Z</time>
      </trkpt>
      <trkpt lat="46.089818067848682" lon="9.063996467739344">
        <ele>987.01999999999998</ele>
        <time>2025-11-23T15:08:09Z</time>
      </trkpt>
      <trkpt lat="46.089820582419634" lon="9.063863195478916">
        <ele>984.83000000000004</ele>
        <time>2025-11-23T15:08:19Z</time>
      </trkpt>
      <trkpt lat="46.089885458350182" lon="9.063766719773412">
        <ele>983.75</ele>
        <time>2025-11-23T15:08:28Z</time>
      </trkpt>
      <trkpt lat="46.089865425601602" lon="9.063644846901298">
        <ele>981.15999999999997</ele>
        <time>2025-11-23T15:08:39Z</time>
      </trkpt>
      <trkpt lat="46.089910604059696" lon="9.063532613217831">
        <ele>978.13</ele>
        <time>2025-11-23T15:08:51Z</time>
      </trkpt>
      <trkpt lat="46.089891409501433" lon="9.06342507340014">
        <ele>975.44000000000005</ele>
        <time>2025-11-23T15:09:03Z</time>
      </trkpt>
      <trkpt lat="46.089842123910785" lon="9.06331560574472">
        <ele>972.20000000000005</ele>
        <time>2025-11-23T15:09:16Z</time>
      </trkpt>
      <trkpt lat="46.089808093383908" lon="9.063195073977113">
        <ele>969.25999999999999</ele>
        <time>2025-11-23T15:09:29Z</time>
      </trkpt>
      <trkpt lat="46.089770123362541" lon="9.063053084537387">
        <ele>965.94000000000005</ele>
        <time>2025-11-23T15:09:44Z</time>
      </trkpt>
      <trkpt lat="46.089711030945182" lon="9.062935989350081">
        <ele>963.00999999999999</ele>
        <time>2025-11-23T15:09:56Z</time>
      </trkpt>
      <trkpt lat="46.089704828336835" lon="9.062803303822875">
        <ele>961.46000000000004</ele>
        <time>2025-11-23T15:10:05Z</time>
      </trkpt>
      <trkpt lat="46.089732069522142" lon="9.062658799812198">
        <ele>960.32000000000005</ele>
        <time>2025-11-23T15:10:14Z</time>
      </trkpt>
      <trkpt lat="46.089746486395597" lon="9.062509182840586">
        <ele>959.38999999999999</ele>
        <time>2025-11-23T15:10:23Z</time>
      </trkpt>
      <trkpt lat="46.089764842763543" lon="9.062378173694015">
        <ele>958.51999999999998</ele>
        <time>2025-11-23T15:10:32Z</time>
      </trkpt>
    </trkseg>
  </trk>

</gpx>